[[{"header":{"parameterUnit":"m.s-1","parameterCategory":1,"la1":30.6,"la2":28.766,"lo1":-90.7593,"lo2":-88.6598,"dy":0.0162,"dx":0.0183,"nx":116,"ny":114,"refTime":"2024-02-11T06:00:00:Z","depth":0,"parameterNumber":2,"parameterNumberName":"U-component_of_WINDS"},"data":[0.0,0.0,0.0,0.0,0.0,0.0,0.0,0.0,0.0,0.0,0.0,0.0,0.0,0.0,0.0,0.0,0.0,0.0,0.0,0.0,0.0,0.0,0.0,0.0,0.0,0.0,0.0,0.0,0.0,0.0,0.0,0.0,0.0,0.0,0.0,0.0,0.0,0.0,0.0,0.0,0.0,0.0,0.0,0.0,0.0,0.0,0.0,0.0,0.0,0.0,0.0,0.0,0.0,0.0,0.0,0.0,0.0,0.0,0.0,0.0,0.0,0.0,0.0,0.0,0.0,0.0,0.0,0.0,0.0,0.0,0.0,0.0,0.0,0.0,0.0,0.0,0.0,0.0,0.0,0.0,0.0,0.0,0.0,0.0,0.0,0.0,0.0,0.0,0.0,0.0,0.0,0.0,0.0,0.0,0.0,0.0,0.0,0.0,0.0,0.0,0.0,0.0,0.0,0.0,0.0,0.0,0.0,0.0,0.0,0.0,0.0,0.0,0.0,0.0,0.0,0.0,0.0,0.0,0.0,0.0,0.0,0.0,0.0,0.0,0.0,0.0,0.0,0.0,0.0,0.0,0.0,0.0,0.0,0.0,0.0,0.0,0.0,0.0,0.0,0.0,0.0,0.0,0.0,0.0,0.0,0.0,0.0,0.0,0.0,0.0,0.0,0.0,0.0,0.0,0.0,0.0,0.0,0.0,0.0,0.0,0.0,0.0,0.0,0.0,0.0,0.0,0.0,0.0,0.0,0.0,0.0,0.0,0.0,0.0,0.0,0.0,0.0,0.0,0.0,0.0,0.0,0.0,0.0,0.0,0.0,0.0,0.0,0.0,0.0,0.0,0.0,0.0,0.0,0.0,0.0,0.0,0.0,0.0,0.0,0.0,0.0,0.0,0.0,0.0,0.0,0.0,0.0,0.0,0.0,0.0,0.0,0.0,0.0,0.0,0.0,0.0,0.0,0.0,0.0,0.0,0.0,0.0,0.0,0.0,0.0,0.0,0.0,0.0,0.0,0.0,0.0,0.0,0.0,0.0,0.0,0.0,0.0,0.0,0.0,0.0,0.0,0.0,0.0,0.0,0.0,0.0,0.0,0.0,0.0,0.0,0.0,0.0,0.0,0.0,0.0,0.0,0.0,0.0,0.0,0.0,0.0,0.0,0.0,0.0,0.0,0.0,0.0,0.0,0.0,0.0,0.0,0.0,0.0,0.0,0.0,0.0,0.0,0.0,0.0,0.0,0.0,0.0,0.0,0.0,0.0,0.0,0.0,0.0,0.0,0.0,0.0,0.0,0.0,0.0,0.0,0.0,0.0,0.0,0.0,0.0,0.0,0.0,0.0,0.0,0.0,0.0,0.0,0.0,0.0,0.0,0.0,0.0,0.0,0.0,0.0,0.0,0.0,0.0,0.0,0.0,0.0,0.0,0.0,0.0,0.0,0.0,0.0,0.0,0.0,0.0,0.0,0.0,0.0,0.0,0.0,0.0,0.0,0.0,0.0,0.0,0.0,0.0,0.0,0.0,0.0,0.0,0.0,0.0,0.0,0.0,0.0,0.0,0.0,0.0,0.0,0.0,0.0,0.0,0.0,0.0,0.0,0.0,0.0,0.0,0.0,0.0,0.0,0.0,0.0,0.0,0.0,0.0,0.0,0.0,0.0,0.0,0.0,0.0,0.0,0.0,0.0,0.0,0.0,0.0,0.0,0.0,0.0,0.0,0.0,0.0,0.0,0.0,0.0,0.0,0.0,0.0,0.0,0.0,0.0,0.0,0.0,0.0,0.0,0.0,0.0,0.0,0.0,0.0,0.0,0.0,0.0,0.0,0.0,0.0,0.0,0.0,0.0,0.0,0.0,0.0,0.0,0.0,0.0,0.0,0.0,0.0,0.0,0.0,0.0,0.0,0.0,0.0,0.0,0.0,0.0,0.0,0.0,0.0,0.0,0.0,0.0,0.0,0.0,0.0,0.0,0.0,0.0,0.0,0.0,0.0,0.0,0.0,0.0,0.0,0.0,0.0,0.0,0.0,0.0,0.0,0.0,0.0,0.0,0.0,0.0,0.0,0.0,0.0,0.0,0.0,0.0,0.0,0.0,0.0,0.0,0.0,0.0,0.0,0.0,0.0,0.0,0.0,0.0,0.0,0.0,0.0,0.0,0.0,0.0,0.0,0.0,0.0,0.0,0.0,0.0,0.0,0.0,0.0,0.0,0.0,0.0,0.0,0.0,0.0,0.0,0.0,0.0,0.0,0.0,0.0,0.0,0.0,0.0,0.0,0.0,0.0,0.0,0.0,0.0,0.0,0.0,0.0,0.0,0.0,0.0,0.0,0.0,0.0,0.0,0.0,0.0,0.0,0.0,0.0,0.0,0.0,0.0,0.0,0.0,0.0,0.0,0.0,0.0,0.0,0.0,0.0,0.0,0.0,0.0,0.0,0.0,0.0,0.0,0.0,0.0,0.0,0.0,0.0,0.0,0.0,0.0,0.0,0.0,0.0,0.0,0.0,0.0,0.0,0.0,0.0,0.0,0.0,0.0,0.0,0.0,0.0,0.0,0.0,0.0,0.0,0.0,0.0,0.0,0.0,0.0,0.0,0.0,0.0,0.0,0.0,0.0,0.0,0.0,0.0,0.0,0.0,0.0,0.0,0.0,0.0,0.0,0.0,0.0,0.0,0.0,0.0,0.0,0.0,0.0,0.0,0.0,0.0,0.0,0.0,0.0,0.0,0.0,0.0,0.0,0.0,0.0,0.0,0.0,0.0,0.0,0.0,0.0,0.0,0.0,0.0,0.0,0.0,0.0,0.0,0.0,0.0,0.0,0.0,0.0,0.0,0.0,0.0,0.0,0.0,0.0,0.0,0.0,0.0,0.0,0.0,0.0,0.0,0.0,0.0,0.0,0.0,0.0,0.0,0.0,0.0,0.0,0.0,0.0,0.0,0.0,0.0,0.0,0.0,0.0,0.0,0.0,0.0,0.0,0.0,0.0,0.0,0.0,0.0,0.0,0.0,0.0,0.0,0.0,0.0,0.0,0.0,0.0,0.0,0.0,0.0,0.0,0.0,0.0,0.0,0.0,0.0,0.0,0.0,0.0,0.0,0.0,0.0,0.0,0.0,0.0,0.0,0.0,0.0,0.0,0.0,0.0,0.0,0.0,0.0,0.0,0.0,0.0,0.0,0.0,0.0,0.0,0.0,0.0,0.0,0.0,0.0,0.0,0.0,0.0,0.0,0.0,0.0,0.0,0.0,0.0,0.0,0.0,0.0,0.0,0.0,0.0,0.0,0.0,0.0,0.0,0.0,0.0,0.0,0.0,0.0,0.0,0.0,0.0,0.0,0.0,0.0,0.0,0.0,0.0,0.0,0.0,0.0,0.0,0.0,0.0,0.0,0.0,0.0,0.0,0.0,0.0,0.0,0.0,0.0,0.0,0.0,0.0,0.0,0.0,0.0,0.0,0.0,0.0,0.0,0.0,0.0,0.0,0.0,0.0,0.0,0.0,0.0,0.0,0.0,0.0,0.0,0.0,0.0,0.0,0.0,0.0,0.0,0.0,0.0,0.0,0.0,0.0,0.0,0.0,0.0,0.0,0.0,0.0,0.0,0.0,0.0,0.0,0.0,0.0,0.0,0.0,0.0,0.0,0.0,0.0,0.0,0.0,0.0,0.0,0.0,0.0,0.0,0.0,0.0,0.0,0.0,0.0,0.0,0.0,0.0,0.0,0.0,0.0,0.0,0.0,0.0,0.0,0.0,0.0,0.0,0.0,0.0,0.0,0.0,0.0,0.0,0.0,0.0,0.0,0.0,0.0,0.0,0.0,0.0,0.0,0.0,0.0,0.0,0.0,0.0,0.0,0.0,0.0,0.0,0.0,0.0,0.0,0.0,0.0,0.0,0.0,0.0,0.0,0.0,0.0,0.0,0.0,0.0,0.0,0.0,0.0,0.0,0.0,0.0,0.0,0.0,0.0,0.0,0.0,0.0,0.0,0.0,0.0,0.0,0.0,0.0,0.0,0.0,0.0,0.0,0.0,0.0,0.0,0.0,0.0,0.0,0.0,0.0,0.0,0.0,0.0,0.0,0.0,0.0,0.0,0.0,0.0,0.0,0.0,0.0,0.0,0.0,0.0,0.0,0.0,0.0,0.0,0.0,0.0,0.0,0.0,0.0,0.0,0.0,0.0,0.0,0.0,0.0,0.0,0.0,0.0,0.0,0.0,0.0,0.0,0.0,0.0,0.0,0.0,0.0,0.0,0.0,0.0,0.0,0.0,0.0,0.0,0.0,0.0,0.0,0.0,0.0,0.0,0.0,0.0,0.0,0.0,0.0,0.0,0.0,0.0,0.0,0.0,0.0,0.0,0.0,0.0,0.0,0.0,0.0,0.0,0.0,0.0,0.0,0.0,0.0,0.0,0.0,0.0,0.0,0.0,0.0,0.0,0.0,0.0,0.0,0.0,0.0,0.0,0.0,0.0,0.0,0.0,0.0,0.0,0.0,0.0,0.0,0.0,0.0,0.0,0.0,0.0,0.0,0.0,0.0,0.0,0.0,0.0,0.0,0.0,0.0,0.0,0.0,0.0,0.0,0.0,0.0,0.0,0.0,0.0,0.0,0.0,0.0,0.0,0.0,0.0,0.0,0.0,0.0,0.0,0.0,0.0,0.0,0.0,0.0,0.0,0.0,0.0,0.0,0.0,0.0,0.0,0.0,0.0,0.0,0.0,0.0,0.0,0.0,0.0,0.0,0.0,0.0,0.0,0.0,0.0,0.0,0.0,0.0,0.0,0.0,0.0,0.0,0.0,0.0,0.0,0.0,0.0,0.0,0.0,0.0,0.0,0.0,0.0,0.0,0.0,0.0,0.0,0.0,0.0,0.0,0.0,0.0,0.0,0.0,0.0,0.0,0.0,0.0,0.0,0.0,0.0,0.0,0.0,0.0,0.0,0.0,0.0,0.0,0.0,0.0,0.0,0.0,0.0,0.0,0.0,0.0,0.0,0.0,0.0,0.0,0.0,0.0,0.0,0.0,0.0,0.0,0.0,0.0,0.0,0.0,0.0,0.0,0.0,0.0,0.0,0.0,0.0,0.0,0.0,0.0,0.0,0.0,0.0,0.0,0.0,0.0,0.0,0.0,0.0,0.0,0.0,0.0,0.0,0.0,0.0,0.0,0.0,0.0,0.0,0.0,0.0,0.0,0.0,0.0,0.0,0.0,0.0,0.0,0.0,0.0,0.0,0.0,0.0,0.0,0.0,0.0,0.0,0.0,0.0,0.0,0.0,0.0,0.0,0.0,0.0,0.0,0.0,0.0,0.0,0.0,0.0,0.0,0.0,0.0,0.0,0.0,0.0,0.0,0.0,0.0,0.0,0.0,0.0,0.0,0.0,0.0,0.0,0.0,0.0,0.0,0.0,0.0,0.0,0.0,0.0,0.0,0.0,0.0,0.0,0.0,0.0,0.0,0.0,0.0,0.0,0.0,0.0,0.0,0.0,0.0,0.0,0.0,0.0,0.0,0.0,0.0,0.0,0.0,0.0,0.0,0.0,0.0,0.0,0.0,0.0,0.0,0.0,0.0,0.0,0.0,0.0,0.0,0.0,0.0,0.0,0.0,0.0,0.0,0.0,0.0,0.0,0.0,0.0,0.0,0.0,0.0,0.0,0.0,0.0,0.0,0.0,0.0,0.0,0.0,0.0,0.0,0.0,0.0,0.0,0.0,0.0,0.0,0.0,0.0,0.0,0.0,0.0,0.0,0.0,0.0,0.0,0.0,0.0,0.0,0.0,0.0,0.0,0.0,0.0,0.0,0.0,0.0,0.0,0.0,0.0,0.0,0.0,0.0,0.0,0.0,0.0,0.0,0.0,0.0,0.0,0.0,0.0,0.0,0.0,0.0,0.0,0.0,0.0,0.0,0.0,0.0,0.0,0.0,0.0,0.0,0.0,0.0,0.0,0.0,0.0,0.0,0.0,0.0,0.0,0.0,0.0,0.0,0.0,0.0,0.0,0.0,0.0,0.0,0.0,0.0,0.0,0.0,0.0,0.0,0.0,0.0,0.0,0.0,0.0,0.0,0.0,0.0,0.0,0.0,0.0,0.0,0.0,0.0,2.0732,0.0,0.0,0.0,0.0,0.0,0.0,0.0,0.0,0.0,0.0,0.0,0.0,0.0,0.0,0.0,0.0,0.0,0.0,0.0,0.0,0.0,0.0,0.0,0.0,0.0,0.0,0.0,0.9767,0.9565,1.0169,0.9353,0.8948,0.9187,0.9102,0.9031,0.899,0.9155,0.944,0.9841,0.9744,1.0092,1.0842,1.0458,1.0085,0.9764,0.0,0.0,0.0,0.0,0.0,0.0,0.0,0.0,0.0,0.0,0.0,0.0,0.0,0.0,0.0,0.0,0.0,0.0,0.0,0.0,0.0,0.0,0.0,0.0,0.0,0.0,0.0,0.0,0.0,0.0,0.0,0.0,0.0,0.0,0.0,0.0,0.0,0.0,0.0,0.0,0.0,0.0,0.0,0.0,0.0,0.0,0.0,0.0,0.0,0.0,0.0,0.0,0.0,0.0,0.0,0.0,0.0,0.0,0.0,0.0,0.0,0.0,0.0,0.0,0.0,0.0,0.0,0.0,0.0,0.0,0.0,2.1692,0.0,0.0,0.0,0.0,0.0,0.0,0.0,0.0,0.0,0.0,0.0,0.0,0.0,0.0,0.0,0.0,0.0,0.0,0.0,0.0,0.0,0.0,0.0,0.9426,0.9776,1.0295,0.9699,0.9524,1.0032,0.949,0.9175,0.9272,0.9272,0.9248,0.9202,0.9396,0.9751,1.0263,1.0402,1.0706,1.1166,1.1691,1.1719,0.0,0.0,0.0,0.0,0.0,0.0,0.0,0.0,0.0,0.0,0.0,0.0,0.0,0.0,0.0,0.0,0.0,0.0,0.0,0.0,0.0,0.0,0.0,0.0,0.0,0.0,0.0,0.0,0.0,0.0,0.0,0.0,0.0,0.0,0.0,0.0,0.0,0.0,0.0,0.0,0.0,0.0,0.0,0.0,0.0,0.0,0.0,0.0,0.0,0.0,0.0,0.0,0.0,0.0,0.0,0.0,0.0,0.0,0.0,0.0,0.0,0.0,0.0,0.0,0.0,2.3745,2.3991,2.4551,2.5221,2.5589,2.5628,2.4311,2.3583,2.3249,0.0,0.0,0.0,0.0,0.0,0.0,0.0,0.0,0.0,0.0,0.0,0.0,0.0,0.0,0.0,0.0,0.0,0.0,0.0,0.0,0.0,0.0,0.9588,1.0022,1.044,1.001,1.0019,1.0727,0.9559,0.9055,0.9527,0.9547,0.9445,0.9207,0.9675,1.0243,1.0872,1.2421,1.3118,1.297,1.4028,1.4428,1.4176,0.0,0.0,0.0,0.0,0.0,0.0,0.0,0.0,0.0,0.0,0.0,0.0,0.0,0.0,0.0,0.0,0.0,0.0,0.0,0.0,0.0,0.0,0.0,0.0,0.0,0.0,0.0,0.0,0.0,0.0,0.0,0.0,0.0,0.0,0.0,0.0,0.0,0.0,0.0,0.0,0.0,0.0,0.0,0.0,1.9522,1.9584,0.0,0.0,0.0,0.0,0.0,0.0,0.0,0.0,0.0,0.0,0.0,0.0,0.0,2.2872,2.3674,2.4727,2.5058,2.4662,2.6175,2.6521,2.5907,2.7357,2.7884,2.7672,2.8355,0.0,2.5011,2.4224,0.0,0.0,0.0,0.0,0.0,0.0,0.0,0.0,0.0,0.0,0.0,0.0,0.0,0.0,0.0,0.0,0.0,0.0,0.0,0.0,0.0,1.0297,1.0655,1.0715,1.1057,1.1049,1.0539,1.032,1.0093,0.984,0.9748,0.975,0.9814,1.0225,1.0912,1.1842,1.3315,1.4037,1.4044,1.4901,1.5428,1.5658,1.4809,1.4016,1.3276,1.2245,0.0,0.0,0.0,0.0,0.0,0.0,0.0,0.0,0.0,0.0,0.0,0.0,0.0,0.0,0.0,0.0,0.0,0.0,0.0,0.0,0.0,0.0,0.0,0.0,0.0,0.0,0.0,0.0,0.0,0.0,0.0,0.0,0.0,0.0,0.0,0.0,0.0,0.0,0.0,1.9427,2.0386,2.0723,2.0562,2.0449,0.0,0.0,0.0,0.0,0.0,0.0,0.0,0.0,0.0,2.3236,2.4137,2.4813,2.521,2.6019,2.6487,2.6615,2.7295,2.7771,2.8096,2.8787,2.9253,2.9561,3.0139,2.9453,2.7841,2.6649,2.5049,2.3243,0.0,0.0,0.0,0.0,2.1561,2.1735,0.0,0.0,0.0,0.0,0.0,0.0,0.0,0.0,0.0,0.0,0.0,0.0,1.0421,1.0934,1.1286,1.1397,1.1935,1.1892,1.1016,1.1063,1.089,1.0355,1.0074,1.0074,1.036,1.0975,1.1838,1.2963,1.3992,1.4628,1.4894,1.556,1.6093,1.6538,1.6538,1.5842,1.4622,1.3484,1.269,0.0,0.0,0.0,0.0,0.0,0.0,0.0,0.0,0.0,0.0,0.0,0.0,0.0,0.0,0.0,0.0,0.0,0.0,0.0,0.0,0.0,0.0,0.0,0.0,0.0,0.0,0.0,0.0,0.0,0.0,0.0,0.0,0.0,0.0,0.0,0.0,0.0,0.0,2.0512,2.147,2.189,2.1844,2.1772,0.0,0.0,0.0,0.0,0.0,0.0,2.3875,2.4656,2.5004,2.4778,2.58,2.6371,2.6408,2.6954,2.7505,2.8053,2.7948,2.8481,2.9525,2.9658,3.0063,3.0657,3.0947,3.0746,3.0068,2.8643,2.6974,2.5224,2.4559,2.3616,2.2731,2.3365,2.3458,2.3468,0.0,0.0,0.0,0.0,0.0,0.0,0.0,0.0,0.0,0.0,0.0,1.0093,1.0889,1.1169,1.1701,1.2717,1.2256,1.2255,1.3001,1.1535,1.0813,1.1219,1.0623,1.0375,1.0586,1.1907,1.313,1.4207,1.4772,1.5255,1.5669,1.6466,1.6852,1.6875,1.6875,1.6752,1.6511,1.5627,1.4859,1.4119,0.0,0.0,0.0,0.0,0.0,0.0,0.0,0.0,0.0,0.0,0.0,0.0,0.0,0.0,0.0,0.0,0.0,0.0,0.0,0.0,0.0,0.0,0.0,0.0,0.0,0.0,0.0,0.0,0.0,0.0,0.0,0.0,0.0,0.0,0.0,0.0,0.0,0.0,0.0,2.3133,2.3935,0.0,0.0,0.0,0.0,2.4667,2.4625,2.5203,2.6706,2.6255,2.6301,2.7092,2.7077,2.7109,2.7248,2.7822,2.8148,2.8191,2.8363,2.8763,2.9336,2.983,3.022,3.0531,3.1053,3.1156,3.0857,2.9756,2.8786,2.7919,2.7069,2.6558,2.6287,2.5881,2.6045,2.6384,0.0,0.0,0.0,0.0,0.0,0.0,0.0,0.0,0.8959,0.9051,0.9945,1.0722,1.1145,1.2146,1.2763,1.2712,1.3516,1.3677,1.2879,1.2119,1.1754,1.1862,1.0953,1.0932,1.1996,1.2854,1.3705,1.4552,1.5352,1.5905,1.6222,1.7049,1.7327,1.7157,1.7512,1.7432,1.6958,1.6001,1.5304,1.4758,1.3732,1.2848,0.0,0.0,0.0,0.0,0.0,0.0,0.0,0.0,0.0,0.0,0.0,0.0,0.0,0.0,0.0,0.0,0.0,0.0,0.0,0.0,0.0,0.0,0.0,0.0,0.0,0.0,0.0,0.0,0.0,0.0,0.0,0.0,0.0,0.0,0.0,0.0,0.0,2.4108,2.5057,0.0,2.4837,2.5377,2.584,2.6033,2.6597,2.7134,2.7608,2.7832,2.8015,2.821,2.7982,2.79,2.7938,2.7806,2.7837,2.8002,2.8382,2.8849,2.937,2.9915,3.0393,3.0835,3.1024,3.1062,3.097,3.0586,2.9848,2.8927,2.8379,2.7848,2.7322,2.6809,2.6738,2.684,0.0,0.0,0.0,0.0,0.0,0.0,0.0,0.0,0.8993,0.9235,1.0226,1.1116,1.168,1.2817,1.3486,1.3394,1.432,1.4428,1.3241,1.2646,1.2285,1.2175,1.1616,1.1973,1.3391,1.3979,1.4656,1.544,1.5976,1.6389,1.6695,1.7268,1.7387,1.7068,1.7527,1.7548,1.7195,1.6551,1.5992,1.5525,1.4924,1.4152,1.3292,0.0,0.0,0.0,0.0,0.0,0.0,0.0,0.0,0.0,0.0,0.0,0.0,0.0,0.0,0.0,0.0,0.0,0.0,0.0,0.0,0.0,0.0,0.0,0.0,0.0,0.0,0.0,0.0,0.0,0.0,0.0,0.0,0.0,0.0,0.0,2.4443,2.5248,2.6266,2.6688,2.6082,2.6822,2.7378,2.7503,2.8141,2.8667,2.9085,2.9068,2.9067,2.9107,2.8521,2.8241,2.8326,2.7879,2.785,2.8275,2.8489,2.8923,2.956,3.0,3.0402,3.0713,3.0713,3.0713,3.0725,3.0556,3.0128,2.9555,2.9468,2.8979,2.8287,2.7906,2.7577,2.7242,0.0,0.0,0.0,0.0,0.0,0.0,0.0,0.8364,0.8866,0.9364,1.0181,1.1193,1.245,1.3082,1.3825,1.4791,1.4582,1.4379,1.43,1.3105,1.2314,1.2133,1.2661,1.3473,1.4591,1.5268,1.6023,1.6857,1.6598,1.6656,1.6979,1.7169,1.7028,1.6588,1.6869,1.7097,1.7284,1.7349,1.7053,1.649,1.6169,1.5601,1.4832,0.0,0.0,0.0,0.0,0.0,0.0,0.0,0.0,0.0,0.0,0.0,0.0,0.0,0.0,0.0,0.0,0.0,0.0,0.0,0.0,0.0,0.0,0.0,0.0,0.0,0.0,0.0,0.0,0.0,0.0,0.0,0.0,0.0,2.341,2.474,2.586,2.6526,2.7628,2.7896,2.6853,2.7535,2.8355,2.9084,2.9139,2.9749,3.1209,2.9908,2.9364,2.9897,2.8678,2.8139,2.839,2.806,2.8261,2.8958,2.8715,2.9007,2.9767,3.0055,3.018,3.017,3.017,3.017,3.0148,2.9692,2.9657,2.9932,3.0342,3.0042,2.939,2.9326,2.8703,2.7794,0.0,0.0,0.0,0.0,0.0,0.0,0.0,0.8571,0.8999,0.9808,1.0716,1.1621,1.2495,1.3434,1.4082,1.4363,1.4391,1.4317,1.4096,1.2937,1.2364,1.2597,1.3721,1.4516,1.4873,1.544,1.5768,1.5805,1.6132,1.623,1.614,1.6581,1.6511,1.6052,1.67,1.6822,1.6515,1.6941,1.6904,1.6581,1.678,1.6524,1.5876,0.0,0.0,0.0,0.0,0.0,0.0,0.0,0.0,0.0,0.0,0.0,0.0,0.0,0.0,0.0,0.0,0.0,0.0,0.0,0.0,0.0,0.0,0.0,0.0,0.0,0.0,0.0,0.0,0.0,0.0,0.0,0.0,2.3121,2.3398,2.4723,2.5981,2.6856,2.7926,2.8466,2.8175,2.8724,2.9305,2.9873,2.9759,3.0062,3.0966,3.0164,2.9818,3.0104,2.9071,2.8466,2.84,2.8118,2.7981,2.7996,2.8461,2.8798,2.9014,2.9489,2.9681,2.9692,2.9692,2.9692,2.9692,2.9554,2.9531,2.9646,2.9954,2.9828,2.9443,2.9235,2.8523,2.7575,0.0,0.0,0.0,0.0,0.0,0.0,0.0,0.8488,0.8936,0.985,1.0662,1.1564,1.2654,1.3321,1.3818,1.4135,1.4239,1.4042,1.3532,1.2872,1.2654,0.0,0.0,1.5007,1.516,1.5685,1.5881,1.5734,1.6051,1.6177,1.6139,1.6563,1.6632,1.6351,1.6586,1.6659,1.6576,1.6666,1.6822,1.7001,1.7229,1.7117,1.6733,1.5904,1.5739,1.5827,1.5053,1.5173,1.5691,1.5521,0.0,0.0,0.0,0.0,0.0,0.0,0.0,0.0,0.0,0.0,0.0,0.0,0.0,0.0,0.0,0.0,0.0,0.0,0.0,0.0,0.0,0.0,0.0,0.0,2.2768,2.385,2.4109,2.526,2.6473,2.7525,2.8196,2.856,2.856,2.9034,2.9543,2.9993,3.0035,3.0303,3.09,3.0291,2.9856,2.9752,2.899,2.8525,2.8411,2.8019,2.7921,2.8063,2.8308,2.8576,2.8867,2.9202,2.9393,0.0,2.937,2.9393,2.9485,2.9278,2.9209,0.0,0.0,0.0,0.0,0.0,2.7663,2.7073,0.0,0.0,0.0,0.0,0.0,0.0,0.0,0.8265,0.8833,0.9724,1.0316,1.1248,1.2758,1.2893,1.3178,1.3903,1.3945,1.3599,1.2854,1.2897,0.0,1.3468,1.4447,1.5108,1.5368,1.5849,1.6116,1.6126,1.6126,1.6265,1.657,1.6783,1.6921,1.6989,1.6498,1.6549,1.6982,1.6522,1.6747,1.7406,1.7406,1.7443,1.7438,1.6803,1.695,1.7349,1.6128,1.6194,1.6765,1.5794,0.0,0.0,0.0,0.0,0.0,0.0,0.0,0.0,0.0,0.0,0.0,0.0,0.0,0.0,0.0,0.0,0.0,0.0,0.0,0.0,0.0,0.0,0.0,0.0,2.3421,2.4386,2.5232,2.6086,2.7037,2.8181,2.8348,2.8348,2.8348,2.8735,2.9176,2.9653,2.9957,3.0321,3.0796,0.0,0.0,0.0,0.0,2.8301,2.8301,2.7837,2.7942,2.8585,2.8172,2.8342,2.8989,2.8989,2.9117,2.9324,2.9071,2.9128,2.9347,2.8885,2.871,2.8757,2.9163,2.8943,2.8252,2.7097,2.665,2.6563,0.0,0.0,0.0,0.0,0.0,0.0,0.0,0.8418,0.8899,0.998,1.0327,1.0952,1.2293,1.2286,1.2479,1.3145,1.3006,1.2897,1.2888,0.0,1.353,1.4015,1.4663,1.5044,1.516,1.5412,1.558,1.5627,1.5627,1.5873,1.6359,1.6177,1.6235,1.6457,1.6342,1.6348,1.6457,1.6577,1.6697,1.6857,1.6857,1.7371,1.8079,1.7633,1.7799,1.8199,1.7548,1.7954,1.8737,1.8487,1.8354,1.8307,1.8307,0.0,0.0,0.0,0.0,0.0,0.0,0.0,0.0,0.0,0.0,0.0,0.0,0.0,0.0,0.0,0.0,0.0,0.0,0.0,0.0,2.3361,2.4152,2.5043,2.6163,2.662,2.7076,2.7691,2.7961,2.8068,2.8068,2.8154,2.8399,2.8879,2.9312,2.9603,2.9795,2.9602,2.9275,2.8783,2.8111,2.7749,2.7749,2.7654,2.7678,2.7809,0.0,0.0,2.8198,2.8198,2.8245,2.8292,2.8233,2.835,2.8605,2.8279,2.8151,2.8162,2.8245,2.8342,2.8306,2.747,2.7153,2.71,0.0,0.0,0.0,0.0,0.0,0.0,0.0,0.814,0.853,0.9483,0.9744,1.0242,1.1286,1.1218,1.1428,1.2235,1.2305,1.2446,0.0,1.3303,1.3724,1.4033,1.4691,1.5001,1.4909,1.5131,1.5271,1.5293,1.5425,1.572,1.61,1.6094,1.6241,1.6484,1.6226,1.6245,1.6497,1.6356,1.6554,1.6961,1.6936,1.7421,1.8096,1.7598,1.7813,1.8331,1.7792,1.8076,1.8715,1.8775,1.8839,1.8951,1.9213,1.8593,1.7681,0.0,0.0,0.0,0.0,0.0,0.0,0.0,0.0,0.0,0.0,0.0,0.0,0.0,0.0,2.1343,2.1692,0.0,2.3136,2.4141,2.4781,2.5365,2.5949,2.6428,2.689,2.7404,2.756,2.7655,2.7655,2.783,2.8099,2.8475,2.8828,2.8957,2.8751,2.8729,2.8411,2.7806,2.7567,2.7452,2.7452,2.7309,2.7309,2.7452,2.7452,2.756,2.7786,2.7786,2.8007,2.8349,2.8216,2.8354,2.8652,2.8168,2.783,2.7655,2.7489,2.7618,2.7754,2.7011,2.681,2.6852,0.0,0.0,0.0,0.0,0.0,0.0,0.0,0.7752,0.809,0.8848,0.9079,0.9428,1.0134,1.0062,1.032,1.1201,1.1571,0.0,0.0,1.3259,1.3718,1.3968,1.4561,1.4775,1.46,1.4808,1.4948,1.5003,1.5292,1.5563,1.5839,1.6041,1.6284,1.6511,1.6042,1.6119,1.6592,1.6099,1.6362,1.7094,1.7119,1.7432,1.785,1.7313,1.7603,1.8176,1.7598,1.7702,1.8139,1.838,1.8746,1.9203,1.9583,1.9413,1.8922,1.8326,1.8321,0.0,0.0,0.0,0.0,0.0,0.0,0.0,0.0,0.0,2.0157,2.0563,2.1441,2.2296,2.289,2.3317,2.3898,2.4802,2.5205,2.5486,2.567,2.6108,2.6592,2.7095,2.7143,2.7143,2.7143,2.7438,2.7717,2.7914,2.8235,2.8239,2.7843,2.7833,2.7571,2.6961,2.7017,2.7085,2.7143,2.689,2.689,2.7143,2.6972,2.7081,2.7404,2.7511,2.7871,2.8396,2.8307,2.8459,2.8722,2.8072,2.7596,2.7232,2.6945,2.6914,2.6996,2.6529,2.6433,2.6548,0.0,0.0,0.0,0.0,0.0,0.0,0.0,0.0,0.7822,0.8631,0.8706,0.881,0.9139,0.9144,0.9394,1.0026,0.0,0.0,1.2454,1.2771,1.3298,1.422,1.41,1.4092,1.426,1.4289,1.4421,1.4662,1.4966,1.5296,1.5544,1.5589,1.574,1.5971,1.5687,1.5847,1.6332,1.6028,1.6228,1.6764,1.6808,1.7179,1.7601,1.7305,1.7536,1.7968,1.7554,1.7736,1.8234,1.8489,1.8996,1.9614,2.0011,2.0052,1.9865,1.9509,0.0,1.7965,1.7488,1.7171,1.7237,1.8359,1.875,1.9372,0.0,0.0,2.176,2.216,2.277,2.3253,2.3418,2.3708,2.4262,2.5251,2.5261,2.5443,2.627,2.624,2.6269,2.6544,2.6592,2.6592,2.6592,2.6643,2.6663,2.6687,2.7112,2.7309,2.7199,2.7259,2.7214,2.708,2.6542,2.6342,2.6592,2.6318,2.6318,2.6592,2.6805,2.6794,2.6626,2.725,2.7429,2.7308,2.7932,2.8111,2.791,2.7663,2.7376,2.7078,2.6695,2.6424,2.6284,2.6672,2.6843,2.688,0.0,0.0,0.0,0.0,0.0,0.0,0.0,0.0,0.0,0.7867,0.7786,0.7742,0.7934,0.837,0.8772,0.9058,0.0,0.0,1.1526,1.2194,1.2951,1.3811,1.3886,1.4,1.4188,1.4347,1.4478,1.4591,1.4886,1.5092,1.5223,1.5202,1.5282,1.5357,1.5256,1.5449,1.5844,1.5883,1.6113,1.6491,1.6885,1.6964,1.6834,1.6713,1.6493,1.6305,1.6734,1.6992,0.0,0.0,1.7938,1.8073,1.9257,1.9175,1.8733,1.9181,1.8961,0.0,1.8667,1.8723,0.0,0.0,1.9982,2.0737,2.1995,2.222,2.238,2.306,2.3171,2.3288,2.3658,2.3978,2.4326,0.0,2.4957,2.5121,2.5523,2.5257,2.5088,2.5208,2.5366,2.5679,2.6225,2.6373,2.6315,2.6038,2.6605,2.6804,2.6422,2.6432,2.6507,2.6631,2.6355,2.6319,2.6506,2.6221,2.6351,2.6854,2.6569,2.6719,2.7251,2.7016,2.6845,2.6774,2.7981,2.805,2.7368,2.7651,2.7597,2.7232,2.6666,2.6384,2.6296,2.6403,2.652,2.6651,0.0,0.0,0.0,0.0,0.0,0.0,0.0,0.0,0.0,0.0,0.7099,0.694,0.7072,0.7594,0.7989,0.0,0.0,0.0,0.0,1.1433,1.2316,1.3232,1.3487,1.371,1.3958,1.4236,1.4357,1.4351,1.4669,1.4725,1.4559,1.4719,1.4778,1.4693,1.4773,1.4971,1.5296,1.5571,1.5741,1.5917,1.6487,1.642,1.598,1.5953,1.5447,1.4884,1.5673,1.5872,0.0,0.0,1.6534,1.6436,1.8016,1.8027,1.7638,1.8746,1.9059,1.908,1.9214,0.0,0.0,2.0053,2.0738,2.1505,2.2,2.2331,2.2708,2.3297,2.321,2.3215,2.3797,2.4098,0.0,2.4458,2.4735,2.4869,2.4756,2.4433,2.4207,2.4141,2.4184,2.4598,2.5512,2.5898,2.5966,2.5611,2.6079,2.6314,2.6087,2.5966,2.6006,2.6257,2.6257,2.6229,2.6216,2.6129,2.6286,2.6661,2.633,2.6497,2.7107,2.672,2.6567,2.6711,2.7725,2.7806,2.7269,2.7441,2.7327,2.702,2.6383,2.6134,2.6088,2.5928,2.61,2.6366,0.0,0.0,0.0,0.0,0.0,0.0,0.0,0.0,0.0,0.0,0.0,0.0,0.0,0.0,0.0,0.0,0.0,0.0,0.0,1.0424,1.1274,1.2656,1.2779,1.2977,1.3307,1.3646,1.3805,1.3743,1.4134,1.402,1.3456,1.4046,1.4183,1.3941,1.4209,1.4477,1.4739,1.5016,1.4967,1.4794,1.5316,1.5382,1.5127,1.5068,1.4711,1.4248,1.4484,0.0,0.0,0.0,1.4969,1.5252,1.64,1.6891,0.0,1.861,1.9104,0.0,0.0,0.0,1.9087,1.9662,2.0552,2.132,2.1414,2.2171,2.286,2.275,2.2946,2.3269,2.3812,2.4005,2.419,2.4455,2.4735,2.4775,2.4377,2.4149,2.3932,2.3748,2.3327,2.34,0.0,2.4942,2.5328,2.5308,2.5318,2.5718,2.6525,2.6154,2.5989,2.6195,2.6137,2.5913,2.5528,2.5919,2.5919,2.5538,2.6073,2.5969,2.54,2.6214,2.6837,2.7251,2.6984,2.7229,2.7783,2.6705,2.6259,2.6186,2.5708,2.545,2.5328,2.5318,2.5674,2.6149,0.0,0.0,0.0,0.0,0.0,0.0,0.0,0.0,0.0,0.0,0.0,0.0,0.0,0.0,0.0,0.0,0.0,0.0,0.0,0.9743,1.0512,1.1343,1.1773,1.2214,1.2689,1.277,1.2878,1.3032,1.3164,1.3127,1.2941,1.3148,1.3283,1.3361,1.3464,1.3841,1.4449,1.4533,1.4711,1.4969,1.5169,1.506,1.4781,1.4784,1.4238,1.3437,0.0,0.0,0.0,0.0,1.4008,1.408,1.5316,0.0,0.0,1.6819,1.8435,1.9631,0.0,0.0,2.0636,2.0709,2.1484,2.2176,2.1988,2.2178,2.2425,2.2375,2.2216,2.2235,2.2685,2.3039,2.3309,2.352,2.3772,2.3833,2.3611,2.332,2.2994,2.2621,2.2864,0.0,0.0,0.0,0.0,2.476,2.5222,2.5456,2.5419,2.5687,2.5869,2.5933,2.5916,2.5778,2.5497,2.5639,2.5796,2.5964,2.6231,2.6046,2.5467,2.6142,2.6401,2.6343,2.6933,2.7094,2.6908,2.6962,2.7005,2.6913,2.6041,2.5786,2.5815,2.5056,2.5005,2.5372,0.0,0.0,0.0,0.0,0.0,0.0,0.0,0.0,0.0,0.0,0.0,0.0,0.0,0.0,0.0,0.0,0.0,0.0,0.0,0.0,0.9403,1.0064,1.0499,1.0928,1.1397,1.1397,1.1531,1.1765,1.1935,1.2016,1.2004,1.2234,1.2374,1.2474,1.2649,1.3034,1.3527,1.3797,1.4052,1.4274,1.4286,1.4128,1.3878,1.3698,1.3105,0.0,0.0,0.0,0.0,0.0,1.2868,1.3004,1.4009,1.4681,1.5287,1.6351,1.8116,1.9608,0.0,1.9986,2.0959,2.0972,2.1573,2.207,2.1652,2.1724,2.1802,2.1684,2.1415,2.1346,2.1811,2.2138,2.2499,2.292,2.3146,2.3251,2.318,2.2819,2.2459,2.208,2.239,0.0,0.0,0.0,0.0,2.447,2.497,2.5137,2.4783,2.5341,2.5558,2.5299,2.5462,2.5394,2.5103,2.5141,2.5347,2.5664,2.5754,2.5631,2.539,2.5949,2.6138,2.6039,2.6534,2.6683,2.6643,2.6809,2.6909,2.6817,2.5969,2.571,2.5707,2.483,2.4661,2.4966,0.0,0.0,0.0,0.0,0.0,0.0,0.0,0.0,0.0,0.0,0.0,0.0,0.0,0.0,0.0,0.0,0.0,0.0,0.0,0.0,0.0,0.8882,0.899,0.9184,0.9526,0.9647,0.9807,1.0024,1.0483,1.0659,1.0619,1.1278,1.1453,1.1217,1.1741,1.1981,1.2055,1.2762,1.2922,1.27,1.2692,1.2637,1.2498,1.191,0.0,0.0,0.0,0.0,0.0,0.0,0.0,0.0,0.0,0.0,1.6429,1.7074,1.812,1.9127,1.9412,1.9782,2.0152,2.0538,2.0908,2.1048,2.0533,2.0788,2.1044,2.0686,2.0523,2.0577,0.0,0.0,2.1807,2.2617,2.2914,2.3053,2.3053,2.2691,2.2339,0.0,0.0,0.0,0.0,0.0,0.0,2.4304,0.0,2.4663,2.4697,2.5168,2.5127,2.4449,2.4862,2.4889,2.4404,2.4513,2.4616,2.4697,2.4672,2.4817,2.5117,2.5609,2.6038,2.6341,2.5764,2.6054,2.6907,2.6231,2.5958,2.5922,2.55,2.5216,2.4987,2.4579,2.4612,2.4833,0.0,0.0,0.0,0.0,0.0,0.0,0.0,0.0,0.0,0.0,0.0,0.0,0.0,0.0,0.0,0.0,0.0,0.0,0.0,0.0,0.0,0.0,0.0,0.0,0.0,0.0,0.0,0.0,0.0,0.9399,0.9287,0.9714,0.9942,0.9968,1.0218,1.0526,1.0921,1.1102,1.1315,1.1507,0.0,1.1431,1.1829,0.0,0.0,0.0,0.0,0.0,0.0,0.0,0.0,0.0,0.0,1.5061,1.6407,1.6576,1.814,1.9739,1.9374,2.0073,2.0916,2.1015,2.0949,2.0775,2.0649,2.0302,1.9972,1.976,1.9462,1.9379,0.0,0.0,0.0,2.1775,2.2134,0.0,2.2551,2.2558,0.0,0.0,0.0,2.2407,2.2388,2.2944,0.0,0.0,2.3461,2.3983,2.453,2.4675,2.4818,2.4925,2.5041,2.4899,2.448,2.4267,2.4293,2.4557,2.4349,2.4561,2.5101,2.5041,2.5424,2.6164,2.581,2.5918,2.6282,2.5622,2.5326,2.5255,2.4601,2.4321,2.4228,2.3824,2.3845,2.4069,0.0,0.0,0.0,0.0,0.0,0.0,0.0,0.0,0.0,0.0,0.0,0.0,0.0,0.0,0.0,0.0,0.0,0.0,0.0,0.0,0.0,0.0,0.0,0.0,0.0,0.0,0.0,0.0,0.0,0.0,0.0,0.8518,0.8797,0.9023,0.9194,0.9419,0.9731,0.0,0.0,0.0,0.0,0.0,0.0,0.0,0.0,0.0,0.0,0.0,0.0,0.0,0.0,1.3858,1.4675,1.5739,1.675,1.699,0.0,1.9564,1.9347,1.9862,2.0475,2.0598,2.0476,2.0256,1.9947,1.9427,1.8915,1.8483,1.8206,0.0,0.0,0.0,0.0,0.0,0.0,0.0,2.2182,2.2428,2.2431,0.0,2.2203,0.0,2.207,2.2707,2.3014,0.0,2.3445,2.3921,2.3887,2.435,2.463,2.4668,2.4692,2.4515,2.4158,2.3505,2.347,2.4096,2.3982,2.427,2.4869,2.49,2.5284,2.5907,0.0,2.5651,2.5889,2.5512,2.536,2.5306,2.4703,2.4384,2.418,2.378,2.3623,2.3621,0.0,0.0,0.0,0.0,0.0,0.0,0.0,0.0,0.0,0.0,0.0,0.0,0.0,0.0,0.0,0.0,0.0,0.0,0.0,0.0,0.0,0.0,0.0,0.0,0.0,0.0,0.0,0.0,0.0,0.0,0.0,0.0,0.0,0.0,0.0,0.0,0.0,0.0,0.0,0.0,0.0,0.0,0.0,0.0,0.0,0.0,0.0,0.0,0.0,0.0,1.3789,1.3922,1.5306,1.6364,1.7223,1.7701,1.8403,1.9051,1.9265,1.9407,1.9522,1.9717,1.9693,1.9479,1.8876,1.8392,1.787,1.7223,0.0,0.0,1.6916,0.0,1.8864,1.9426,0.0,2.1403,2.1896,2.2212,2.2333,2.2123,2.2122,2.2054,2.1799,2.2386,2.2771,2.2755,2.3793,2.4081,2.3245,2.4081,2.4413,2.4,2.4087,2.3951,2.3567,2.2637,2.2628,2.3573,2.3611,2.3941,2.4506,2.4944,2.5312,2.5569,0.0,0.0,2.5615,2.5463,2.5427,2.5454,2.5074,2.4712,2.4359,2.3954,2.3618,2.3418,0.0,0.0,0.0,0.0,0.0,0.0,0.0,0.0,0.0,0.0,0.6476,0.6225,0.0,0.0,0.0,0.0,0.0,0.0,0.0,0.0,0.0,0.0,0.0,0.0,0.0,0.0,0.0,0.0,0.0,0.0,0.0,0.0,0.0,0.0,0.0,0.0,0.0,0.0,0.0,0.0,0.0,0.0,0.0,0.0,0.0,0.0,0.0,0.0,0.0,0.0,1.4073,1.5282,1.5732,1.6462,1.7236,1.7568,1.8288,1.8996,1.8932,1.9161,1.9336,1.9058,1.8657,1.8352,1.8377,1.7538,0.0,0.0,0.0,1.6345,1.6806,1.7593,0.0,1.9422,0.0,0.0,0.0,0.0,2.1612,0.0,0.0,0.0,0.0,0.0,0.0,0.0,0.0,2.3637,2.3673,2.3537,2.3472,2.3427,2.371,2.3592,2.2975,2.2708,2.284,2.3342,2.3357,2.3602,2.4044,2.4612,2.4887,2.4927,2.4297,0.0,2.5205,2.4146,2.4024,2.4426,2.4074,2.3893,2.378,2.3384,2.3332,2.3433,0.0,0.0,0.0,0.0,0.0,0.0,0.0,0.6246,0.6886,0.7349,0.7284,0.7131,0.6987,0.612,0.0,0.0,0.0,0.0,0.0,0.0,0.0,0.0,0.0,0.0,0.0,0.0,0.0,0.0,0.0,0.0,0.0,0.0,0.0,0.0,0.0,0.0,0.0,0.0,0.0,0.0,0.0,0.0,0.0,0.0,0.0,0.0,0.0,0.0,0.0,0.0,1.3615,1.4869,1.5759,1.6521,1.713,1.7628,1.8057,1.8441,1.8713,1.8769,1.8699,1.8576,1.834,1.8034,1.7569,0.0,0.0,0.0,0.0,1.5608,1.5697,0.0,0.0,0.0,0.0,0.0,0.0,0.0,0.0,0.0,0.0,0.0,0.0,0.0,0.0,0.0,0.0,2.3413,2.3518,2.3661,2.3678,2.3562,2.3712,2.3712,2.3527,2.2998,2.3029,2.3613,2.3576,2.3603,2.3725,2.4451,2.4535,2.4076,2.4035,0.0,2.4443,2.3975,2.4052,2.4494,2.4342,2.4033,2.3682,2.3494,2.3238,2.3021,0.0,0.0,0.0,0.0,0.0,0.0,0.0,0.6878,0.7593,0.799,0.8055,0.7999,0.7817,0.6481,0.5658,0.0,0.0,0.0,0.0,0.0,0.0,0.0,0.0,0.0,0.0,0.0,0.0,0.0,0.0,0.0,0.0,0.0,0.0,0.0,0.0,0.0,0.0,0.0,0.0,0.0,0.0,0.0,0.0,0.0,0.0,0.0,0.0,0.0,0.0,0.0,1.283,1.3709,1.5256,1.6167,1.681,1.7391,1.7644,1.7879,1.8395,1.8349,1.8148,1.8115,1.8006,1.7658,1.6784,1.6225,0.0,0.0,0.0,1.5049,1.4924,0.0,0.0,0.0,0.0,0.0,0.0,0.0,0.0,0.0,0.0,0.0,0.0,0.0,0.0,0.0,0.0,0.0,2.3178,2.3702,2.381,2.3415,2.3605,2.3695,2.3587,2.3069,2.3102,2.3677,2.3609,2.3593,2.3604,2.4255,2.4179,2.3496,2.3771,0.0,0.0,2.3948,2.426,2.4674,2.4759,2.4461,2.3922,2.3759,2.3332,2.2817,0.0,0.0,0.0,0.0,0.0,0.0,0.0,0.7278,0.7954,0.9018,0.8637,0.8312,0.8409,0.7096,0.6155,0.0,0.0,0.0,0.0,0.0,0.0,0.0,0.0,0.0,0.0,0.0,0.0,0.0,0.0,0.0,0.0,0.0,0.0,0.0,0.0,0.0,0.0,0.0,0.0,0.0,0.0,0.0,0.0,0.0,0.0,0.0,0.0,0.0,0.0,0.0,0.0,1.2182,1.3798,1.508,1.6044,1.636,0.0,0.0,1.7689,1.7983,1.8151,1.7628,1.7023,1.6515,1.6309,0.0,0.0,0.0,1.4901,1.4897,1.5729,1.6252,0.0,0.0,0.0,0.0,0.0,0.0,0.0,0.0,0.0,0.0,0.0,0.0,0.0,0.0,0.0,0.0,2.2839,2.3197,2.2973,2.2095,2.3023,2.2926,2.1658,2.2484,2.2933,2.2989,2.2922,2.3227,2.3868,2.3815,2.3778,2.3735,2.3124,0.0,0.0,2.3478,2.3725,2.4297,2.4648,2.475,2.4633,2.3957,2.3649,2.3486,0.0,0.0,0.0,0.0,0.0,0.0,0.7172,0.7478,0.8017,0.915,0.8932,0.8722,0.8897,0.7642,0.6666,0.6377,0.0,0.0,0.0,0.0,0.0,0.0,0.0,0.0,0.0,0.0,0.0,0.0,0.0,0.0,0.0,0.0,0.0,0.0,0.0,0.0,0.0,0.0,0.0,0.0,0.0,0.0,0.0,0.0,0.0,0.0,0.0,0.0,0.0,0.0,0.0,0.0,1.2508,1.351,0.0,0.0,1.6222,1.6495,1.7565,1.7706,1.7593,1.7636,1.7099,1.6457,1.5996,0.0,0.0,1.484,1.4654,1.4691,1.5386,1.5737,1.6128,0.0,0.0,0.0,0.0,0.0,0.0,0.0,0.0,0.0,0.0,0.0,0.0,0.0,0.0,0.0,2.2262,2.2535,2.2451,2.1919,2.2672,2.2903,2.2555,2.2941,2.3168,2.3204,2.3579,2.3491,2.3023,2.3692,2.3498,2.2654,2.2707,0.0,0.0,2.3095,2.3567,2.4028,2.4584,2.4648,2.44,2.4119,2.3717,2.3288,0.0,0.0,0.0,0.0,0.0,0.6705,0.7526,0.7793,0.8232,0.915,0.9129,0.9074,0.919,0.8059,0.722,0.7052,0.6447,0.0,0.0,0.0,0.0,0.0,0.0,0.0,0.0,0.0,0.0,0.0,0.0,0.0,0.0,0.0,0.0,0.0,0.0,0.0,0.0,0.0,0.0,0.0,0.0,0.0,0.0,0.0,0.0,0.0,0.0,0.0,0.0,0.0,0.0,0.0,0.0,0.0,0.0,0.0,1.5449,1.585,1.7022,1.7238,1.7207,1.7343,1.6895,1.6249,0.0,0.0,1.4778,1.4624,1.4515,1.4626,1.5184,1.5406,1.567,0.0,0.0,0.0,0.0,0.0,0.0,0.0,0.0,0.0,0.0,0.0,0.0,0.0,0.0,0.0,0.0,2.1793,2.1841,2.1738,2.228,2.2593,2.2703,2.2856,2.2982,2.3081,2.3455,2.3317,2.2706,2.3291,2.3081,2.226,0.0,0.0,0.0,2.3047,2.3553,2.3849,2.4541,2.4622,2.4366,2.4246,2.3801,2.3271,0.0,0.0,0.0,0.0,0.0,0.0,0.7893,0.8341,0.8734,0.9142,0.9259,0.9271,0.9198,0.829,0.78,0.8063,0.6509,0.0,0.0,0.0,0.0,0.0,0.0,0.0,0.0,0.0,0.0,0.0,0.0,0.0,0.0,0.0,0.0,0.0,0.0,0.0,0.0,0.0,0.0,0.0,0.0,0.0,0.0,0.0,0.0,0.0,0.0,0.0,0.0,0.0,0.0,0.0,0.0,0.0,0.0,0.0,1.4751,1.6046,1.579,1.6486,1.7157,1.6568,1.6063,1.5621,0.0,0.0,1.4605,1.4605,1.4605,1.478,1.5397,1.5499,1.5716,1.6398,0.0,0.0,0.0,0.0,0.0,0.0,0.0,0.0,0.0,0.0,0.0,0.0,0.0,0.0,0.0,2.0899,2.1058,2.1388,2.1809,2.1783,2.1317,2.1775,2.2118,2.2303,2.205,2.2414,2.3269,2.2476,2.2477,0.0,0.0,0.0,0.0,2.3383,2.3692,2.3769,2.4521,2.4785,2.4742,2.4349,2.3981,2.3639,0.0,0.0,0.0,0.0,0.0,0.0,0.0,0.7942,0.8077,0.87,0.8643,0.8666,0.8967,0.8214,0.7829,0.8134,0.7041,0.0,0.0,0.0,0.0,0.0,0.0,0.0,0.0,0.0,0.0,0.0,0.0,0.0,0.0,0.0,0.0,0.0,0.0,0.0,0.0,0.0,0.0,0.0,0.0,0.0,0.0,0.0,0.0,0.0,0.0,0.0,0.0,0.0,0.0,0.0,0.0,0.0,0.0,1.2895,1.3895,0.0,1.5662,1.5813,1.5863,1.6188,1.5693,1.5139,1.5011,0.0,1.4127,1.4415,1.4346,1.4473,1.5165,1.5066,1.5216,1.6256,1.646,0.0,0.0,0.0,0.0,0.0,0.0,0.0,0.0,0.0,0.0,0.0,0.0,0.0,0.0,2.0899,2.1024,2.1316,2.1627,2.1951,2.2242,2.2205,2.2245,2.2295,2.2447,2.2417,2.2227,2.2612,0.0,0.0,0.0,0.0,0.0,2.2461,2.274,2.2842,2.3965,2.4391,2.4408,2.4554,2.423,2.3683,0.0,0.0,0.0,0.0,0.0,0.0,0.0,0.7547,0.7503,0.7846,0.7934,0.8139,0.8556,0.7905,0.7655,0.819,0.7293,0.0,0.0,0.0,0.0,0.0,0.0,0.0,0.0,0.0,0.0,0.0,0.0,0.0,0.0,0.0,0.0,0.0,0.0,0.0,0.0,0.0,0.0,0.0,0.0,0.0,0.8291,0.0,0.0,0.0,0.0,0.0,0.0,0.0,0.0,0.0,0.0,0.0,0.0,0.0,1.354,1.4391,0.0,1.5331,1.5335,1.5334,1.5161,0.0,0.0,0.0,0.0,1.4407,1.4335,1.4361,1.488,1.4774,1.4901,1.5803,1.598,0.0,0.0,0.0,0.0,0.0,0.0,0.0,0.0,0.0,0.0,0.0,0.0,0.0,0.0,2.0899,2.107,2.1445,2.142,2.1713,2.233,2.1951,2.1925,2.2235,2.2243,2.2111,2.186,2.2451,0.0,0.0,0.0,0.0,0.0,2.2388,2.2599,2.2683,2.3652,2.4164,2.4383,2.4513,2.4318,2.3965,0.0,0.0,0.0,0.0,0.0,0.0,0.0,0.7206,0.7087,0.6795,0.7242,0.7708,0.802,0.7454,0.738,0.8187,0.0,0.0,0.0,0.0,0.0,0.0,0.0,0.0,0.0,0.0,0.7605,0.8592,0.8558,0.8994,0.9863,0.0,0.0,0.0,0.0,0.0,0.0,0.0,0.0,0.0,0.8128,0.8208,0.0,0.0,0.0,0.0,0.0,0.0,0.0,0.0,0.0,0.0,0.0,0.0,0.0,0.0,0.0,0.0,0.0,1.4948,1.5315,1.4218,1.4549,1.4938,0.0,0.0,0.0,0.0,1.4479,1.4451,1.4601,1.4645,1.4779,1.521,0.0,0.0,0.0,0.0,0.0,0.0,0.0,0.0,0.0,0.0,0.0,0.0,0.0,0.0,0.0,2.0899,2.1121,2.1623,2.1173,2.1173,2.1751,2.1249,2.1343,2.208,2.1598,2.1598,2.2072,2.2123,0.0,0.0,0.0,0.0,0.0,2.2903,2.3023,2.3057,2.3485,2.4031,2.4531,2.421,2.4202,2.4306,0.0,0.0,0.0,0.0,0.0,0.0,0.0,0.0,0.0,0.0,0.7393,0.7499,0.7622,0.7572,0.7612,0.0,0.0,0.0,0.0,0.0,0.0,0.0,0.0,0.0,0.0,0.7396,0.777,0.8516,0.8763,0.9145,0.9668,0.9572,0.0,0.0,0.8537,0.8118,0.7744,0.0,0.0,0.0,0.8181,0.8255,0.0,0.0,0.0,0.0,0.9371,0.9893,0.0,0.0,0.0,0.0,0.0,0.0,0.0,0.0,1.3357,1.4226,1.3765,0.0,1.4478,1.4434,1.4515,1.4493,0.0,0.0,0.0,0.0,0.0,1.453,1.497,1.5062,1.5291,0.0,0.0,0.0,0.0,0.0,0.0,0.0,0.0,0.0,0.0,0.0,0.0,0.0,0.0,0.0,0.0,2.0899,2.0968,2.107,2.0976,2.1377,2.2392,2.2004,2.1801,2.1801,2.1869,2.1869,2.1801,2.2257,0.0,0.0,0.0,0.0,2.2215,2.23,2.2342,2.2401,2.2988,2.3349,2.3513,2.3728,2.3643,2.341,0.0,0.0,0.0,0.0,0.0,0.0,0.0,0.0,0.0,0.0,0.0,0.0,0.0,0.0,0.0,0.0,0.0,0.0,0.0,0.0,0.0,0.0,0.0,0.0,0.0,0.7677,0.8131,0.0,0.0,0.9561,0.0,0.0,0.0,0.0,0.8951,0.841,0.7897,0.8042,0.8098,0.8075,0.8295,0.0,0.0,0.0,0.0,0.0,0.924,0.9704,0.0,1.0686,1.0997,1.1253,0.0,0.0,0.0,0.0,1.3124,1.3795,1.3739,1.4026,1.4275,1.4094,1.4269,1.4422,1.408,0.0,0.0,0.0,0.0,0.0,1.5099,0.0,0.0,0.0,0.0,0.0,0.0,0.0,0.0,0.0,0.0,0.0,0.0,0.0,0.0,0.0,0.0,0.0,0.0,2.1137,2.1169,2.1249,2.1275,2.1555,2.219,2.1878,2.1852,2.2114,2.2106,2.2106,2.2106,2.2443,2.2594,0.0,0.0,0.0,2.2097,2.2097,2.2097,2.2173,2.2792,2.3245,2.3539,2.3685,2.3727,2.3667,0.0,0.0,0.0,0.0,0.0,0.0,0.0,0.0,0.0,0.0,0.0,0.0,0.0,0.0,0.0,0.0,0.0,0.0,0.0,0.0,0.0,0.0,0.0,0.0,0.8334,0.8087,0.0,0.0,0.0,0.0,0.0,0.0,1.08,0.0,0.9416,0.8804,0.8199,0.8501,0.8402,0.8075,0.8474,0.0,0.0,0.0,0.0,0.0,0.0,0.0,0.0,1.0674,1.1044,1.129,1.1754,0.0,0.0,0.0,0.0,0.0,1.3918,1.4296,1.4364,1.3722,1.4073,1.4472,0.0,0.0,0.0,0.0,0.0,0.0,0.0,0.0,0.0,0.0,0.0,0.0,0.0,0.0,0.0,0.0,0.0,0.0,0.0,0.0,0.0,0.0,0.0,0.0,0.0,2.1396,2.1489,2.1637,2.1655,2.1681,2.17,2.1573,2.1835,2.2518,2.2283,2.2308,2.2518,2.2569,2.2594,0.0,0.0,0.0,2.2182,2.2182,2.2182,2.2232,2.2745,2.3307,2.3826,2.3681,2.3871,2.4122,0.0,0.0,0.0,0.0,0.0,0.0,0.0,0.0,0.0,0.0,0.0,0.0,0.0,0.0,0.0,0.0,0.0,0.0,0.0,0.0,0.0,0.0,0.0,0.832,0.9024,0.8732,0.0,0.0,0.0,0.0,1.0587,1.1237,1.0983,0.9981,0.9669,0.9153,0.8529,0.8704,0.8724,0.8672,0.8738,0.0,0.0,0.0,0.0,0.0,0.0,0.0,0.0,0.9953,1.0436,1.0939,1.1307,0.0,0.0,0.0,0.0,0.0,1.3867,1.4044,1.4191,1.4222,1.4419,1.4517,0.0,0.0,0.0,0.0,0.0,0.0,0.0,0.0,0.0,0.0,0.0,0.0,0.0,0.0,0.0,0.0,0.0,0.0,0.0,0.0,0.0,0.0,0.0,0.0,0.0,2.1396,2.1425,2.1448,2.144,2.153,2.17,2.2165,2.2342,2.2182,2.2417,2.2384,2.2182,2.2468,2.2594,0.0,0.0,2.2518,2.2518,2.2518,2.2518,2.2518,2.2628,2.2855,2.3134,2.2872,2.2964,2.3184,0.0,0.0,0.0,0.0,0.0,0.0,0.0,0.0,0.0,0.0,0.0,0.0,0.0,0.0,0.0,0.0,0.0,0.0,0.0,0.0,0.0,0.0,0.8646,0.8898,0.9455,0.9495,0.0,0.0,0.0,1.1552,1.152,1.1348,1.0998,1.0454,0.9785,0.9241,0.8818,0.8803,0.867,0.85,0.0,0.0,0.0,0.0,0.0,0.0,0.0,0.0,0.0,0.0,1.0451,1.0904,1.154,0.0,0.0,0.0,0.0,0.0,1.3226,1.3511,1.3763,1.3933,1.4459,0.0,0.0,0.0,0.0,0.0,0.0,0.0,0.0,0.0,0.0,0.0,0.0,0.0,0.0,0.0,0.0,0.0,0.0,0.0,0.0,0.0,0.0,0.0,0.0,0.0,0.0,0.0,2.2001,2.2144,2.1902,2.1989,2.2459,2.2724,2.2698,2.2358,2.2322,2.2305,2.2384,2.2288,2.238,2.2594,0.0,2.2333,2.2333,2.2333,2.246,2.2656,2.2781,2.3001,2.3234,2.2924,2.2996,2.3147,0.0,0.0,0.0,0.0,0.0,0.0,0.0,0.0,0.0,0.0,0.0,0.0,0.0,0.0,0.0,0.0,0.0,0.0,0.0,0.0,0.8191,0.9047,0.9239,0.9643,1.0331,1.0443,1.0998,1.2038,1.2503,1.2747,1.2682,1.1645,1.1055,1.0844,0.9939,0.9343,0.8992,0.8919,0.8697,0.8421,0.0,0.0,0.0,0.0,0.0,0.0,0.0,0.0,0.0,0.0,0.0,0.0,0.0,0.0,0.0,1.2711,1.2649,1.2515,1.2976,1.3267,1.3533,1.3892,0.0,0.0,0.0,0.0,0.0,0.0,0.0,0.0,0.0,0.0,0.0,0.0,0.0,0.0,0.0,0.0,0.0,0.0,0.0,0.0,0.0,0.0,0.0,0.0,0.0,0.0,0.0,0.0,2.255,2.2683,2.2402,2.251,2.3005,2.3184,2.304,2.2594,2.238,2.2389,2.2585,2.2277,2.2303,2.2603,2.2333,2.2232,2.2232,2.2232,2.2409,2.2697,2.2841,2.3053,2.3279,2.3059,2.3097,2.3147,0.0,0.0,0.0,0.0,0.0,0.0,0.0,0.0,0.0,0.0,0.0,0.0,0.0,0.0,0.0,0.0,0.0,0.0,0.0,0.0,0.8408,0.899,0.9662,1.0709,1.2174,1.1686,1.1937,1.2996,1.3534,1.3735,1.3573,1.2267,1.1345,1.0791,1.021,0.9607,0.9014,0.9127,0.9085,0.8943,0.8969,0.0,0.0,0.0,0.0,0.0,0.0,0.0,0.0,0.0,0.0,0.0,0.0,0.0,1.2609,1.3319,1.3176,1.2944,1.3787,1.3798,1.3831,1.4837,0.0,0.0,0.0,0.0,0.0,0.0,0.0,0.0,0.0,0.0,0.0,0.0,0.0,0.0,0.0,0.0,0.0,0.0,0.0,0.0,0.0,0.0,0.0,0.0,0.0,0.0,0.0,0.0,0.0,2.2336,2.2618,2.2742,2.2729,2.341,2.3349,2.2603,2.2877,2.286,2.2594,2.2568,2.2568,2.2594,2.2569,2.2569,2.2569,2.2569,2.2586,2.2612,2.2611,2.2636,2.2687,2.2913,2.2846,2.2644,0.0,0.0,0.0,0.0,0.0,0.0,0.0,0.0,0.0,0.0,0.0,0.0,0.0,0.0,0.0,0.0,0.0,0.0,0.0,0.0,0.8593,0.9466,0.9645,1.0524,1.224,1.254,1.3033,1.3774,1.365,1.3538,1.3423,1.2214,0.0,1.0943,1.0082,0.9635,0.954,0.9122,0.8971,0.901,0.9097,0.9159,0.0,0.0,0.0,0.0,0.0,0.0,0.0,0.0,1.0511,1.0933,1.1681,1.2127,1.2507,1.3107,1.306,1.2925,1.3516,1.4188,1.4715,1.4709,0.0,0.0,0.0,0.0,0.0,0.0,0.0,0.0,0.0,0.0,0.0,0.0,0.0,0.0,0.0,0.0,0.0,0.0,0.0,0.0,0.0,0.0,0.0,0.0,0.0,0.0,0.0,0.0,0.0,2.2982,2.2993,2.3188,2.3624,2.3904,2.3789,2.3289,2.3151,2.304,2.2895,2.2705,2.2594,2.2594,2.2594,2.2594,2.2594,2.2594,2.2706,2.2903,2.2903,2.2783,2.2619,2.272,2.2695,2.2594,0.0,0.0,0.0,0.0,0.0,0.0,0.0,0.0,0.0,0.0,0.0,0.0,0.0,0.0,0.0,0.0,0.0,0.0,0.0,0.0,0.8745,0.9662,0.979,1.0564,1.2065,1.2906,1.3532,1.3957,1.3557,1.3332,1.3258,0.0,0.0,1.1246,1.032,1.0045,1.0223,0.9531,0.9299,0.9387,0.9363,0.9302,0.0,0.0,0.0,0.0,0.0,0.0,0.0,0.0,1.0794,1.1228,1.191,1.2274,1.257,1.3226,1.3267,1.3235,1.3806,1.4641,1.5322,0.0,0.0,0.0,0.0,0.0,0.0,0.0,0.0,0.0,0.0,0.0,0.0,0.0,0.0,0.0,0.0,0.0,0.0,0.0,0.0,0.0,0.0,0.0,0.0,0.0,0.0,0.0,0.0,0.0,0.0,0.0,2.3233,2.3459,2.3852,2.4212,2.417,2.37,2.3537,2.3322,2.3109,2.2989,2.2817,2.2603,2.2697,2.2705,2.2594,2.2594,2.2748,2.2937,2.2937,2.28,2.256,2.2365,2.2272,2.2255,0.0,0.0,0.0,0.0,0.0,0.0,0.0,0.0,0.0,0.0,0.0,0.0,0.0,0.0,0.0,0.0,0.0,0.0,0.0,0.8527,0.8861,0.9478,1.0194,1.0995,1.1866,1.2726,1.3251,1.3413,1.334,1.3264,1.316,1.2303,0.0,0.0,1.1077,1.0926,1.1067,1.0452,1.0206,1.0179,0.9848,0.9512,0.9231,0.0,0.0,0.0,0.0,0.0,0.0,0.0,1.125,1.1923,1.2585,1.2803,1.2976,1.3834,1.3953,1.4015,1.4954,1.5216,0.0,0.0,0.0,0.0,0.0,0.0,0.0,0.0,0.0,0.0,0.0,0.0,0.0,0.0,0.0,0.0,0.0,0.0,0.0,0.0,0.0,0.0,0.0,0.0,0.0,0.0,0.0,0.0,0.0,0.0,0.0,0.0,2.3297,2.3511,2.31,2.422,2.4408,2.3717,2.4032,2.381,2.31,2.352,2.3306,2.262,2.2946,2.2895,2.2594,2.2594,2.2594,2.2594,2.2594,2.2594,2.2526,2.186,2.161,2.1526,0.0,0.0,0.0,0.0,0.0,0.0,0.0,0.0,0.0,0.0,0.0,0.0,0.0,0.0,0.0,0.0,0.0,0.0,0.0,0.8633,0.8763,0.9141,0.9454,0.978,1.0126,1.0814,1.1839,1.3265,1.3041,1.2743,0.0,0.0,0.0,1.1839,0.0,0.0,1.1693,1.0985,1.0795,1.0935,1.0509,1.0361,1.0363,0.0,0.0,0.0,0.0,0.0,0.0,0.0,0.0,0.0,1.2475,1.3084,1.3597,1.3713,1.424,1.4893,1.5415,1.6158,0.0,0.0,0.0,0.0,0.0,0.0,0.0,0.0,0.0,0.0,0.0,0.0,0.0,0.0,0.0,0.0,0.0,0.0,0.0,0.0,0.0,0.0,0.0,0.0,0.0,0.0,0.0,0.0,0.0,0.0,0.0,0.0,2.3065,2.3459,2.387,2.3973,2.4033,2.4049,2.3905,2.358,2.3091,2.3228,2.304,2.2603,2.2714,2.2697,2.2577,2.2294,2.2337,2.2568,2.2286,2.2346,2.2526,2.2058,2.1872,2.1797,0.0,0.0,0.0,0.0,0.0,0.0,0.0,0.0,0.0,0.0,0.8982,0.8956,0.0,0.0,0.0,0.0,0.0,0.0,0.8883,0.8857,0.8985,0.9342,0.9428,0.9684,1.0117,1.0627,1.1347,1.2249,0.0,0.0,0.0,0.0,0.0,1.2332,0.0,1.2312,0.0,1.1916,1.1665,1.1571,1.1448,1.1264,1.1023,0.0,0.0,0.0,0.0,0.0,0.0,0.0,0.0,0.0,1.2557,0.0,1.3445,1.3814,1.4422,1.5188,1.6176,0.0,0.0,0.0,0.0,0.0,0.0,0.0,0.0,0.0,0.0,0.0,0.0,0.0,0.0,0.0,0.0,0.0,0.0,0.0,0.0,0.0,0.0,0.0,0.0,0.0,0.0,0.0,0.0,0.0,0.0,0.0,0.0,0.0,2.3117,2.3471,2.3878,2.3868,2.3816,2.3712,2.3409,2.3049,2.2689,2.3126,2.3074,2.2594,2.2594,2.2594,2.2568,2.2174,2.2149,2.2329,2.2081,2.2157,2.2329,2.1982,2.1848,2.1731,0.0,0.0,0.8831,0.8831,0.0,0.0,0.0,0.0,0.0,0.0,0.9133,0.9113,0.0,0.0,0.0,0.9224,0.9224,0.9185,0.9048,0.9133,0.9382,0.9802,0.985,1.0274,1.1175,1.1471,1.1323,1.075,0.0,0.0,0.0,0.0,1.2456,1.3008,0.0,1.2797,1.291,1.2973,1.2623,1.2068,1.2418,1.2087,1.1376,1.1204,0.0,0.0,0.0,0.0,0.0,0.0,0.0,0.0,1.2775,1.2777,1.2956,1.4052,1.4545,1.5168,0.0,0.0,0.0,0.0,0.0,0.0,0.0,0.0,0.0,0.0,0.0,0.0,0.0,0.0,0.0,0.0,0.0,0.0,0.0,0.0,0.0,0.0,0.0,0.0,0.0,0.0,0.0,0.0,0.0,0.0,0.0,0.0,0.0,2.3014,2.3295,2.3448,2.3459,2.3833,2.373,0.0,2.2753,2.2396,2.2079,2.3074,2.3212,2.2594,2.2594,2.2577,2.2517,2.2123,2.1961,2.1996,2.1961,2.1987,2.2022,2.1717,2.161,2.1426,0.0,0.0,0.9106,0.9106,0.0,0.0,0.0,0.0,0.0,0.0,0.0,0.0,0.0,0.0,0.0,0.9374,0.9445,0.9465,0.9322,0.9237,0.9195,0.92,0.9446,1.0071,1.11,1.0478,1.0257,1.0492,0.0,0.0,0.0,0.0,0.0,1.3171,0.0,1.3422,1.2983,1.305,1.2743,1.2232,1.2216,1.2158,1.205,1.1644,1.1511,0.0,0.0,0.0,0.0,0.0,0.0,0.0,1.2912,1.3359,1.3901,1.4098,1.4991,1.6166,0.0,0.0,0.0,0.0,0.0,0.0,0.0,0.0,0.0,0.0,0.0,0.0,0.0,0.0,0.0,0.0,0.0,0.0,0.0,0.0,0.0,0.0,0.0,0.0,0.0,0.0,0.0,0.0,0.0,0.0,0.0,0.0,0.0,2.2996,2.3084,2.3333,2.3782,2.3641,2.359,0.0,2.2848,2.2393,2.2323,2.2343,2.2449,2.2594,2.2594,2.2431,2.2114,2.1696,2.1722,2.197,2.1653,2.1901,2.2389,2.181,2.161,2.1426,0.0,0.0,0.0,0.0,0.0,0.0,0.0,0.0,0.0,0.0,0.0,0.0,0.0,0.9818,0.0,0.0,0.9751,0.9712,0.9517,0.9643,0.9812,1.0002,1.015,1.0523,1.1182,1.0406,0.0,0.0,0.0,0.0,0.0,0.0,0.0,1.2731,0.0,1.3009,1.2541,1.2996,1.2891,1.2425,1.2699,1.271,1.2476,1.1986,1.1741,1.1612,1.1374,0.0,0.0,0.0,0.0,0.0,0.0,0.0,1.3735,1.4305,1.4984,1.5827,0.0,0.0,0.0,0.0,0.0,0.0,0.0,0.0,0.0,0.0,0.0,0.0,0.0,0.0,0.0,0.0,0.0,0.0,0.0,0.0,0.0,0.0,0.0,0.0,0.0,0.0,0.0,0.0,0.0,0.0,0.0,2.2459,2.2736,2.3172,2.3322,2.3604,2.4036,2.3729,2.3679,2.3825,2.3014,2.2511,2.238,2.192,2.1927,2.2294,2.2106,2.2123,2.2243,2.1645,2.1645,2.1978,2.1627,2.1837,2.2278,2.1962,2.1819,2.1674,0.0,0.0,0.0,0.0,0.0,0.0,0.0,0.0,0.0,0.0,0.0,0.0,0.0,1.0064,1.0064,0.0,0.0,0.0,0.9686,1.0005,1.0454,1.1019,1.0933,1.1012,1.1293,0.0,0.0,0.0,0.0,0.0,0.0,0.0,0.0,1.2349,0.0,1.241,1.2139,1.2925,1.2938,1.2485,1.3073,1.3035,1.2578,1.2104,1.1741,1.1509,0.0,1.1682,1.1959,1.2697,0.0,0.0,0.0,0.0,1.3377,1.4522,1.4764,1.5053,0.0,0.0,0.0,0.0,0.0,0.0,0.0,0.0,0.0,0.0,0.0,0.0,0.0,0.0,0.0,0.0,0.0,0.0,0.0,0.0,0.0,0.0,0.0,0.0,0.0,0.0,0.0,0.0,0.0,0.0,2.272,2.2785,2.3026,2.3447,2.3487,2.3734,2.4202,2.3906,2.3782,2.387,2.3186,2.266,2.2252,2.1657,2.1616,2.197,2.1624,2.1813,2.2345,2.167,2.1645,2.1971,2.1749,2.1799,2.2005,2.1954,2.1903,2.179,0.0,0.0,0.0,0.0,0.0,0.0,0.0,0.0,0.0,0.0,1.0419,1.0368,1.0265,1.0368,1.0321,1.0025,1.0162,1.0174,0.996,0.0,0.0,1.0807,1.0556,1.0685,1.1291,0.0,0.0,0.0,0.0,0.0,0.0,0.0,0.0,1.2889,0.0,0.0,1.2457,1.2922,1.2742,1.215,1.2201,1.2097,1.1907,1.1652,0.0,0.0,0.0,0.0,0.0,1.3148,1.3504,0.0,0.0,0.0,1.3897,1.4533,1.4587,0.0,0.0,0.0,0.0,0.0,0.0,0.0,0.0,0.0,0.0,0.0,0.0,0.0,0.0,0.0,0.0,0.0,0.0,0.0,0.0,0.0,0.0,0.0,0.0,0.0,0.0,0.0,0.0,0.0,0.0,0.0,2.3254,2.2567,2.264,2.3712,2.2885,2.2994,2.4192,2.3746,2.3746,2.4152,2.3456,2.264,2.1713,2.1436,2.1566,2.2003,2.1826,2.168,2.155,2.1448,2.1645,2.1996,2.1946,2.1971,2.193,2.1486,2.1304,2.1189,0.0,0.0,0.0,0.0,0.0,0.0,0.0,0.0,0.0,0.0,0.0,1.1042,1.0975,1.0862,1.0751,1.0677,1.0504,1.0407,1.0384,1.0262,1.0467,1.1051,1.0645,1.0646,1.1129,0.0,0.0,0.0,0.0,0.0,0.0,1.2461,1.2737,0.0,0.0,0.0,0.0,0.0,1.2416,1.2023,1.181,1.1934,1.2167,0.0,0.0,0.0,0.0,0.0,0.0,0.0,0.0,1.3608,1.3926,0.0,0.0,0.0,0.0,0.0,0.0,0.0,0.0,0.0,0.0,0.0,0.0,0.0,0.0,0.0,0.0,0.0,0.0,0.0,0.0,0.0,0.0,0.0,0.0,0.0,0.0,0.0,0.0,0.0,0.0,0.0,0.0,0.0,0.0,2.2647,2.3363,2.3013,2.3104,2.3771,2.3486,2.359,2.4192,2.4002,2.4002,2.4192,2.3618,2.3051,2.2429,2.2037,2.1748,2.1527,2.1138,2.1137,2.1413,2.1413,2.1548,2.1775,2.182,2.1803,2.175,2.1537,2.1304,2.1071,0.0,0.0,0.0,0.0,0.0,0.0,0.0,0.0,0.0,0.0,0.0,1.1501,1.1501,0.0,0.0,0.0,1.0835,1.063,1.0644,1.0561,1.0682,1.1089,1.0748,1.0654,1.0873,0.0,0.0,0.0,0.0,0.0,1.2948,1.2939,1.3256,0.0,1.3571,0.0,0.0,0.0,0.0,0.0,0.0,1.1962,0.0,0.0,0.0,0.0,0.0,0.0,0.0,0.0,0.0,0.0,0.0,0.0,0.0,0.0,0.0,0.0,0.0,0.0,0.0,0.0,0.0,0.0,0.0,0.0,0.0,0.0,0.0,0.0,0.0,0.0,0.0,0.0,0.0,0.0,0.0,0.0,0.0,0.0,0.0,0.0,0.0,0.0,0.0,0.0,0.0,2.2925,2.3571,2.3382,2.3448,2.3895,2.3827,2.3917,2.4202,2.4202,2.4202,2.4202,2.384,2.3517,2.3172,2.257,2.192,2.1281,2.0728,2.0798,2.1339,2.13,2.1379,2.1566,2.1628,2.1578,2.1451,2.1528,2.1346,2.1086,0.0,0.0,0.0,0.0,0.0,0.0,0.0,0.0,0.0,0.0,0.0,1.1501,1.1501,1.1471,1.135,1.104,1.0992,1.0836,1.0531,1.0504,1.0512,1.0539,1.064,0.0,1.0533,0.0,0.0,0.0,0.0,0.0,1.3371,1.3308,1.3932,1.5077,1.455,1.3871,1.3084,0.0,0.0,0.0,0.0,1.1997,0.0,0.0,0.0,0.0,0.0,0.0,0.0,0.0,0.0,0.0,0.0,0.0,0.0,0.0,0.0,0.0,0.0,0.0,0.0,0.0,0.0,0.0,0.0,0.0,0.0,0.0,0.0,0.0,0.0,0.0,0.0,0.0,0.0,0.0,0.0,0.0,0.0,0.0,0.0,0.0,0.0,0.0,0.0,0.0,2.2575,2.3195,2.4109,2.3305,2.3253,2.4143,2.3208,2.3172,2.4192,2.4202,2.4202,2.4202,2.4183,2.3914,2.3456,2.259,2.1993,2.1559,2.1152,2.1054,2.1194,2.0993,2.1122,2.141,2.1557,2.1375,2.1057,2.1172,2.1222,2.1164,0.0,0.0,0.0,0.0,0.0,0.0,0.0,0.0,0.0,0.0,0.0,0.0,0.0,1.189,1.181,1.1776,1.1455,1.1043,1.0533,1.0654,1.068,1.0509,1.0637,1.068,1.0637,0.0,0.0,0.0,0.0,1.1743,1.3147,1.3023,1.3411,1.4164,1.4205,1.3981,1.3574,1.3028,0.0,0.0,1.2193,1.2403,0.0,0.0,0.0,0.0,0.0,0.0,0.0,0.0,0.0,0.0,0.0,0.0,0.0,0.0,0.0,0.0,0.0,0.0,0.0,0.0,0.0,0.0,0.0,0.0,0.0,0.0,0.0,0.0,0.0,0.0,0.0,0.0,0.0,0.0,0.0,0.0,0.0,0.0,0.0,0.0,0.0,0.0,0.0,0.0,0.0,2.2499,2.3325,2.3121,2.3223,2.3733,2.3377,2.3249,2.3358,2.392,2.4048,2.3758,2.3758,2.366,2.3471,2.2639,2.2118,2.1813,2.1242,2.086,2.0646,2.1067,2.1198,2.1185,2.1528,2.1545,2.1368,2.1303,2.1245,2.1197,0.0,0.0,0.0,0.0,0.0,1.2004,0.0,0.0,0.0,0.0,0.0,0.0,0.0,0.0,1.2184,1.2145,1.1698,1.1212,1.0695,1.0827,1.0797,1.0517,1.0637,1.0693,1.0693,0.0,0.0,0.0,0.0,0.0,0.0,1.2725,1.3074,1.3752,1.3676,1.3694,0.0,0.0,0.0,1.2367,0.0,0.0,1.33,0.0,0.0,0.0,0.0,0.0,0.0,0.0,0.0,0.0,0.0,0.0,0.0,0.0,0.0,0.0,0.0,0.0,0.0,0.0,0.0,0.0,0.0,0.0,0.0,0.0,0.0,0.0,0.0,0.0,0.0,0.0,0.0,0.0,0.0,0.0,0.0,0.0,0.0,0.0,0.0,0.0,0.0,0.0,0.0,0.0,2.3007,2.3255,2.3505,2.3837,2.3837,2.3717,2.345,2.4106,2.4236,2.3837,2.3837,2.3797,2.3706,2.2957,2.2483,2.2231,2.1564,2.1028,2.0638,2.1052,2.1183,2.1161,2.1437,2.1487,2.1453,2.1348,2.1281,2.1244,0.0,1.1809,1.1813,1.1817,1.1966,1.2089,1.2017,0.0,0.0,0.0,0.0,0.0,0.0,0.0,0.0,1.2052,1.1725,1.1398,1.1018,1.0995,1.0849,1.0512,1.0637,1.0713,1.0722,0.0,0.0,0.0,0.0,0.0,0.0,0.0,1.3066,0.0,1.3112,1.3029,1.3609,0.0,1.3535,1.3063,0.0,1.3811,1.3801,0.0,0.0,0.0,1.6004,1.6012,0.0,0.0,0.0,0.0,0.0,0.0,0.0,0.0,0.0,0.0,0.0,0.0,0.0,0.0,0.0,0.0,0.0,0.0,0.0,0.0,0.0,0.0,0.0,0.0,0.0,0.0,0.0,0.0,0.0,0.0,0.0,0.0,0.0,0.0,0.0,0.0,0.0,0.0,2.2558,2.3021,2.327,2.3676,2.4067,2.4458,2.4495,2.4495,2.4476,2.4775,2.475,2.4495,2.4504,2.439,2.4192,2.352,2.3071,2.2762,2.2114,2.1587,2.1218,2.1025,2.1114,2.1393,2.1278,2.123,2.1221,2.128,2.13,2.13,1.2042,1.2104,1.2135,1.2028,1.2135,1.2243,1.2219,0.0,0.0,0.0,0.0,0.0,0.0,0.0,0.0,1.2488,1.2575,1.2193,1.1066,1.1089,1.0955,1.0525,1.0637,1.0853,1.1193,0.0,0.0,0.0,0.0,0.0,0.0,0.0,0.0,0.0,1.2893,1.2865,1.3391,1.3288,0.0,0.0,1.4039,1.4488,0.0,0.0,0.0,0.0,0.0,1.6951,0.0,0.0,1.6087,1.5489,0.0,0.0,0.0,0.0,0.0,0.0,1.5574,0.0,0.0,0.0,0.0,0.0,1.7848,1.8388,0.0,0.0,0.0,0.0,0.0,0.0,0.0,0.0,0.0,0.0,0.0,0.0,0.0,0.0,0.0,0.0,0.0,0.0,0.0,0.0,2.2712,2.3024,2.3151,2.3541,2.3815,2.3928,2.4489,2.4517,2.3928,2.458,2.4609,2.4076,2.457,2.4587,2.4183,2.3852,2.3484,2.3053,2.2378,2.2083,2.2042,2.1809,2.1747,2.1827,2.162,2.1686,2.182,2.1438,2.13,2.13,1.2151,1.2135,1.2135,1.2274,1.2367,1.2523,0.0,0.0,0.0,0.0,0.0,0.0,0.0,0.0,0.0,1.2956,1.3092,1.269,1.1413,1.1469,1.1283,1.0722,1.0913,1.1236,1.1638,0.0,0.0,0.0,0.0,0.0,0.0,0.0,0.0,0.0,0.0,0.0,0.0,0.0,0.0,0.0,1.4547,0.0,0.0,1.6476,1.6994,0.0,0.0,0.0,1.7796,1.7911,1.7338,0.0,0.0,0.0,0.0,0.0,0.0,0.0,0.0,0.0,0.0,0.0,0.0,0.0,1.7784,1.8218,1.8701,0.0,0.0,0.0,0.0,0.0,0.0,0.0,0.0,0.0,0.0,0.0,0.0,0.0,0.0,0.0,0.0,2.229,2.252,2.2689,2.3061,2.3369,2.3501,2.3702,2.3921,2.4112,2.4736,2.485,2.4369,2.4938,2.4989,2.4485,2.4876,2.4818,2.4307,2.4198,2.3892,2.3428,2.2908,2.2675,2.2624,2.2351,2.2252,2.2219,2.198,2.1954,2.2055,2.1623,2.1492,2.1536,0.0,1.2088,1.2064,1.2562,1.2694,1.2938,0.0,0.0,0.0,0.0,0.0,0.0,0.0,0.0,0.0,0.0,1.3453,1.3038,1.1957,1.1956,1.1719,1.1082,1.135,1.1666,1.2024,0.0,0.0,0.0,0.0,0.0,0.0,0.0,0.0,0.0,1.2711,1.2837,0.0,0.0,0.0,1.404,1.506,1.5621,0.0,0.0,1.7826,0.0,1.911,1.944,1.9342,1.9294,1.8676,0.0,0.0,0.0,0.0,0.0,1.6952,0.0,0.0,0.0,0.0,0.0,0.0,0.0,1.8382,1.8433,1.8438,0.0,0.0,0.0,0.0,0.0,0.0,0.0,0.0,0.0,0.0,0.0,0.0,0.0,0.0,0.0,2.2898,2.3051,2.3134,2.3134,2.3537,2.3882,2.4123,2.4139,2.4318,2.4722,2.517,2.5357,2.5333,2.5611,2.5586,2.5308,2.5333,2.5064,2.4529,2.4529,2.4291,2.387,2.3571,2.3297,2.3021,2.277,2.2628,2.2569,2.2232,2.2097,2.2072,2.1818,2.1786,2.1832,1.2274,1.2468,1.2675,1.2887,1.3276,1.366,0.0,0.0,0.0,0.0,0.0,0.0,0.0,0.0,0.0,0.0,0.0,1.3531,1.2516,1.2176,1.1814,1.143,1.1469,1.173,1.2222,1.2058,0.0,0.0,0.0,0.0,0.0,0.0,0.0,0.0,0.0,1.2955,0.0,0.0,0.0,1.4353,1.5002,0.0,1.6291,1.7216,1.804,1.8745,1.9171,1.9492,1.9649,0.0,1.8937,1.8628,0.0,0.0,0.0,0.0,0.0,0.0,0.0,0.0,0.0,0.0,0.0,0.0,1.8015,1.8022,1.8112,0.0,0.0,0.0,0.0,0.0,0.0,0.0,0.0,0.0,0.0,0.0,0.0,0.0,0.0,0.0,2.2523,2.3015,2.3329,2.3329,2.3895,2.4285,2.4345,2.4676,2.4933,2.5021,2.5609,2.5844,2.5611,2.5893,2.5795,2.5308,2.5513,2.5333,2.4809,2.4809,2.4661,2.4341,2.392,2.358,2.3297,2.3021,2.2795,2.2569,2.2232,2.2097,2.2097,2.2047,2.1894,2.1763,1.2625,1.275,1.2966,1.3455,0.0,0.0,0.0,0.0,0.0,0.0,0.0,0.0,0.0,0.0,0.0,0.0,0.0,0.0,0.0,0.0,1.2131,1.1765,1.1939,1.221,1.2545,1.2522,1.2421,0.0,0.0,0.0,0.0,0.0,0.0,0.0,0.0,0.0,0.0,0.0,1.3575,1.4315,1.5172,0.0,1.6728,1.7906,1.866,1.9176,1.9669,2.0182,2.0546,1.9847,1.9825,0.0,0.0,1.8774,1.9151,0.0,1.8847,1.8865,0.0,0.0,0.0,1.8571,0.0,0.0,0.0,1.8346,1.8289,1.8741,0.0,0.0,0.0,0.0,0.0,0.0,0.0,0.0,0.0,0.0,0.0,0.0,0.0,0.0,2.281,2.3497,2.4025,2.4241,2.4374,2.4496,2.4598,2.4941,2.5205,2.5305,2.5825,2.61,2.6096,2.61,2.598,2.5689,2.5844,2.5625,2.5079,2.4956,2.476,2.448,2.3994,2.373,2.358,2.3172,2.2996,2.2946,2.251,2.2358,2.2358,2.2358,2.2392,2.246,1.2822,1.2915,1.3132,1.3868,0.0,0.0,0.0,0.0,0.0,0.0,0.0,0.0,0.0,0.0,0.0,0.0,0.0,0.0,0.0,0.0,0.0,1.2314,1.2503,1.2684,1.2849,1.293,1.2715,0.0,0.0,0.0,0.0,0.0,0.0,0.0,0.0,0.0,0.0,0.0,0.0,1.4504,0.0,1.6174,1.6848,1.8367,1.9064,1.9354,2.021,2.0998,2.1487,2.0591,0.0,2.1029,1.9669,1.9754,0.0,0.0,0.0,0.0,0.0,0.0,0.0,0.0,0.0,1.9182,0.0,0.0,0.0,1.907,0.0,0.0,0.0,0.0,0.0,0.0,0.0,0.0,0.0,0.0,0.0,0.0,0.0,0.0,0.0,2.3629,2.4275,2.4924,2.4517,2.4436,2.49,2.519,2.5441,2.5693,2.6066,2.6318,2.6496,2.6304,2.6173,2.6173,2.6076,2.581,2.543,2.5128,2.4833,2.4554,2.4118,2.387,2.378,2.3322,2.3247,2.3347,2.2871,2.2669,2.2669,2.2669,2.2809,2.297,1.2367,1.2842,1.3319,1.3535,0.0,0.0,0.0,0.0,0.0,0.0,0.0,0.0,0.0,0.0,0.0,0.0,0.0,0.0,1.4908,0.0,0.0,0.0,1.2893,1.2757,1.306,1.2905,1.2481,1.1781,0.0,0.0,0.0,0.0,0.0,0.0,1.3749,0.0,0.0,0.0,1.4755,0.0,1.5878,1.5955,0.0,1.7447,1.8417,1.9196,2.053,2.1461,2.1889,0.0,2.0953,2.1309,0.0,2.0333,0.0,0.0,0.0,0.0,0.0,0.0,0.0,0.0,2.0153,0.0,0.0,0.0,1.9364,1.9014,0.0,0.0,0.0,0.0,0.0,0.0,0.0,0.0,0.0,0.0,0.0,0.0,0.0,0.0,0.0,2.2392,2.2787,2.4441,2.3771,2.3882,2.5336,2.561,2.594,2.6358,2.6668,2.6699,2.6496,2.6472,2.6448,2.6448,2.5965,2.5844,2.6004,2.5504,2.5113,2.4833,2.4563,2.4192,2.3805,2.3721,2.3605,2.3372,2.3071,2.2946,2.2946,2.2946,2.2645,2.2316,1.2444,1.3015,1.3485,1.355,0.0,0.0,0.0,0.0,0.0,0.0,0.0,0.0,0.0,0.0,0.0,0.0,0.0,1.5229,0.0,0.0,0.0,0.0,0.0,0.0,1.3501,1.3228,1.2839,1.2345,1.2301,0.0,0.0,0.0,0.0,0.0,1.433,0.0,1.5245,0.0,0.0,0.0,0.0,0.0,0.0,1.7896,1.9024,1.9991,2.0989,2.1702,2.2042,0.0,2.1399,0.0,0.0,0.0,0.0,0.0,0.0,0.0,0.0,0.0,0.0,0.0,0.0,0.0,0.0,0.0,1.9431,0.0,0.0,0.0,0.0,0.0,0.0,0.0,0.0,0.0,0.0,0.0,0.0,0.0,0.0,0.0,0.0,0.0,0.0,0.0,2.3877,2.4095,2.5431,2.5848,2.6187,2.6475,2.6747,2.6914,2.6952,2.6818,2.6723,2.6723,2.6338,2.6135,2.6066,2.5552,2.5235,2.5113,2.4686,2.4381,2.4183,2.4044,2.392,2.3845,2.3696,2.3388,2.2996,2.2996,2.2858,2.2715,1.2524,0.0,0.0,0.0,0.0,0.0,0.0,0.0,0.0,0.0,0.0,0.0,1.6959,1.6995,0.0,0.0,0.0,1.617,0.0,0.0,1.4472,0.0,0.0,0.0,0.0,1.3501,1.3107,1.2805,1.2604,0.0,0.0,0.0,0.0,0.0,0.0,1.5409,1.6009,0.0,0.0,1.6568,1.6517,1.6826,1.7471,1.8628,1.9728,2.0703,2.1344,2.1914,2.2296,2.1789,2.1808,0.0,2.1283,0.0,0.0,0.0,0.0,0.0,2.1788,0.0,0.0,0.0,0.0,0.0,0.0,0.0,0.0,0.0,0.0,0.0,0.0,0.0,0.0,0.0,0.0,0.0,0.0,0.0,0.0,0.0,0.0,0.0,0.0,0.0,0.0,0.0,0.0,2.4076,2.5601,2.5946,2.6297,2.6699,2.69,2.7161,2.7489,2.7225,2.7081,2.7092,2.676,2.652,2.6294,2.5716,2.5436,2.5372,2.4848,2.4622,2.4587,2.4332,2.4242,2.4276,2.4168,2.3771,2.3222,2.3147,2.3072,2.2962,1.2479,1.283,0.0,0.0,0.0,0.0,0.0,0.0,0.0,0.0,0.0,0.0,0.0,0.0,0.0,0.0,0.0,1.7721,1.7713,0.0,1.5443,0.0,0.0,1.3902,0.0,0.0,1.3012,1.2805,1.2604,0.0,0.0,0.0,0.0,0.0,0.0,1.542,1.584,1.6345,1.7027,1.7728,1.7523,1.8062,1.8973,0.0,2.0122,2.0976,2.1568,0.0,0.0,2.2084,2.2158,0.0,0.0,0.0,0.0,0.0,0.0,0.0,0.0,0.0,0.0,2.1489,0.0,0.0,0.0,0.0,2.0997,0.0,0.0,0.0,0.0,0.0,0.0,0.0,0.0,0.0,0.0,0.0,0.0,0.0,0.0,0.0,0.0,0.0,0.0,0.0,0.0,0.0,2.6045,2.6011,2.6337,2.725,2.7269,2.7515,2.7964,2.7702,2.7594,2.756,2.7098,2.687,2.6856,2.6125,2.5742,2.5674,2.5196,2.4953,2.4858,2.4612,2.4489,2.4464,2.4276,2.4028,2.3755,2.3472,2.3089,2.2755,0.0,0.0,0.0,0.0,0.0,0.0,0.0,1.5219,0.0,0.0,0.0,0.0,0.0,0.0,1.8808,0.0,0.0,1.847,1.847,1.7048,0.0,0.0,0.0,1.5133,0.0,0.0,1.3949,1.3663,1.3588,0.0,0.0,0.0,0.0,0.0,0.0,1.6138,0.0,0.0,0.0,0.0,0.0,1.8697,1.9647,0.0,0.0,2.1013,2.1869,2.2459,0.0,2.2726,2.2606,2.2503,2.2606,2.242,2.2251,2.268,2.2658,0.0,0.0,0.0,2.27,2.2276,0.0,0.0,0.0,0.0,0.0,0.0,0.0,0.0,0.0,0.0,0.0,0.0,0.0,0.0,0.0,0.0,0.0,0.0,0.0,0.0,0.0,0.0,0.0,0.0,2.3411,0.0,0.0,2.6866,2.7173,2.731,2.7777,2.8012,2.7998,2.7904,2.7857,2.7857,2.7394,2.7156,2.7143,2.6536,2.6154,2.5936,2.5609,2.5252,2.4901,2.5101,2.4973,2.4716,2.4763,2.4702,2.4442,2.3693,2.3184,2.2834,1.3284,0.0,0.0,0.0,0.0,0.0,0.0,0.0,0.0,0.0,1.6898,0.0,1.8738,0.0,1.938,0.0,1.9646,1.9201,1.8828,1.7955,0.0,1.7785,1.6814,0.0,0.0,0.0,1.4962,1.4666,0.0,1.4505,0.0,0.0,0.0,0.0,0.0,0.0,0.0,0.0,1.7716,0.0,0.0,1.9121,0.0,0.0,2.0761,2.1228,0.0,2.2574,2.2825,2.3035,2.2981,2.2908,2.3195,2.3162,2.3074,2.3579,2.3525,2.336,2.3703,2.3577,0.0,2.3176,2.2938,0.0,2.1851,0.0,0.0,0.0,0.0,0.0,0.0,0.0,0.0,0.0,0.0,0.0,0.0,2.0277,0.0,0.0,0.0,0.0,0.0,0.0,0.0,2.3284,2.3268,0.0,0.0,0.0,2.7177,2.7293,2.7918,2.8292,2.8386,2.849,2.8396,2.8139,2.7854,2.7594,2.7394,2.6802,2.6489,2.6366,2.6028,2.5663,2.5328,2.5551,2.5406,2.5055,2.5159,2.5141,2.4941,2.3816,2.3172,2.2795,1.3543,0.0,0.0,0.0,1.4316,0.0,0.0,0.0,1.647,0.0,1.731,1.8179,1.9358,1.95,1.9739,2.0334,2.04,0.0,1.8971,1.886,0.0,0.0,1.7554,1.7347,1.7347,0.0,0.0,0.0,0.0,0.0,0.0,0.0,0.0,0.0,1.5805,0.0,1.6944,1.7542,1.8059,1.8495,1.8896,1.9421,2.0005,2.0402,2.0967,2.1612,2.218,2.2574,2.2825,2.3057,2.3297,2.3489,2.3527,2.3679,2.3878,2.4138,2.4218,2.4277,2.4467,2.4293,2.4083,2.4152,0.0,0.0,0.0,0.0,2.4252,0.0,0.0,0.0,0.0,0.0,0.0,0.0,0.0,0.0,0.0,0.0,0.0,0.0,0.0,0.0,0.0,0.0,2.0817,2.2916,2.2678,2.3209,0.0,0.0,2.654,2.7321,2.7827,2.8422,2.9117,2.9348,2.9129,2.8441,2.8396,2.8115,2.762,2.6947,2.6754,2.6904,2.6441,2.6185,2.6082,2.5949,2.5758,2.5538,2.5465,2.5424,2.5245,2.3919,2.3098,2.2603,1.4043,1.4505,1.4935,0.0,1.4906,1.4993,0.0,0.0,0.0,0.0,1.7726,1.8432,1.9182,1.9504,1.9872,2.0425,2.0249,0.0,0.0,0.0,0.0,1.9725,1.8637,1.8033,1.8033,1.6959,0.0,1.6295,0.0,0.0,1.5784,0.0,0.0,0.0,0.0,0.0,1.7135,1.7448,1.8296,1.9468,1.9761,2.0247,0.0,0.0,2.1544,2.1991,2.2293,2.2574,2.286,2.3254,2.3438,2.357,2.3913,2.4161,2.4334,2.4395,2.4532,2.4669,2.47,2.4778,2.4853,2.5008,2.5017,2.4897,0.0,0.0,0.0,0.0,0.0,0.0,0.0,0.0,0.0,0.0,0.0,0.0,0.0,0.0,0.0,2.1467,0.0,0.0,0.0,0.0,2.1179,2.2485,2.2827,2.3863,0.0,0.0,0.0,2.7721,2.8842,2.9409,2.9393,2.9081,2.89,2.8919,2.8351,2.8142,2.8184,2.761,2.729,2.719,2.6863,2.6362,2.583,2.6083,2.6141,2.6021,2.6006,2.5742,2.5255,2.4242,2.3595,2.322,1.4004,0.0,0.0,1.5416,0.0,0.0,1.6272,0.0,0.0,1.7258,1.7872,0.0,1.8922,1.9421,1.9913,2.0444,2.0342,0.0,0.0,0.0,0.0,1.9972,1.9479,1.9074,1.8795,1.7894,0.0,1.6838,0.0,0.0,1.5907,0.0,0.0,0.0,0.0,1.6463,0.0,1.7889,1.8906,2.0099,2.0171,0.0,0.0,2.1259,2.159,2.203,2.2419,2.2728,2.2962,2.3124,2.3323,2.355,2.3802,2.4033,2.4231,2.4449,2.4727,2.4997,2.5076,2.5238,2.5512,2.5956,2.6058,2.6001,2.5685,2.6271,2.6678,0.0,0.0,0.0,0.0,0.0,0.0,0.0,0.0,0.0,0.0,0.0,0.0,0.0,0.0,0.0,0.0,0.0,2.1086,2.1855,2.223,2.3152,0.0,0.0,0.0,2.7522,2.8724,2.9436,2.9636,2.9102,2.9037,2.9439,2.8585,2.8321,2.8558,2.8032,2.7655,2.7428,2.7262,2.6832,2.6237,2.6419,2.6576,2.674,2.6893,2.6565,2.5925,2.5163,2.4392,2.3774,0.0,0.0,0.0,0.0,0.0,0.0,0.0,1.7282,0.0,1.7492,0.0,1.853,1.8738,1.931,1.9835,2.0341,0.0,2.029,1.9994,2.0533,2.0469,1.9638,2.0098,2.0115,1.9479,1.8906,0.0,0.0,0.0,0.0,0.0,0.0,0.0,0.0,0.0,0.0,0.0,1.8641,1.9689,0.0,2.0431,2.0704,2.119,2.1256,2.1497,2.1904,2.2628,2.2991,2.3151,2.3015,2.3227,2.3535,2.3544,2.368,2.3888,2.4277,2.4794,2.5256,2.5479,2.5822,2.6224,2.6821,2.7221,2.7242,2.648,2.7158,2.784,2.7389,2.7027,2.7011,0.0,0.0,0.0,0.0,0.0,0.0,0.0,0.0,0.0,0.0,0.0,0.0,0.0,0.0,2.0812,2.1221,2.1284,2.1909,0.0,0.0,0.0,2.718,2.8113,2.901,2.9865,0.0,2.936,2.9931,2.9004,2.8652,2.8827,2.8326,2.7951,2.7712,2.7631,2.7357,2.6955,2.6861,2.7097,2.7568,2.7853,2.7551,2.6928,2.6443,2.5503,2.4492,0.0,0.0,0.0,0.0,0.0,1.7428,1.7969,1.8094,1.8225,1.8496,1.8895,1.9129,1.9181,1.931,1.9506,1.9809,1.9835,0.0,0.0,0.0,0.0,2.0637,2.0488,2.0226,1.9813,1.9027,1.8382,0.0,0.0,0.0,0.0,0.0,0.0,0.0,0.0,0.0,1.8725,1.9387,0.0,2.1251,2.1207,2.1354,2.1653,2.2019,2.201,2.1947,2.2998,2.3385,2.3484,2.3846,2.385,2.3753,2.3815,2.3822,2.3828,2.3908,2.4542,2.5276,2.5641,2.6662,2.757,2.742,2.8372,2.9065,2.8039,2.8579,2.9201,2.8956,2.8893,2.8731,2.8284,0.0,0.0,0.0,0.0,0.0,0.0,0.0,0.0,0.0,0.0,0.0,0.0,0.0,0.0,2.0892,2.0889,2.1771,0.0,0.0,0.0,0.0,2.8304,0.0,0.0,0.0,2.961,3.0148,2.9566,2.9229,2.9035,2.878,2.8501,2.8231,2.7796,2.7452,2.7245,2.7374,2.7773,2.8314,2.8255,2.8135,2.8009,2.7825,2.7211,2.6352,0.0,0.0,0.0,0.0,0.0,0.0,0.0,1.8243,0.0,1.854,1.8672,1.8774,1.8774,1.91,1.9402,1.968,1.9706,1.9861,2.0274,2.0411,2.0573,2.0694,2.0656,0.0,1.99,1.9326,1.8617,1.7779,0.0,0.0,0.0,0.0,0.0,0.0,0.0,1.8147,0.0,0.0,0.0,2.1262,2.148,2.1696,2.1941,2.2154,2.2284,2.2387,2.2822,2.3262,2.3681,2.3803,2.3679,2.3505,2.3659,2.3746,2.3828,2.3917,2.4612,2.5418,2.5721,2.6787,2.7813,2.7893,2.8749,2.9512,2.9251,2.9611,3.006,3.0196,3.003,2.9576,2.8631,2.7096,0.0,0.0,0.0,0.0,0.0,0.0,0.0,0.0,0.0,0.0,0.0,0.0,0.0,0.0,0.0,0.0,0.0,0.0,0.0,0.0,0.0,0.0,0.0,0.0,0.0,3.0758,2.9912,2.9555,2.9646,2.9163,2.8827,2.8605,2.8184,2.7944,2.7858,2.8309,2.8477,2.8548,2.908,2.9206,2.905,2.8946,2.8527,2.7917,0.0,1.5807,0.0,0.0,1.6579,0.0,1.7563,1.8292,1.8723,1.8533,1.8511,1.8511,1.8511,1.899,1.9376,1.9602,1.9602,1.975,2.0078,2.03,2.0462,2.0565,2.0796,2.0623,2.002,1.967,1.8967,0.0,0.0,0.0,0.0,0.0,0.0,0.0,0.0,0.0,0.0,0.0,2.0673,2.1251,2.1672,2.1948,2.2106,2.2234,2.2448,2.2684,2.2691,2.3066,2.3539,2.3611,2.3536,2.3431,2.3593,2.3721,2.3859,2.4186,2.486,2.5562,2.5885,2.6886,2.7933,2.8289,2.9049,2.9794,3.011,3.0325,3.062,3.115,3.0904,3.0262,2.9176,2.7866,0.0,0.0,0.0,0.0,0.0,0.0,0.0,0.0,0.0,0.0,0.0,0.0,0.0,0.0,0.0,2.1458,2.3539,2.3924,2.5155,0.0,0.0,2.857,2.9992,0.0,2.9944,3.1194,3.0291,2.9983,3.0193,2.96,2.9197,2.8943,2.8628,2.8457,2.8495,2.9146,2.9158,2.8897,2.9746,2.994,2.9742,2.9609,2.928,2.8877,0.0,0.0,0.0,0.0,0.0,0.0,1.821,1.8582,1.8909,1.9173,1.921,1.921,1.921,1.9268,1.9298,1.935,1.935,1.955,2.006,2.013,2.0344,2.0848,2.0899,2.0742,2.0353,2.0028,1.9582,0.0,0.0,0.0,0.0,0.0,0.0,0.0,0.0,0.0,0.0,2.0728,2.1082,2.1691,2.2085,2.2197,2.2156,2.2723,2.2647,2.2348,2.312,2.3064,2.2785,2.3785,2.4124,2.4116,2.4116,2.3976,2.3943,2.4613,2.5162,2.566,2.635,2.7532,2.8615,2.8657,2.9725,3.0696,3.0422,3.0533,3.0888,3.1666,3.1684,3.1285,3.04,2.9953,2.9257,0.0,0.0,0.0,0.0,0.0,0.0,0.0,0.0,0.0,0.0,2.1758,0.0,0.0,2.1307,2.167,2.3095,2.3539,2.4622,2.6553,0.0,2.7951,2.8757,2.9756,3.0453,3.085,3.1043,3.08,3.0193,3.0125,2.9852,2.9416,2.8966,2.883,2.8956,2.9474,2.9745,2.9864,2.9716,2.9641,2.9597,2.9472,2.9119,2.8755,0.0,0.0,0.0,0.0,0.0,0.0,0.0,1.8377,1.8814,1.9497,1.9415,1.9305,1.9305,1.9305,1.9305,1.9305,1.9481,1.9668,1.9843,2.0199,2.0482,2.065,2.0822,2.0724,2.04,2.0274,1.9917,0.0,0.0,0.0,0.0,0.0,0.0,0.0,0.0,2.0667,2.1357,2.1607,2.183,2.2103,2.2492,2.2571,2.2529,2.3183,2.3355,2.33,2.3447,2.3596,2.3711,2.3764,2.398,2.4252,2.4535,2.4744,2.4949,2.5391,2.6007,2.6668,2.7099,2.8179,2.9263,2.9519,3.0288,3.1059,3.1494,3.1475,3.162,3.2604,3.2591,3.2296,3.1856,3.0928,3.0357,0.0,0.0,0.0,0.0,0.0,0.0,0.0,0.0,0.0,0.0,0.0,0.0,0.0,0.0,2.1436,2.3467,2.3621,2.4646,2.685,0.0,2.878,2.9722,3.0667,3.1336,3.1762,3.1609,3.1395,3.1071,3.0487,2.9943,2.9519,2.9771,2.9825,2.9759,3.0348,3.0543,3.0469,3.0495,3.0494,3.0466,3.0364,2.9998,2.9588,1.7093,0.0,1.7013,0.0,1.7223,1.7449,1.8174,1.8483,1.8937,1.9695,1.9581,1.9485,1.9557,1.9557,1.952,1.9452,1.9657,1.9801,1.9832,2.0302,2.0602,2.0607,2.1012,0.0,2.071,2.0677,2.0416,1.9828,1.9833,0.0,0.0,0.0,0.0,0.0,2.1432,2.1935,2.2236,2.2414,2.2488,2.2524,2.3007,2.3112,2.3078,2.3733,2.4043,2.4096,2.3942,2.4244,2.466,2.4252,2.4467,2.4925,2.4978,2.536,2.5817,2.5939,2.6657,2.7417,2.7564,2.8418,2.943,3.0047,3.0587,3.1228,3.2176,3.2031,3.1999,3.3047,3.3224,3.3166,3.3065,3.2085,3.1596,3.2518,0.0,0.0,0.0,0.0,0.0,0.0,0.0,2.6442,2.5642,0.0,0.0,0.0,0.0,2.2508,2.4279,2.4388,0.0,0.0,0.0,0.0,0.0,3.1095,3.1847,3.2262,3.2084,3.1881,3.1661,3.0814,3.0251,2.9974,3.0653,3.0738,3.0447,3.1063,3.1101,3.0807,3.0953,3.1,3.0979,3.0741,3.0433,3.0101,1.7889,1.7776,1.7782,1.8364,1.8469,1.8584,1.8858,1.9119,1.9422,1.9752,1.9807,1.9882,2.0176,2.0196,2.0071,1.9811,1.9815,1.988,2.0075,2.0399,2.0681,0.0,0.0,2.1791,2.1396,2.1388,2.1206,2.0875,0.0,0.0,2.0396,0.0,2.2301,2.3039,2.2941,2.3105,2.3444,2.3059,2.2904,2.2955,2.3621,2.3814,2.3766,2.4416,2.458,2.4437,2.469,2.4953,2.5237,2.5498,2.6021,2.6412,2.5498,2.5701,2.6271,2.6227,2.6856,2.7606,2.7606,2.8133,2.8957,2.9958,3.0543,3.1153,3.2156,3.1936,3.1773,3.2714,3.3439,3.3878,3.3898,3.3773,3.3273,3.211,0.0,0.0,0.0,0.0,0.0,0.0,2.6526,2.5708,2.571,0.0,0.0,0.0,0.0,0.0,0.0,0.0,0.0,2.6701,2.8512,0.0,2.8932,3.0774,3.1762,3.1916,3.2441,3.2341,3.1683,3.1218,3.0993,3.1008,3.1478,3.1379,3.093,3.1396,3.1281,3.0812,3.0812,3.0786,3.0734,3.0224,3.0005,2.9926,1.831,1.827,1.8263,1.8457,1.8493,1.8582,1.885,1.8974,1.9296,2.004,2.0125,2.0331,2.0819,2.0473,2.0166,0.0,2.0289,2.0411,0.0,2.0985,2.1294,2.1321,2.1758,2.1937,2.1798,2.1825,2.173,2.1577,0.0,0.0,0.0,2.2563,2.3138,2.3327,2.4023,2.4343,2.44,2.4537,2.4445,2.4235,2.473,2.4839,2.4748,2.5102,2.5453,2.5732,2.555,2.5644,2.5859,2.5817,2.6076,2.6371,2.622,2.655,2.7053,2.7334,2.7906,2.8474,2.8803,2.9427,3.0159,3.0797,3.1211,3.1654,3.2426,3.3133,3.3573,3.3403,3.4181,3.4842,3.4729,3.4346,3.3909,3.3531,3.3042,0.0,0.0,0.0,0.0,0.0,2.8073,2.7685,0.0,2.673,0.0,0.0,0.0,0.0,0.0,0.0,0.0,0.0,2.9743,0.0,3.0669,3.2273,3.3089,3.3119,3.3023,3.2528,3.1683,3.1562,3.12,3.0777,3.1798,3.1847,3.1242,3.2071,3.2114,3.1567,3.123,3.1086,3.1034,3.0672,3.0438,3.0219,1.8798,1.8846,1.8846,1.8846,1.8846,1.8878,1.9058,1.9092,1.9381,2.0192,2.0299,2.0536,2.1117,2.0817,0.0,2.04,2.0575,2.0665,2.06,2.1221,2.1562,2.1507,2.2075,2.2318,2.2191,0.0,0.0,2.2265,2.2293,2.2561,2.303,2.38,2.4201,2.4294,2.5035,2.5245,2.5079,2.53,2.5251,2.5049,2.552,2.5645,2.5606,2.5936,2.6309,2.6603,2.6451,2.6466,2.6577,2.6834,2.7123,2.7423,2.7836,2.8305,2.8585,2.8143,2.8431,2.9014,2.9481,3.001,3.0579,3.1169,3.1716,3.2354,3.3248,3.3882,3.4242,3.4111,3.4682,3.5212,3.5132,3.4921,3.4719,3.4607,3.3903,3.2907,3.154,0.0,0.0,0.0,0.0,0.0,0.0,2.8173,2.7881,0.0,0.0,0.0,0.0,0.0,0.0,2.8682,3.0716,0.0,3.2021,3.3119,3.3667,3.3691,3.3304,3.2788,3.221,3.1937,3.1614,3.1323,3.2136,3.2215,3.1809,3.2528,3.258,3.2153,3.1834,3.1604,3.1476,3.1204,3.0868,3.0505,1.9341,1.9395,1.9395,0.0,1.9395,0.0,1.9395,1.9395,1.9626,2.0191,2.0306,2.0507,2.1089,2.1182,2.1058,2.0758,0.0,0.0,0.0,2.1266,2.1608,2.155,2.2486,2.2887,2.2529,2.3187,2.3346,2.2976,2.3228,2.3808,2.468,2.4976,2.536,2.576,2.5936,2.5889,2.5604,2.5523,2.548,2.5532,2.606,2.6257,2.6335,2.683,2.7035,2.7102,2.7333,2.7317,2.7335,2.8288,2.8835,2.924,2.9951,3.0542,3.0594,2.8735,2.8688,2.9362,2.9794,3.0091,3.0472,3.1212,3.2137,3.3195,3.4437,3.4283,3.4063,3.4762,3.5037,3.5158,3.5119,3.5359,3.5486,3.5151,3.4728,3.3771,3.1885,0.0,0.0,0.0,0.0,0.0,0.0,2.9343,2.9322,0.0,0.0,0.0,0.0,0.0,2.9521,3.0703,3.155,3.2306,3.2949,3.345,3.3695,3.3713,3.3334,3.3136,3.3131,3.2415,3.2198,3.24,3.251,3.252,3.2487,3.278,3.2745,3.253,3.2505,3.2305,3.199,3.1721,3.1296,3.0812,0.0,0.0,1.9395,1.9395,1.9395,1.9395,1.9395,1.9395,1.9511,1.9873,2.0126,2.0443,2.078,2.1053,2.1181,2.1101,2.1065,2.1057,2.1069,2.1637,2.1956,2.1956,2.2868,2.3224,2.2895,2.3529,2.3767,2.3578,2.3847,2.4091,2.4356,2.5168,2.5777,2.616,2.6363,2.6582,2.6783,2.6445,2.6334,2.6352,2.6683,2.6941,2.7127,2.7137,2.7412,2.7772,2.7732,2.7804,2.8034,2.869,2.9095,2.94,2.9777,3.0261,3.0591,3.0108,3.0395,3.0888,3.0986,3.1178,3.152,3.226,3.3066,3.388,3.4802,3.5357,3.5535,3.5007,3.5409,3.5721,3.5183,3.4794,3.4479,3.4252,3.3983,3.3326,3.1947,3.1944,0.0,0.0,3.0547,3.0371,3.0069,3.0123,3.0171,0.0,0.0,0.0,0.0,3.1559,3.141,3.1174,3.2911,3.3807,3.3663,3.4231,3.4342,3.4013,3.3704,3.3614,3.3687,3.3158,3.2763,3.2513,3.2928,3.2759,3.2224,3.2708,3.2862,3.2779,3.258,3.2443,3.2342,3.2026,3.1695,3.1401,1.9733,1.9766,1.9766,1.9766,1.9766,1.9766,1.9766,1.9646,1.9676,1.9998,2.0187,2.0414,2.0658,2.0996,2.1269,2.1423,2.1298,2.1276,2.1423,2.2,2.2414,2.2559,2.3354,2.3689,2.3519,2.4116,2.449,2.4531,2.4669,2.4713,2.4679,2.5408,2.5948,2.6311,2.6714,2.6946,2.6955,2.6893,2.6784,2.6609,2.689,2.7152,2.7403,2.7487,2.7771,2.8157,2.8181,2.8271,2.8462,2.9344,2.9751,3.0013,3.0617,3.1191,3.1607,3.1367,3.1433,3.1637,3.1844,3.2077,3.2472,3.3474,3.3921,3.4455,3.5737,3.5954,3.5801,3.5522,3.5756,3.582,3.5225,3.4982,3.4827,3.4623,3.4269,3.3629,3.2555,3.2532,0.0,3.1799,3.1416,3.135,3.1687,3.1421,3.138,3.1714,3.1991,0.0,3.2895,3.3196,3.314,3.2647,3.3773,3.44,3.4457,3.4762,3.4929,3.4908,3.4213,3.4131,3.455,3.3722,3.3277,3.3194,3.3486,3.3315,3.2852,3.3295,3.3386,3.3256,3.3119,3.2832,3.2468,3.2305,3.2017,3.172,2.0157,2.0204,2.0204,2.0204,2.0204,2.0204,2.0204,2.0027,1.9956,2.0246,2.0344,2.0447,2.0679,2.101,2.1336,2.1672,2.1445,2.1423,2.1752,2.2353,2.2789,2.3078,2.3799,2.4161,2.4114,2.4701,2.5164,2.5483,2.5483,2.5425,2.5301,2.5715,2.6097,2.6498,2.7048,2.7164,2.6969,2.714,2.7013,2.6701,2.6918,2.7152,2.7431,2.7772,2.8077,2.8344,2.8648,2.87,2.8769,3.0031,3.0489,3.0716,3.164,3.2342,3.275,3.2297,3.2122,3.2164,3.2464,3.2842,3.3406,3.4523,3.4686,3.499,3.6669,3.6332,3.575,3.6099,3.6121,3.5878,3.5339,3.5392,3.5473,3.5211,3.4752,3.4089,3.3161,0.0,3.332,3.2891,3.2433,3.2496,3.3311,3.2817,3.2743,3.3455,3.3721,3.4006,3.4281,3.4611,3.4674,3.444,3.442,3.466,3.5134,3.5186,3.5438,3.5846,3.4804,3.474,3.55,3.4304,3.3905,3.4168,3.4132,3.403,3.3887,3.4108,3.4036,3.3821,3.389,3.3417,3.2718,3.2721,3.2487,3.2186,2.0136,2.0204,2.0204,2.0204,2.0204,2.0204,2.0204,2.0164,2.0167,2.0197,2.0452,2.0651,2.0712,2.0992,2.132,2.1664,2.165,2.1759,2.2089,2.2699,2.3062,2.3093,2.4004,2.4386,2.4114,2.4701,2.5261,2.582,2.582,2.5823,2.5792,2.6151,2.6669,2.7298,2.729,2.7623,2.8101,2.7471,2.7169,2.7114,2.702,2.7152,2.7431,2.7772,2.8077,2.8371,2.8877,2.9012,2.9173,3.0354,3.0748,3.0861,3.1469,3.2088,3.2544,3.2454,3.2887,3.3318,3.295,3.3482,3.4276,3.4691,3.5074,3.5579,3.6546,3.6805,3.678,3.6564,3.67,3.6608,3.5912,3.5273,3.4706,3.42,3.4039,3.3701,3.2883,0.0,3.4103,3.3523,3.3679,3.382,3.3802,3.3696,3.4097,3.5221,3.5197,3.5426,3.6137,3.6074,3.5858,3.548,3.5473,3.5427,3.5358,3.5627,3.5732,3.5648,3.5331,3.5542,3.6134,3.5318,3.4972,3.4988,3.476,3.4664,3.4618,3.4678,3.4522,3.4342,3.4797,3.4474,3.3757,3.3697,3.3648,3.3533,2.0371,2.0553,2.067,2.067,2.067,2.067,2.067,2.0568,2.0474,2.0474,2.0753,2.0958,2.0961,2.1438,2.1874,2.2154,2.2198,2.2337,2.2659,2.2938,2.3248,2.3635,2.4253,2.4694,2.4898,2.5168,2.5527,2.5948,2.5948,2.5935,2.5914,2.6277,2.6819,2.7523,2.7617,2.7948,2.8361,2.7775,2.7399,2.7169,2.6902,2.6944,2.7206,2.753,2.7835,2.8174,2.8867,2.9105,2.9264,3.0412,3.0812,3.0879,3.1424,3.2001,3.2493,3.2493,3.3058,3.3696,3.3697,3.427,3.4906,3.5144,3.5618,3.615,3.6764,3.7015,3.7047,3.6855,3.6998,3.6959,3.6355,3.5846,3.5516,3.5372,3.4914,0.0,0.0,3.4351,3.435,3.3962,3.3805,3.3892,3.4347,3.3981,3.4292,3.5608,3.5318,3.5377,3.6083,3.572,3.5496,3.5541,3.5865,3.6041,3.6041,3.6272,3.6651,3.7153,3.6226,3.6293,3.7185,3.6073,3.5519,3.5417,3.5287,3.5064,3.4775,3.4628,3.4465,3.4265,3.4348,3.391,3.3229,3.3428,3.3487,3.3424,2.0658,2.0919,2.1109,2.1109,2.1109,2.1109,2.1109,2.0922,2.0779,2.0805,2.1019,2.1183,2.1193,2.1672,2.2101,2.2491,2.252,2.2689,2.3084,2.3095,2.3404,2.4069,2.4518,2.498,2.558,2.561,2.5777,2.6129,2.6129,2.6164,2.6179,2.6491,2.6976,2.7644,2.7887,2.8188,2.8498,2.8115,2.7711,2.7307,2.6912,2.6902,2.7166,2.7438,2.7763,2.8141,2.8963,2.9196,2.9264,3.0349,3.075,3.0879,3.1347,3.1961,3.2516,3.2639,3.319,3.3869,3.4346,3.4823,3.5296,3.5768,3.6125,3.6537,3.7087,3.7164,3.7109,3.7105,3.7297,3.7293,3.6788,3.6457,3.6253,3.6222,0.0,0.0,0.0,3.4887,3.4665,3.4375,3.4023,3.4058,3.4811,3.435,3.4505,3.5683,3.5375,3.5327,3.5744,3.5327,3.5203,3.5498,3.603,3.6355,3.6438,3.6834,3.7395,3.8124,3.6912,3.6813,3.7654,3.6527,3.5909,3.5692,3.5692,3.5465,3.5065,3.4783,3.45,3.4227,3.4032,3.3458,3.2805,3.3145,3.3256,3.3162,2.0951,2.1077,2.1109,2.1109,2.1109,2.1109,2.1109,2.1089,2.107,2.1067,2.1074,2.113,2.1206,2.123,2.1537,2.2154,2.2213,2.2469,2.3069,2.3091,2.3395,2.4077,2.4734,2.5234,2.558,2.561,2.59,2.6567,2.6567,2.6702,2.7017,2.7052,2.7383,2.7975,2.8002,2.8361,2.8941,2.8517,2.8133,2.7711,2.7325,2.7336,2.7576,2.7926,2.8211,2.8568,2.9431,2.9457,2.9237,3.013,3.0583,3.0853,3.1127,3.1808,3.2583,3.3029,3.3549,3.4097,3.4637,3.4969,3.5429,3.6454,3.6567,3.659,3.7383,3.7328,3.7165,3.7407,3.7661,3.7743,3.7328,3.6612,3.5907,3.5244,0.0,0.0,3.4105,3.4943,3.5404,3.4808,3.5062,3.5197,3.5087,3.519,3.5472,3.5936,3.6115,3.6136,3.599,3.5948,3.5906,3.5864,3.6155,3.6203,3.5951,3.7075,3.7466,3.7108,3.7051,3.6951,3.6785,3.6498,3.6214,3.5968,3.5968,3.5951,3.5879,3.5606,3.5208,3.4754,3.4722,3.4231,3.3529,3.3491,3.3469,3.3473,2.0729,2.0951,2.1109,2.1109,2.1109,2.1109,2.1109,2.0955,2.0864,2.0836,2.1022,2.1157,2.1197,2.1735,2.2165,2.2417,2.2645,2.2945,2.3384,2.3413,2.3632,2.4084,2.4548,2.4949,2.5265,2.5296,2.5625,2.6288,2.6288,2.6571,2.7103,2.7103,2.7427,2.799,2.799,2.8379,2.8957,2.8563,2.8297,2.8151,2.7738,2.7629,2.777,2.8267,2.8547,2.8742,2.9515,2.9695,2.9638,3.0391,3.0724,3.0879,3.1307,3.2119,3.3024,3.3538,3.4081,3.4497,3.4526,3.475,3.5114,3.5878,3.6235,3.6502,3.6953,3.6944,3.6992,3.7413,3.7588,3.7661,3.7668,3.7345,3.6968,3.6553,0.0,3.5851,3.5284,3.5386,3.5245,3.4513,3.4567,3.4681,3.4721,3.4681,3.4982,3.5756,3.5529,3.546,3.5612,3.5385,3.5341,3.5529,3.6119,3.6606,3.7014,3.7679,3.8104,3.8313,3.7834,3.7557,3.7492,3.6863,3.6287,3.574,3.574,3.5466,3.4977,3.4767,3.4457,3.407,3.3738,3.3504,3.3353,3.3464,3.3445,3.334,2.0427,2.0588,2.077,2.1044,2.0955,2.0862,2.0955,2.0728,2.0539,2.056,2.0758,2.0957,2.1017,2.1711,2.2252,2.2425,2.2861,2.3245,2.3574,2.3691,2.3912,2.4244,2.4572,2.4857,2.508,2.5111,2.5388,2.5923,2.616,2.6563,2.71,2.7342,2.7722,2.8185,2.8185,2.8505,2.8966,2.872,2.8507,2.837,2.8105,2.8043,2.8168,2.855,2.8747,2.8896,2.9575,2.9715,2.9678,3.0334,3.0656,3.0853,3.123,3.2336,3.3559,3.4102,3.4565,3.4904,3.4791,3.4781,3.4969,3.5684,3.6139,3.6455,3.6677,3.6718,3.6815,3.7168,3.7307,3.7459,3.7726,3.7408,3.7083,3.7003,3.6591,3.6136,3.5677,3.5589,3.5329,3.4704,3.4712,3.4819,3.4992,3.5094,3.5315,3.5786,3.5653,3.5531,3.5476,3.5145,3.5184,3.5655,3.6306,3.7083,3.798,3.8128,3.8378,3.8717,3.808,3.7699,3.7579,3.697,3.631,3.5596,3.5596,3.5199,3.4506,3.4211,3.4001,3.3754,3.3044,3.2946,3.3212,3.3166,3.3105,3.3056,2.0002,1.9994,2.0066,2.0946,2.059,2.0304,2.0666,2.0421,2.0217,2.0278,2.0296,2.0408,2.0666,2.099,2.1446,2.2045,2.2737,2.3252,2.3581,2.3914,2.4271,2.458,2.4922,2.508,2.5111,2.5111,2.5265,2.561,2.6261,2.6784,2.7103,2.7858,2.8333,2.8592,2.8592,2.8735,2.8984,2.8984,2.8755,2.8397,2.8397,2.8554,2.8779,2.8738,2.8869,2.9158,2.963,2.9487,2.9195,2.98,3.036,3.0812,3.0823,3.2291,3.4118,3.4639,3.5017,3.5265,3.554,3.5205,3.5065,3.6137,3.64,3.6485,3.6722,3.6734,3.6686,3.6686,3.6909,3.7191,3.7459,3.6586,3.5876,3.6079,3.5824,3.5442,3.4903,3.5425,3.5838,3.5627,3.5825,3.6029,3.6088,3.6766,3.6895,3.6153,3.6787,3.6727,3.5656,3.5401,3.5668,3.6471,3.6831,3.7511,3.8602,3.8327,3.8099,3.7893,3.7644,3.7214,3.6686,3.6686,3.6274,3.5596,3.5596,3.5295,3.4762,3.4285,3.41,3.3977,3.2933,3.2782,3.3142,3.2592,3.2482,3.2642,2.0484,2.065,2.0717,2.0808,2.0661,2.0575,2.0692,2.0254,1.993,1.9961,1.9936,2.0062,2.0374,2.109,2.173,2.2143,2.2948,2.3684,2.4272,2.4842,2.4987,2.4626,2.4479,2.461,2.508,2.4857,2.5134,2.5961,2.6385,2.6775,2.7122,2.7581,2.7794,2.7825,2.7825,2.8006,2.8319,2.8537,2.8564,2.8466,2.842,2.8554,2.8779,2.8738,2.8869,2.9158,2.963,2.9715,2.9688,3.0334,3.0884,3.1544,3.3046,3.3973,3.4636,3.543,3.5826,3.6033,3.5918,3.6044,3.6193,3.6124,3.6111,3.6136,3.6226,3.6364,3.6534,3.6675,3.6909,3.7191,3.7459,3.7495,3.732,3.6802,3.6915,3.6752,3.5842,3.6059,3.6221,3.597,3.6021,3.6144,3.6371,3.6571,3.6679,3.6601,3.6645,3.6492,3.5991,3.5905,3.6179,3.6835,3.6951,3.743,3.8304,3.8236,3.8099,3.7893,3.7644,3.7214,3.6698,3.6358,3.6003,3.5596,3.5392,3.4932,3.431,3.4174,3.3779,3.3206,3.2706,3.268,3.2927,3.2902,3.2863,3.2884,2.044,2.0542,2.0633,2.0842,2.0561,2.0368,2.0488,2.0007,1.9633,1.9633,1.9728,1.9914,2.0271,2.1017,2.1679,2.2119,2.3151,2.4087,2.4745,2.5193,2.5217,2.4836,2.4494,2.4479,2.4905,2.4694,2.4949,2.5709,2.6199,2.6606,2.6898,2.7407,2.766,2.7757,2.7757,2.792,2.8208,2.8427,2.8576,2.8698,2.8669,2.8789,2.8961,2.8748,2.882,2.9064,2.9398,2.9507,2.9658,3.0479,3.1217,3.21,3.3919,3.458,3.4852,3.5676,3.6039,3.6224,3.6253,3.6389,3.6463,3.6341,3.6333,3.6228,3.5909,3.6133,3.6428,3.6557,3.6711,3.6898,3.7132,3.7344,3.7322,3.6916,3.7088,3.6989,3.621,3.6349,3.6506,3.6462,3.6462,3.6598,3.7015,3.7038,3.7056,3.7188,3.688,3.663,3.6462,3.6462,3.6677,3.7132,3.7292,3.7634,3.8177,3.8112,3.8067,3.8008,3.7654,3.7214,3.6698,3.6323,3.5908,3.5428,3.5271,3.4835,3.4211,3.4125,3.3679,3.3006,3.2656,3.2752,3.3058,3.2935,3.3035,3.3214,2.0139,2.0057,2.015,2.0919,2.0388,1.9927,2.0164,1.9769,1.9424,1.9395,1.962,1.9918,2.0257,2.0827,2.1438,2.2047,2.3326,2.4367,2.4957,2.5081,2.5069,2.5007,2.4758,2.46,2.4587,2.4584,2.4764,2.5142,2.5897,2.6362,2.6618,2.7351,2.7804,2.8009,2.8009,2.8153,2.8427,2.8427,2.8636,2.8955,2.8948,2.9091,2.924,2.8786,2.8752,2.898,2.9126,2.9199,2.9403,3.0512,3.153,3.2538,3.3884,3.4511,3.491,3.5661,3.5956,3.6108,3.6638,3.6502,3.6292,3.673,3.6851,3.6639,3.5817,3.6065,3.6444,3.637,3.6405,3.6476,3.6675,3.6547,3.6476,3.6658,3.6667,3.6576,3.6288,3.6501,3.6793,3.7054,3.709,3.7299,3.7848,3.7848,3.7821,3.7821,3.7364,3.709,3.709,3.7067,3.7179,3.7452,3.7717,3.7956,3.8167,3.8001,3.7979,3.8145,3.77,3.7214,3.6698,3.6476,3.5954,3.5223,3.5151,3.4823,3.436,3.4138,3.3754,3.3206,3.2706,3.2849,3.3292,3.2787,3.2962,3.3424,2.056,2.0715,2.0801,2.0788,2.0421,2.013,2.019,1.991,1.9649,1.9424,1.962,1.993,2.0252,2.0832,2.1445,2.2114,2.3364,2.4166,2.4305,2.4816,2.4852,2.4338,2.4501,2.46,2.4587,2.4584,2.4888,2.548,2.6176,2.6542,2.6605,2.7306,2.7504,2.7314,2.7314,2.7475,2.7741,2.799,2.8298,2.8609,2.8557,2.885,2.924,2.8833,2.9008,2.9479,2.9723,2.9959,3.0413,3.1908,3.2706,3.3294,3.4703,3.52,3.5414,3.627,3.6657,3.691,3.7307,3.7485,3.7486,3.7198,3.7106,3.6886,3.61,3.6503,3.6837,3.6209,3.6381,3.6651,3.6698,3.6995,3.7242,3.7288,3.7311,3.7341,3.7488,3.7407,3.7416,3.7658,3.7704,3.7756,3.79,3.79,3.7887,3.7887,3.7782,3.7704,3.7704,3.7508,3.7508,3.7785,3.7661,3.7703,3.7956,3.7923,3.7818,3.7654,3.7551,3.7214,3.6698,3.6274,3.5883,3.5476,3.4848,3.442,3.4138,3.3902,3.3481,3.2955,3.2631,3.2425,3.2358,3.2537,3.2571,3.2409,2.0853,2.1002,2.1022,2.0759,2.0428,2.0217,2.0257,1.9992,1.9815,1.9822,2.0068,2.0292,2.0465,2.105,2.1701,2.2336,2.3298,2.3873,2.3873,2.4653,2.4867,2.4348,2.5008,2.5297,2.5124,2.5101,2.5185,2.5357,2.5881,2.6212,2.6358,2.6886,2.7122,2.7103,2.7103,2.7336,2.7741,2.793,2.8298,2.8737,2.8696,2.8846,2.9028,2.8757,2.8954,2.9401,2.976,3.0485,3.1379,3.2534,3.3144,3.3658,3.4836,3.5285,3.5494,3.6086,3.6483,3.6781,3.7089,3.7385,3.7554,3.7424,3.7581,3.7455,3.6281,3.6417,3.6661,3.6113,3.6512,3.6938,3.6938,3.7475,3.7886,3.7711,3.7683,3.7746,3.787,3.768,3.7551,3.768,3.7611,3.7436,3.7204,3.739,3.7459,3.733,3.7459,3.7575,3.7703,3.7588,3.7634,3.7877,3.7749,3.7762,3.79,3.79,3.7831,3.768,3.7551,3.7214,3.6686,3.6203,3.5787,3.5368,3.4677,3.4298,3.4075,3.3803,3.3294,3.2692,3.2544,3.2272,3.196,3.2039,3.2103,3.1998,2.1046,2.1109,2.1036,2.0826,2.0492,2.0298,2.0353,2.0129,2.004,2.027,2.0522,2.0709,2.0795,2.1409,2.2111,2.2732,2.3319,2.3716,2.3776,2.4615,2.4967,2.4714,2.5525,2.5882,2.561,2.5542,2.5429,2.5252,2.5543,2.587,2.6197,2.654,2.6822,2.7103,2.7103,2.7397,2.7921,2.7921,2.8289,2.8925,2.8925,2.8921,2.8919,2.8851,2.9032,2.938,2.9883,3.0926,3.2157,3.279,3.3334,3.3851,3.4785,3.5257,3.5533,3.5797,3.6114,3.6429,3.6646,3.6943,3.7251,3.7542,3.7938,3.7896,3.6522,3.6406,3.6527,3.6265,3.6731,3.7235,3.7384,3.7958,3.8342,3.8148,3.8047,3.8013,3.8114,3.7849,3.7673,3.771,3.7533,3.72,3.6698,3.7015,3.7132,3.6908,3.7019,3.7191,3.7413,3.7436,3.7551,3.7831,3.7831,3.7854,3.79,3.79,3.79,3.79,3.7634,3.7237,3.6745,3.6274,3.5787,3.5223,3.4616,3.4249,3.4075,3.3754,3.322,3.2555,3.2519,3.2218,3.1816,3.1518,3.1592,3.1708,2.1077,2.1109,2.1096,2.1056,2.0811,2.0637,2.0627,2.0605,2.0522,2.0328,2.0522,2.0823,2.1095,2.193,2.2724,2.3413,2.3818,2.4164,2.4448,2.4852,2.5061,2.503,2.5163,2.5215,2.5192,2.5176,2.5418,2.5946,2.6017,2.6197,2.654,2.6882,2.7043,2.7103,2.7103,2.7276,2.7581,2.7581,2.7951,2.8576,2.8576,2.8888,2.9415,2.9624,2.9927,3.0296,3.0885,3.1596,3.2385,3.3219,3.3751,3.4199,3.5063,3.5522,3.5824,3.6141,3.644,3.6646,3.67,3.7128,3.7542,3.7596,3.7661,3.7589,3.7139,3.7251,3.737,3.7084,3.7133,3.7397,3.8121,3.8322,3.8543,3.8976,3.8636,3.8489,3.8957,3.8582,3.8363,3.8607,3.8595,3.8354,3.7747,3.7744,3.7791,3.7731,3.733,3.7108,3.7155,3.7155,3.7284,3.7564,3.7551,3.7657,3.79,3.79,3.79,3.79,3.7634,3.733,3.7038,3.657,3.6062,3.5488,3.4555,3.4125,3.4051,3.3555,3.3156,3.283,3.258,3.2147,3.1591,3.128,3.1123,3.0949,2.1046,2.1109,2.1056,2.0895,2.0791,2.071,2.0688,2.0873,2.0988,2.106,2.1365,2.159,2.1735,2.2261,2.2782,2.3281,2.3451,2.3667,2.4006,2.4533,2.4903,2.5093,2.5478,2.5715,2.5715,2.55,2.5726,2.6371,2.6187,2.6258,2.6609,2.6943,2.7103,2.7103,2.7103,2.7246,2.7491,2.7491,2.79,2.8496,2.8496,2.8785,2.9253,2.9471,2.9781,3.0245,3.1238,3.1999,3.2631,3.3342,3.3681,3.4002,3.5063,3.5478,3.5659,3.6168,3.6375,3.651,3.6646,3.7009,3.737,3.7542,3.7724,3.7794,3.7663,3.7617,3.7511,3.7267,3.7568,3.8054,3.8579,3.8919,3.9133,3.9177,3.9002,3.8875,3.8961,3.8777,3.8606,3.8568,3.8446,3.8246,3.7981,3.7677,3.7571,3.7728,3.7099,3.6828,3.7085,3.6968,3.7062,3.7482,3.7505,3.7634,3.79,3.79,3.7831,3.768,3.7564,3.7366,3.7085,3.6463,3.5954,3.5548,3.4665,3.4211,3.4051,3.353,3.3044,3.2642,3.219,3.1553,3.0879,3.0438,3.0376,3.0428]},{"header":{"parameterUnit":"m.s-1","parameterCategory":1,"la1":30.6,"la2":28.766,"lo1":-90.7593,"lo2":-88.6598,"dy":0.0162,"dx":0.0183,"nx":116,"ny":114,"refTime":"2024-02-11T06:00:00:Z","depth":0,"parameterNumber":3,"parameterNumberName":"V-component_of_WINDS"},"data":[0.0,0.0,0.0,0.0,0.0,0.0,0.0,0.0,0.0,0.0,0.0,0.0,0.0,0.0,0.0,0.0,0.0,0.0,0.0,0.0,0.0,0.0,0.0,0.0,0.0,0.0,0.0,0.0,0.0,0.0,0.0,0.0,0.0,0.0,0.0,0.0,0.0,0.0,0.0,0.0,0.0,0.0,0.0,0.0,0.0,0.0,0.0,0.0,0.0,0.0,0.0,0.0,0.0,0.0,0.0,0.0,0.0,0.0,0.0,0.0,0.0,0.0,0.0,0.0,0.0,0.0,0.0,0.0,0.0,0.0,0.0,0.0,0.0,0.0,0.0,0.0,0.0,0.0,0.0,0.0,0.0,0.0,0.0,0.0,0.0,0.0,0.0,0.0,0.0,0.0,0.0,0.0,0.0,0.0,0.0,0.0,0.0,0.0,0.0,0.0,0.0,0.0,0.0,0.0,0.0,0.0,0.0,0.0,0.0,0.0,0.0,0.0,0.0,0.0,0.0,0.0,0.0,0.0,0.0,0.0,0.0,0.0,0.0,0.0,0.0,0.0,0.0,0.0,0.0,0.0,0.0,0.0,0.0,0.0,0.0,0.0,0.0,0.0,0.0,0.0,0.0,0.0,0.0,0.0,0.0,0.0,0.0,0.0,0.0,0.0,0.0,0.0,0.0,0.0,0.0,0.0,0.0,0.0,0.0,0.0,0.0,0.0,0.0,0.0,0.0,0.0,0.0,0.0,0.0,0.0,0.0,0.0,0.0,0.0,0.0,0.0,0.0,0.0,0.0,0.0,0.0,0.0,0.0,0.0,0.0,0.0,0.0,0.0,0.0,0.0,0.0,0.0,0.0,0.0,0.0,0.0,0.0,0.0,0.0,0.0,0.0,0.0,0.0,0.0,0.0,0.0,0.0,0.0,0.0,0.0,0.0,0.0,0.0,0.0,0.0,0.0,0.0,0.0,0.0,0.0,0.0,0.0,0.0,0.0,0.0,0.0,0.0,0.0,0.0,0.0,0.0,0.0,0.0,0.0,0.0,0.0,0.0,0.0,0.0,0.0,0.0,0.0,0.0,0.0,0.0,0.0,0.0,0.0,0.0,0.0,0.0,0.0,0.0,0.0,0.0,0.0,0.0,0.0,0.0,0.0,0.0,0.0,0.0,0.0,0.0,0.0,0.0,0.0,0.0,0.0,0.0,0.0,0.0,0.0,0.0,0.0,0.0,0.0,0.0,0.0,0.0,0.0,0.0,0.0,0.0,0.0,0.0,0.0,0.0,0.0,0.0,0.0,0.0,0.0,0.0,0.0,0.0,0.0,0.0,0.0,0.0,0.0,0.0,0.0,0.0,0.0,0.0,0.0,0.0,0.0,0.0,0.0,0.0,0.0,0.0,0.0,0.0,0.0,0.0,0.0,0.0,0.0,0.0,0.0,0.0,0.0,0.0,0.0,0.0,0.0,0.0,0.0,0.0,0.0,0.0,0.0,0.0,0.0,0.0,0.0,0.0,0.0,0.0,0.0,0.0,0.0,0.0,0.0,0.0,0.0,0.0,0.0,0.0,0.0,0.0,0.0,0.0,0.0,0.0,0.0,0.0,0.0,0.0,0.0,0.0,0.0,0.0,0.0,0.0,0.0,0.0,0.0,0.0,0.0,0.0,0.0,0.0,0.0,0.0,0.0,0.0,0.0,0.0,0.0,0.0,0.0,0.0,0.0,0.0,0.0,0.0,0.0,0.0,0.0,0.0,0.0,0.0,0.0,0.0,0.0,0.0,0.0,0.0,0.0,0.0,0.0,0.0,0.0,0.0,0.0,0.0,0.0,0.0,0.0,0.0,0.0,0.0,0.0,0.0,0.0,0.0,0.0,0.0,0.0,0.0,0.0,0.0,0.0,0.0,0.0,0.0,0.0,0.0,0.0,0.0,0.0,0.0,0.0,0.0,0.0,0.0,0.0,0.0,0.0,0.0,0.0,0.0,0.0,0.0,0.0,0.0,0.0,0.0,0.0,0.0,0.0,0.0,0.0,0.0,0.0,0.0,0.0,0.0,0.0,0.0,0.0,0.0,0.0,0.0,0.0,0.0,0.0,0.0,0.0,0.0,0.0,0.0,0.0,0.0,0.0,0.0,0.0,0.0,0.0,0.0,0.0,0.0,0.0,0.0,0.0,0.0,0.0,0.0,0.0,0.0,0.0,0.0,0.0,0.0,0.0,0.0,0.0,0.0,0.0,0.0,0.0,0.0,0.0,0.0,0.0,0.0,0.0,0.0,0.0,0.0,0.0,0.0,0.0,0.0,0.0,0.0,0.0,0.0,0.0,0.0,0.0,0.0,0.0,0.0,0.0,0.0,0.0,0.0,0.0,0.0,0.0,0.0,0.0,0.0,0.0,0.0,0.0,0.0,0.0,0.0,0.0,0.0,0.0,0.0,0.0,0.0,0.0,0.0,0.0,0.0,0.0,0.0,0.0,0.0,0.0,0.0,0.0,0.0,0.0,0.0,0.0,0.0,0.0,0.0,0.0,0.0,0.0,0.0,0.0,0.0,0.0,0.0,0.0,0.0,0.0,0.0,0.0,0.0,0.0,0.0,0.0,0.0,0.0,0.0,0.0,0.0,0.0,0.0,0.0,0.0,0.0,0.0,0.0,0.0,0.0,0.0,0.0,0.0,0.0,0.0,0.0,0.0,0.0,0.0,0.0,0.0,0.0,0.0,0.0,0.0,0.0,0.0,0.0,0.0,0.0,0.0,0.0,0.0,0.0,0.0,0.0,0.0,0.0,0.0,0.0,0.0,0.0,0.0,0.0,0.0,0.0,0.0,0.0,0.0,0.0,0.0,0.0,0.0,0.0,0.0,0.0,0.0,0.0,0.0,0.0,0.0,0.0,0.0,0.0,0.0,0.0,0.0,0.0,0.0,0.0,0.0,0.0,0.0,0.0,0.0,0.0,0.0,0.0,0.0,0.0,0.0,0.0,0.0,0.0,0.0,0.0,0.0,0.0,0.0,0.0,0.0,0.0,0.0,0.0,0.0,0.0,0.0,0.0,0.0,0.0,0.0,0.0,0.0,0.0,0.0,0.0,0.0,0.0,0.0,0.0,0.0,0.0,0.0,0.0,0.0,0.0,0.0,0.0,0.0,0.0,0.0,0.0,0.0,0.0,0.0,0.0,0.0,0.0,0.0,0.0,0.0,0.0,0.0,0.0,0.0,0.0,0.0,0.0,0.0,0.0,0.0,0.0,0.0,0.0,0.0,0.0,0.0,0.0,0.0,0.0,0.0,0.0,0.0,0.0,0.0,0.0,0.0,0.0,0.0,0.0,0.0,0.0,0.0,0.0,0.0,0.0,0.0,0.0,0.0,0.0,0.0,0.0,0.0,0.0,0.0,0.0,0.0,0.0,0.0,0.0,0.0,0.0,0.0,0.0,0.0,0.0,0.0,0.0,0.0,0.0,0.0,0.0,0.0,0.0,0.0,0.0,0.0,0.0,0.0,0.0,0.0,0.0,0.0,0.0,0.0,0.0,0.0,0.0,0.0,0.0,0.0,0.0,0.0,0.0,0.0,0.0,0.0,0.0,0.0,0.0,0.0,0.0,0.0,0.0,0.0,0.0,0.0,0.0,0.0,0.0,0.0,0.0,0.0,0.0,0.0,0.0,0.0,0.0,0.0,0.0,0.0,0.0,0.0,0.0,0.0,0.0,0.0,0.0,0.0,0.0,0.0,0.0,0.0,0.0,0.0,0.0,0.0,0.0,0.0,0.0,0.0,0.0,0.0,0.0,0.0,0.0,0.0,0.0,0.0,0.0,0.0,0.0,0.0,0.0,0.0,0.0,0.0,0.0,0.0,0.0,0.0,0.0,0.0,0.0,0.0,0.0,0.0,0.0,0.0,0.0,0.0,0.0,0.0,0.0,0.0,0.0,0.0,0.0,0.0,0.0,0.0,0.0,0.0,0.0,0.0,0.0,0.0,0.0,0.0,0.0,0.0,0.0,0.0,0.0,0.0,0.0,0.0,0.0,0.0,0.0,0.0,0.0,0.0,0.0,0.0,0.0,0.0,0.0,0.0,0.0,0.0,0.0,0.0,0.0,0.0,0.0,0.0,0.0,0.0,0.0,0.0,0.0,0.0,0.0,0.0,0.0,0.0,0.0,0.0,0.0,0.0,0.0,0.0,0.0,0.0,0.0,0.0,0.0,0.0,0.0,0.0,0.0,0.0,0.0,0.0,0.0,0.0,0.0,0.0,0.0,0.0,0.0,0.0,0.0,0.0,0.0,0.0,0.0,0.0,0.0,0.0,0.0,0.0,0.0,0.0,0.0,0.0,0.0,0.0,0.0,0.0,0.0,0.0,0.0,0.0,0.0,0.0,0.0,0.0,0.0,0.0,0.0,0.0,0.0,0.0,0.0,0.0,0.0,0.0,0.0,0.0,0.0,0.0,0.0,0.0,0.0,0.0,0.0,0.0,0.0,0.0,0.0,0.0,0.0,0.0,0.0,0.0,0.0,0.0,0.0,0.0,0.0,0.0,0.0,0.0,0.0,0.0,0.0,0.0,0.0,0.0,0.0,0.0,0.0,0.0,0.0,0.0,0.0,0.0,0.0,0.0,0.0,0.0,0.0,0.0,0.0,0.0,0.0,0.0,0.0,0.0,0.0,0.0,0.0,0.0,0.0,0.0,0.0,0.0,0.0,0.0,0.0,0.0,0.0,0.0,0.0,0.0,0.0,0.0,0.0,0.0,0.0,0.0,0.0,0.0,0.0,0.0,0.0,0.0,0.0,0.0,0.0,0.0,0.0,0.0,0.0,0.0,0.0,0.0,0.0,0.0,0.0,0.0,0.0,0.0,0.0,0.0,0.0,0.0,0.0,0.0,0.0,0.0,0.0,0.0,0.0,0.0,0.0,0.0,0.0,0.0,0.0,0.0,0.0,0.0,0.0,0.0,0.0,0.0,0.0,0.0,0.0,0.0,0.0,0.0,0.0,0.0,0.0,0.0,0.0,0.0,0.0,0.0,0.0,0.0,0.0,0.0,0.0,0.0,0.0,0.0,0.0,0.0,0.0,0.0,0.0,0.0,0.0,0.0,0.0,0.0,0.0,0.0,0.0,0.0,0.0,0.0,0.0,0.0,0.0,0.0,0.0,0.0,0.0,0.0,0.0,0.0,0.0,0.0,0.0,0.0,0.0,0.0,0.0,0.0,0.0,0.0,0.0,0.0,0.0,0.0,0.0,0.0,0.0,0.0,0.0,0.0,0.0,0.0,0.0,0.0,0.0,0.0,0.0,0.0,0.0,0.0,0.0,0.0,0.0,0.0,0.0,0.0,0.0,0.0,0.0,0.0,0.0,0.0,0.0,0.0,0.0,0.0,0.0,0.0,0.0,0.0,0.0,0.0,0.0,0.0,0.0,0.0,0.0,0.0,0.0,0.0,0.0,0.0,0.0,0.0,0.0,0.0,0.0,0.0,0.0,0.0,0.0,0.0,0.0,0.0,0.0,0.0,0.0,0.0,0.0,0.0,0.0,0.0,0.0,0.0,0.0,0.0,0.0,0.0,0.0,0.0,0.0,0.0,0.0,0.0,0.0,0.0,0.0,0.0,0.0,0.0,0.0,0.0,0.0,0.0,0.0,0.0,0.0,0.0,0.0,0.0,0.0,0.0,0.0,0.0,0.0,0.0,0.0,0.0,0.0,0.0,0.0,0.0,0.0,0.0,0.0,0.0,0.0,0.0,0.0,0.0,0.0,0.0,0.0,0.0,0.0,0.0,0.0,0.0,0.0,0.0,0.0,0.0,0.0,0.0,0.0,0.0,0.0,0.0,0.0,0.0,0.0,0.0,0.0,0.0,0.0,0.0,0.0,0.0,0.0,0.0,0.0,0.0,0.0,0.0,0.0,0.0,0.0,0.0,0.0,0.0,0.0,0.0,0.0,0.0,0.0,0.0,0.0,0.0,0.0,0.0,0.0,0.0,0.0,0.0,0.0,0.0,0.0,0.0,0.0,0.0,0.0,0.0,0.0,0.0,0.0,0.0,0.0,0.0,0.0,0.0,0.0,0.0,0.0,0.0,0.0,0.0,0.0,0.0,0.0,0.0,0.0,0.0,0.0,2.1657,0.0,0.0,0.0,0.0,0.0,0.0,0.0,0.0,0.0,0.0,0.0,0.0,0.0,0.0,0.0,0.0,0.0,0.0,0.0,0.0,0.0,0.0,0.0,0.0,0.0,0.0,0.0,2.2098,2.1483,2.2153,2.0764,2.0068,2.0453,2.0534,2.0586,2.0583,2.0532,2.111,2.23,2.138,2.1736,2.3218,2.2363,2.1567,2.079,0.0,0.0,0.0,0.0,0.0,0.0,0.0,0.0,0.0,0.0,0.0,0.0,0.0,0.0,0.0,0.0,0.0,0.0,0.0,0.0,0.0,0.0,0.0,0.0,0.0,0.0,0.0,0.0,0.0,0.0,0.0,0.0,0.0,0.0,0.0,0.0,0.0,0.0,0.0,0.0,0.0,0.0,0.0,0.0,0.0,0.0,0.0,0.0,0.0,0.0,0.0,0.0,0.0,0.0,0.0,0.0,0.0,0.0,0.0,0.0,0.0,0.0,0.0,0.0,0.0,0.0,0.0,0.0,0.0,0.0,0.0,2.3034,0.0,0.0,0.0,0.0,0.0,0.0,0.0,0.0,0.0,0.0,0.0,0.0,0.0,0.0,0.0,0.0,0.0,0.0,0.0,0.0,0.0,0.0,0.0,2.3366,2.3242,2.3998,2.2575,2.197,2.2664,2.1793,2.1291,2.1419,2.1419,2.1429,2.1449,2.1578,2.2425,2.4033,2.3888,2.4586,2.6068,2.6927,2.6595,0.0,0.0,0.0,0.0,0.0,0.0,0.0,0.0,0.0,0.0,0.0,0.0,0.0,0.0,0.0,0.0,0.0,0.0,0.0,0.0,0.0,0.0,0.0,0.0,0.0,0.0,0.0,0.0,0.0,0.0,0.0,0.0,0.0,0.0,0.0,0.0,0.0,0.0,0.0,0.0,0.0,0.0,0.0,0.0,0.0,0.0,0.0,0.0,0.0,0.0,0.0,0.0,0.0,0.0,0.0,0.0,0.0,0.0,0.0,0.0,0.0,0.0,0.0,0.0,0.0,2.8518,2.8847,2.8937,2.9957,3.026,2.9841,2.757,2.6597,2.6423,0.0,0.0,0.0,0.0,0.0,0.0,0.0,0.0,0.0,0.0,0.0,0.0,0.0,0.0,0.0,0.0,0.0,0.0,0.0,0.0,0.0,0.0,2.4457,2.5041,2.58,2.4393,2.3712,2.4343,2.2486,2.166,2.2309,2.2321,2.2386,2.2506,2.3073,2.4169,2.5769,2.8228,2.9991,3.1073,3.2407,3.2935,3.2555,0.0,0.0,0.0,0.0,0.0,0.0,0.0,0.0,0.0,0.0,0.0,0.0,0.0,0.0,0.0,0.0,0.0,0.0,0.0,0.0,0.0,0.0,0.0,0.0,0.0,0.0,0.0,0.0,0.0,0.0,0.0,0.0,0.0,0.0,0.0,0.0,0.0,0.0,0.0,0.0,0.0,0.0,0.0,0.0,2.324,2.3417,0.0,0.0,0.0,0.0,0.0,0.0,0.0,0.0,0.0,0.0,0.0,0.0,0.0,2.7593,2.7965,3.0063,3.0978,3.0694,3.236,3.2532,3.1393,3.3261,3.3713,3.3051,3.3829,0.0,2.8489,2.6757,0.0,0.0,0.0,0.0,0.0,0.0,0.0,0.0,0.0,0.0,0.0,0.0,0.0,0.0,0.0,0.0,0.0,0.0,0.0,0.0,0.0,2.6738,2.7311,2.7686,2.7804,2.7218,2.576,2.5068,2.4253,2.3216,2.3212,2.3465,2.3988,2.4685,2.6303,2.8856,3.2495,3.4204,3.4117,3.5643,3.629,3.6064,3.3557,3.1388,2.9429,2.6486,0.0,0.0,0.0,0.0,0.0,0.0,0.0,0.0,0.0,0.0,0.0,0.0,0.0,0.0,0.0,0.0,0.0,0.0,0.0,0.0,0.0,0.0,0.0,0.0,0.0,0.0,0.0,0.0,0.0,0.0,0.0,0.0,0.0,0.0,0.0,0.0,0.0,0.0,0.0,2.3725,2.5035,2.4807,2.4916,2.4806,0.0,0.0,0.0,0.0,0.0,0.0,0.0,0.0,0.0,2.9508,3.0514,3.1124,3.1306,3.271,3.3411,3.3459,3.4391,3.4835,3.4851,3.5748,3.6125,3.6101,3.6562,3.5532,3.3291,3.0792,2.8974,2.7639,0.0,0.0,0.0,0.0,2.5838,2.5845,0.0,0.0,0.0,0.0,0.0,0.0,0.0,0.0,0.0,0.0,0.0,0.0,2.8153,2.9003,2.9643,3.0081,3.0691,3.0141,2.8009,2.7339,2.6291,2.4694,2.4282,2.4472,2.5284,2.6868,2.93,3.2595,3.5863,3.7313,3.7039,3.8392,3.8913,3.8726,3.8726,3.6708,3.3085,3.0021,2.7765,0.0,0.0,0.0,0.0,0.0,0.0,0.0,0.0,0.0,0.0,0.0,0.0,0.0,0.0,0.0,0.0,0.0,0.0,0.0,0.0,0.0,0.0,0.0,0.0,0.0,0.0,0.0,0.0,0.0,0.0,0.0,0.0,0.0,0.0,0.0,0.0,0.0,0.0,2.5586,2.6871,2.6555,2.7096,2.7279,0.0,0.0,0.0,0.0,0.0,0.0,3.1114,3.1844,3.2439,3.2881,3.3699,3.4097,3.4069,3.4733,3.5245,3.5585,3.5692,3.6291,3.7284,3.7453,3.7879,3.8455,3.8473,3.8309,3.78,3.4478,3.2361,3.1045,2.9365,2.8269,2.776,2.8629,2.8679,2.8595,0.0,0.0,0.0,0.0,0.0,0.0,0.0,0.0,0.0,0.0,0.0,2.8355,2.9916,3.0791,3.1823,3.3236,3.2032,3.1362,3.1779,2.8327,2.6513,2.7085,2.5725,2.532,2.612,2.9988,3.36,3.689,3.7802,3.9039,4.0555,4.1207,4.1515,4.1505,4.1505,3.995,3.714,3.469,3.27,3.0891,0.0,0.0,0.0,0.0,0.0,0.0,0.0,0.0,0.0,0.0,0.0,0.0,0.0,0.0,0.0,0.0,0.0,0.0,0.0,0.0,0.0,0.0,0.0,0.0,0.0,0.0,0.0,0.0,0.0,0.0,0.0,0.0,0.0,0.0,0.0,0.0,0.0,0.0,0.0,2.9017,3.0225,0.0,0.0,0.0,0.0,3.2402,3.2678,3.3636,3.5561,3.524,3.5181,3.5588,3.577,3.5771,3.5591,3.6259,3.66,3.6615,3.6508,3.6815,3.7507,3.8138,3.8898,3.9744,4.0377,4.0741,4.0625,3.7075,3.5272,3.4592,3.3093,3.2578,3.2571,3.1995,3.2163,3.2618,0.0,0.0,0.0,0.0,0.0,0.0,0.0,0.0,2.5565,2.5782,2.7889,3.0018,3.1691,3.3947,3.5365,3.5466,3.615,3.5629,3.3278,3.0765,2.9461,2.9733,2.7761,2.8021,3.0897,3.404,3.6413,3.7971,3.9798,4.0966,4.1513,4.213,4.2418,4.2466,4.2342,4.1507,4.0012,3.7638,3.5302,3.3003,3.0573,2.795,0.0,0.0,0.0,0.0,0.0,0.0,0.0,0.0,0.0,0.0,0.0,0.0,0.0,0.0,0.0,0.0,0.0,0.0,0.0,0.0,0.0,0.0,0.0,0.0,0.0,0.0,0.0,0.0,0.0,0.0,0.0,0.0,0.0,0.0,0.0,0.0,0.0,3.0512,3.2398,0.0,3.2296,3.3334,3.433,3.4942,3.5862,3.6753,3.7567,3.7742,3.7947,3.8167,3.7729,3.7448,3.7371,3.7153,3.6983,3.6908,3.7281,3.7809,3.8493,3.9207,3.9923,4.0642,4.0891,4.1034,4.1005,3.9726,3.8593,3.7528,3.6446,3.5844,3.5486,3.482,3.4727,3.4821,0.0,0.0,0.0,0.0,0.0,0.0,0.0,0.0,2.6257,2.7061,2.9488,3.1887,3.3801,3.6383,3.7886,3.7628,3.8622,3.8018,3.5064,3.2782,3.154,3.1561,3.0311,3.1241,3.4714,3.7019,3.8621,3.9512,4.1148,4.2077,4.2314,4.2674,4.2899,4.2985,4.2842,4.2496,4.1965,4.0709,3.849,3.5653,3.4019,3.1926,2.9465,0.0,0.0,0.0,0.0,0.0,0.0,0.0,0.0,0.0,0.0,0.0,0.0,0.0,0.0,0.0,0.0,0.0,0.0,0.0,0.0,0.0,0.0,0.0,0.0,0.0,0.0,0.0,0.0,0.0,0.0,0.0,0.0,0.0,0.0,0.0,3.24,3.2941,3.5134,3.6232,3.5247,3.6497,3.7639,3.8248,3.8822,3.9503,4.0309,4.0008,3.9961,4.0293,3.9391,3.8871,3.8809,3.8023,3.768,3.7778,3.7935,3.8513,3.9451,3.9902,4.0528,4.1271,4.1271,4.1271,4.1287,4.1388,4.0902,3.9942,3.8884,3.8152,3.7623,3.7201,3.6763,3.6233,0.0,0.0,0.0,0.0,0.0,0.0,0.0,2.5273,2.7185,2.7987,3.0988,3.3882,3.6159,3.7924,3.9175,3.976,3.9066,3.8204,3.7252,3.4196,3.2449,3.2559,3.3362,3.487,3.716,3.8761,4.029,4.1723,4.1869,4.235,4.3104,4.2966,4.3022,4.3214,4.3169,4.3058,4.2983,4.3903,4.2339,3.9086,3.7354,3.6259,3.5101,0.0,0.0,0.0,0.0,0.0,0.0,0.0,0.0,0.0,0.0,0.0,0.0,0.0,0.0,0.0,0.0,0.0,0.0,0.0,0.0,0.0,0.0,0.0,0.0,0.0,0.0,0.0,0.0,0.0,0.0,0.0,0.0,0.0,3.2,3.4051,3.5675,3.6302,3.8422,3.9335,3.8039,3.9279,4.0779,4.2317,4.147,4.1804,4.3905,4.2026,4.1215,4.1914,4.0767,4.0048,3.9847,3.8978,3.8808,3.9314,3.8498,3.8889,4.0319,4.0203,4.0694,4.1621,4.1621,4.1621,4.1638,4.1964,4.2013,4.1769,4.0403,3.9552,3.909,3.9138,3.8263,3.6967,0.0,0.0,0.0,0.0,0.0,0.0,0.0,2.5616,2.7141,2.7793,3.1344,3.4481,3.6288,3.8402,3.9768,3.9937,3.9075,3.8165,3.7329,3.426,3.3015,3.4261,3.6698,3.8632,3.9979,4.0956,4.1688,4.2133,4.272,4.3121,4.3384,4.3196,4.3223,4.3437,4.3862,4.3752,4.3305,4.4062,4.3469,4.196,4.07,3.8987,3.6842,0.0,0.0,0.0,0.0,0.0,0.0,0.0,0.0,0.0,0.0,0.0,0.0,0.0,0.0,0.0,0.0,0.0,0.0,0.0,0.0,0.0,0.0,0.0,0.0,0.0,0.0,0.0,0.0,0.0,0.0,0.0,0.0,3.3759,3.3377,3.5144,3.6933,3.8133,3.9744,4.0606,4.0238,4.1022,4.1949,4.2911,4.2847,4.3184,4.4172,4.3279,4.2783,4.2844,4.1517,4.0844,4.089,4.0063,3.9777,4.0029,4.0179,4.0467,4.0912,4.1342,4.1708,4.1964,4.1964,4.1964,4.1964,4.2061,4.2077,4.1997,4.1513,4.1291,4.1182,4.0563,3.9439,3.8172,0.0,0.0,0.0,0.0,0.0,0.0,0.0,2.5231,2.6853,2.8254,3.1465,3.45,3.675,3.8213,3.9157,3.9438,3.8923,3.7934,3.6435,3.4951,3.4885,0.0,0.0,4.0679,4.158,4.2303,4.2688,4.2722,4.3146,4.3558,4.3967,4.3789,4.3971,4.4472,4.451,4.4483,4.4409,4.4501,4.4401,4.4144,4.3531,4.2166,4.0212,3.7298,3.6305,3.6075,3.332,3.2771,3.3176,3.2044,0.0,0.0,0.0,0.0,0.0,0.0,0.0,0.0,0.0,0.0,0.0,0.0,0.0,0.0,0.0,0.0,0.0,0.0,0.0,0.0,0.0,0.0,0.0,0.0,3.4935,3.6421,3.6554,3.776,3.9109,4.0473,4.1362,4.1847,4.1847,4.2493,4.3186,4.3896,4.4009,4.4299,4.4908,4.4023,4.3492,4.3492,4.2428,4.1894,4.1972,4.1199,4.0959,4.1264,4.1285,4.1433,4.166,4.2045,4.2174,0.0,4.219,4.2174,4.2109,4.2254,4.2302,0.0,0.0,0.0,0.0,0.0,3.9737,3.8934,0.0,0.0,0.0,0.0,0.0,0.0,0.0,2.4524,2.6496,2.8958,3.1457,3.4173,3.7251,3.7576,3.787,3.8525,3.851,3.7555,3.5436,3.6168,0.0,3.9113,4.0446,4.1579,4.244,4.3033,4.3393,4.3493,4.3493,4.3942,4.4766,4.4666,4.5031,4.5819,4.525,4.5315,4.5801,4.5241,4.5242,4.5641,4.5641,4.5146,4.4057,4.0881,4.0545,4.1246,3.7371,3.6426,3.6682,3.4506,0.0,0.0,0.0,0.0,0.0,0.0,0.0,0.0,0.0,0.0,0.0,0.0,0.0,0.0,0.0,0.0,0.0,0.0,0.0,0.0,0.0,0.0,0.0,0.0,3.7391,3.8838,4.0428,4.1045,4.1734,4.283,4.293,4.293,4.293,4.3517,4.4185,4.4854,4.4886,4.5112,4.5711,0.0,0.0,0.0,0.0,4.2961,4.2961,4.2308,4.2215,4.2679,4.2062,4.2019,4.2476,4.2476,4.2365,4.2222,4.2397,4.2381,4.2206,4.2523,4.2665,4.2634,4.2333,4.1916,4.1348,4.022,3.979,3.9661,0.0,0.0,0.0,0.0,0.0,0.0,0.0,2.4492,2.6453,2.8829,3.1433,3.4023,3.6542,3.6853,3.716,3.784,3.731,3.6996,3.7165,0.0,3.9154,4.0846,4.1696,4.2556,4.3488,4.3523,4.392,4.467,4.467,4.5059,4.5799,4.5842,4.5926,4.6075,4.6633,4.6569,4.6075,4.6571,4.6425,4.5847,4.5847,4.555,4.4958,4.3643,4.3237,4.3071,4.0906,4.0986,4.19,4.0684,3.9305,3.8008,3.7639,0.0,0.0,0.0,0.0,0.0,0.0,0.0,0.0,0.0,0.0,0.0,0.0,0.0,0.0,0.0,0.0,0.0,0.0,0.0,0.0,3.7521,3.9076,4.0568,4.192,4.2808,4.333,4.331,4.316,4.3067,4.3067,4.3198,4.3574,4.4311,4.4868,4.526,4.5391,4.5097,4.4705,4.4163,4.3598,4.3296,4.3296,4.3148,4.3133,4.3235,0.0,0.0,4.2959,4.2959,4.2928,4.2897,4.2959,4.2882,4.276,4.2929,4.2989,4.3006,4.2928,4.277,4.2513,4.1848,4.1612,4.1483,0.0,0.0,0.0,0.0,0.0,0.0,0.0,2.3514,2.5218,2.7637,2.9877,3.1994,3.3975,3.3833,3.4031,3.5096,3.5237,3.5954,0.0,3.884,4.0285,4.2015,4.2741,4.3336,4.3843,4.418,4.4586,4.5053,4.5441,4.6063,4.6841,4.6823,4.7,4.737,4.7459,4.7432,4.7324,4.6918,4.6911,4.716,4.6691,4.6596,4.661,4.54,4.4791,4.4391,4.3219,4.291,4.2977,4.2481,4.1339,4.0125,4.0,3.7651,3.47,0.0,0.0,0.0,0.0,0.0,0.0,0.0,0.0,0.0,0.0,0.0,0.0,0.0,0.0,3.5345,3.5659,0.0,3.8505,3.993,4.114,4.2111,4.2762,4.3499,4.3881,4.3539,4.3417,4.3357,4.3357,4.3685,4.4,4.4269,4.5087,4.5399,4.5021,4.4988,4.4704,4.407,4.369,4.3509,4.3509,4.3598,4.3598,4.3509,4.3509,4.3417,4.325,4.325,4.3386,4.3653,4.3762,4.3976,4.4225,4.4002,4.3685,4.3357,4.3462,4.3404,4.32,4.2655,4.2389,4.2201,0.0,0.0,0.0,0.0,0.0,0.0,0.0,2.2553,2.4005,2.6491,2.8204,2.9732,3.1188,3.0739,3.09,3.2416,3.3487,0.0,0.0,3.9556,4.1297,4.3229,4.3836,4.4238,4.444,4.5071,4.5498,4.5665,4.6289,4.7023,4.7857,4.7769,4.8058,4.8641,4.8119,4.8175,4.8531,4.7089,4.7268,4.8439,4.7518,4.7571,4.8062,4.6615,4.5858,4.5487,4.4603,4.3678,4.2863,4.2781,4.1981,4.1064,4.123,3.9968,3.8055,3.6016,3.5382,0.0,0.0,0.0,0.0,0.0,0.0,0.0,0.0,0.0,3.4391,3.5127,3.64,3.771,3.8811,3.9783,4.0824,4.2105,4.2843,4.3266,4.3362,4.3829,4.4039,4.3732,4.3702,4.3702,4.3702,4.4231,4.4518,4.4348,4.5185,4.5412,4.483,4.4814,4.4609,4.4158,4.3872,4.3715,4.3702,4.3881,4.3881,4.3702,4.3853,4.3763,4.3539,4.3656,4.396,4.4413,4.4701,4.5159,4.5687,4.5033,4.4432,4.39,4.3916,4.3866,4.3678,4.3186,4.2924,4.2692,0.0,0.0,0.0,0.0,0.0,0.0,0.0,0.0,2.4074,2.6563,2.7769,2.8759,2.9659,2.9678,3.0255,3.1858,0.0,0.0,3.8833,4.0659,4.2663,4.5014,4.5236,4.5648,4.6372,4.6466,4.6895,4.7679,4.7646,4.8054,4.8836,4.8883,4.8896,4.8883,4.8913,4.8862,4.8722,4.7815,4.7892,4.8513,4.7629,4.7683,4.8195,4.7305,4.6824,4.643,4.4851,4.4106,4.3818,4.369,4.2853,4.2122,4.3595,4.2218,4.0007,3.9834,0.0,3.5257,3.4229,3.2942,3.2333,3.4258,3.4045,3.4459,0.0,0.0,3.7594,3.8333,3.9739,4.0633,3.9905,4.1115,4.2396,4.2974,4.3262,4.3518,4.3937,4.416,4.421,4.4068,4.4039,4.4039,4.4039,4.4123,4.4156,4.4142,4.4844,4.5226,4.5156,4.5143,4.5124,4.5068,4.4502,4.4167,4.4039,4.4181,4.4181,4.4039,4.3956,4.3939,4.4041,4.4577,4.4925,4.5113,4.5693,4.6042,4.6164,4.5308,4.5003,4.4955,4.4319,4.414,4.4179,4.39,4.375,4.3704,0.0,0.0,0.0,0.0,0.0,0.0,0.0,0.0,0.0,2.4531,2.5171,2.5572,2.5902,2.6748,2.7768,2.8948,0.0,0.0,3.6976,3.9652,4.2198,4.4651,4.5241,4.588,4.668,4.7204,4.7633,4.8007,4.8407,4.8793,4.9121,4.9148,4.9123,4.9079,4.9131,4.9091,4.8945,4.8521,4.8507,4.8669,4.8182,4.7905,4.762,4.6232,4.5086,4.4198,4.3807,4.2931,0.0,0.0,4.144,4.0592,4.2501,4.1357,3.9385,3.9712,3.845,0.0,3.639,3.5634,0.0,0.0,3.6755,3.7701,4.004,3.9983,3.9759,4.0967,4.1375,4.169,4.2244,4.2871,4.3549,0.0,4.4337,4.4402,4.46,4.4302,4.4061,4.3993,4.3879,4.3923,4.4191,4.4716,4.4841,4.4369,4.4942,4.5391,4.5592,4.5609,4.5566,4.5493,4.5248,4.4793,4.4114,4.4239,4.4457,4.4748,4.4327,4.4578,4.5353,4.4741,4.4844,4.5568,4.7032,4.7264,4.6578,4.6592,4.6329,4.5887,4.5269,4.5072,4.5033,4.438,4.4083,4.4027,0.0,0.0,0.0,0.0,0.0,0.0,0.0,0.0,0.0,0.0,2.3175,2.306,2.3041,2.4269,2.5435,0.0,0.0,0.0,0.0,3.829,4.1411,4.4582,4.526,4.6192,4.7503,4.7869,4.818,4.8447,4.8739,4.8926,4.8955,4.8907,4.891,4.8915,4.8891,4.8872,4.8791,4.8643,4.8444,4.8181,4.7968,4.7434,4.6573,4.4741,4.3097,4.1742,4.1849,4.0748,0.0,0.0,3.8834,3.8026,4.0168,3.9499,3.8151,3.9357,3.9076,3.8216,3.7558,0.0,0.0,3.7715,3.8899,4.0128,4.0571,4.0969,4.1498,4.2355,4.247,4.2756,4.3885,4.421,0.0,4.5104,4.5086,4.4923,4.4718,4.4249,4.3839,4.3607,4.3517,4.3643,4.4133,4.497,4.5202,4.464,4.5001,4.552,4.6167,4.6011,4.5966,4.6115,4.6115,4.5659,4.4673,4.4972,4.5242,4.5431,4.4923,4.5096,4.5847,4.5192,4.544,4.644,4.802,4.8222,4.7471,4.753,4.7212,4.6623,4.6043,4.5668,4.5357,4.4682,4.431,4.4152,0.0,0.0,0.0,0.0,0.0,0.0,0.0,0.0,0.0,0.0,0.0,0.0,0.0,0.0,0.0,0.0,0.0,0.0,0.0,3.7038,4.0653,4.554,4.5789,4.6991,4.9553,4.869,4.8645,4.9555,4.8591,4.8198,4.8317,4.819,4.817,4.822,4.8162,4.8103,4.8023,4.7897,4.738,4.6656,4.6446,4.5889,4.4965,4.3148,4.1472,3.9958,3.8999,0.0,0.0,0.0,3.5106,3.4664,3.6997,3.7011,0.0,3.9853,4.0052,0.0,0.0,0.0,3.8126,3.8798,4.0011,4.1065,4.1082,4.2141,4.2881,4.2009,4.3211,4.4344,4.4143,4.4793,4.5315,4.5217,4.5086,4.4752,4.4035,4.396,4.3678,4.2843,4.2962,4.3322,0.0,4.448,4.4823,4.4789,4.4806,4.5456,4.6884,4.6286,4.6289,4.7136,4.7213,4.6868,4.6054,4.682,4.682,4.6071,4.5793,4.538,4.4895,4.6274,4.7313,4.8044,4.8306,4.8684,4.9044,4.7746,4.719,4.7119,4.6379,4.5561,4.4823,4.4806,4.4581,4.4281,0.0,0.0,0.0,0.0,0.0,0.0,0.0,0.0,0.0,0.0,0.0,0.0,0.0,0.0,0.0,0.0,0.0,0.0,0.0,3.5058,3.8229,4.1606,4.3938,4.5782,4.715,4.7452,4.7747,4.8009,4.7669,4.7537,4.7568,4.7511,4.7494,4.7472,4.7443,4.768,4.8009,4.7351,4.7194,4.7297,4.6001,4.5008,4.4175,4.2936,4.0417,3.7426,0.0,0.0,0.0,0.0,3.3455,3.317,3.5488,0.0,0.0,3.6378,3.838,3.9753,0.0,0.0,4.0998,4.1311,4.2451,4.3348,4.2808,4.3062,4.3308,4.2982,4.302,4.323,4.3635,4.4376,4.4896,4.4763,4.5183,4.5239,4.4406,4.4383,4.3937,4.2543,4.3343,0.0,0.0,0.0,0.0,4.5073,4.5442,4.5983,4.6694,4.6881,4.7093,4.7392,4.7423,4.6987,4.6116,4.6372,4.6598,4.684,4.7384,4.6928,4.5708,4.7344,4.7937,4.7769,4.8714,4.9005,4.8795,4.8765,4.8719,4.8614,4.7466,4.676,4.6274,4.5378,4.4937,4.4731,0.0,0.0,0.0,0.0,0.0,0.0,0.0,0.0,0.0,0.0,0.0,0.0,0.0,0.0,0.0,0.0,0.0,0.0,0.0,0.0,3.5171,3.8309,4.0235,4.1879,4.329,4.329,4.37,4.4587,4.4542,4.4844,4.5494,4.5756,4.588,4.5853,4.5805,4.6022,4.6409,4.6023,4.5783,4.553,4.405,4.2766,4.1552,4.0067,3.7461,0.0,0.0,0.0,0.0,0.0,3.1454,3.1588,3.3306,3.4018,3.4435,3.5519,3.8035,4.0482,0.0,4.1492,4.2735,4.3119,4.4109,4.4691,4.3547,4.3751,4.3908,4.2963,4.2661,4.2696,4.3096,4.3565,4.4038,4.4503,4.5002,4.5145,4.4588,4.4665,4.4256,4.2871,4.359,0.0,0.0,0.0,0.0,4.5186,4.587,4.6357,4.6548,4.7534,4.7817,4.7269,4.7824,4.7572,4.6354,4.6667,4.6866,4.6961,4.7556,4.7267,4.622,4.7917,4.8392,4.7957,4.8933,4.9208,4.9007,4.9184,4.924,4.9135,4.8017,4.7291,4.6736,4.5613,4.5127,4.4981,0.0,0.0,0.0,0.0,0.0,0.0,0.0,0.0,0.0,0.0,0.0,0.0,0.0,0.0,0.0,0.0,0.0,0.0,0.0,0.0,0.0,3.5709,3.5158,3.5915,3.8386,3.6804,3.7165,3.9651,3.9552,4.0395,4.2099,4.2837,4.3215,4.3277,4.3158,4.3112,4.3193,4.3783,4.3105,4.1539,4.0561,3.9184,3.7421,3.5022,0.0,0.0,0.0,0.0,0.0,0.0,0.0,0.0,0.0,0.0,3.6577,3.7142,3.9026,4.1077,4.1807,4.2604,4.3401,4.4169,4.4902,4.5009,4.3352,4.4139,4.4493,4.1889,4.2078,4.266,0.0,0.0,4.2857,4.4329,4.455,4.4522,4.4522,4.4774,4.4623,0.0,0.0,0.0,0.0,0.0,0.0,4.5232,0.0,4.6568,4.6571,4.8155,4.8397,4.6966,4.8468,4.852,4.688,4.7659,4.754,4.6571,4.6585,4.6552,4.6502,4.81,4.8778,4.8704,4.9034,4.9389,4.9686,4.9074,4.8821,4.8752,4.7958,4.7114,4.6261,4.5505,4.5154,4.5032,0.0,0.0,0.0,0.0,0.0,0.0,0.0,0.0,0.0,0.0,0.0,0.0,0.0,0.0,0.0,0.0,0.0,0.0,0.0,0.0,0.0,0.0,0.0,0.0,0.0,0.0,0.0,0.0,0.0,3.7351,3.7862,3.8601,3.8967,3.898,3.8895,3.9197,3.9717,3.92,3.9058,3.9002,0.0,3.5982,3.5873,0.0,0.0,0.0,0.0,0.0,0.0,0.0,0.0,0.0,0.0,3.5321,3.7399,3.756,3.9919,4.2452,4.2147,4.3416,4.4855,4.5067,4.4861,4.449,4.4031,4.3353,4.2407,4.1081,4.0574,4.0289,0.0,0.0,0.0,4.2851,4.4092,0.0,4.4801,4.543,0.0,0.0,0.0,4.5374,4.4904,4.5893,0.0,0.0,4.5982,4.6504,4.7628,4.8103,4.8447,4.8655,4.9079,4.88,4.7786,4.7434,4.7421,4.768,4.7787,4.8074,4.8542,4.9079,4.9497,4.9795,4.9979,5.0055,5.0019,4.9416,4.9174,4.9035,4.7702,4.7033,4.6729,4.5949,4.5563,4.5446,0.0,0.0,0.0,0.0,0.0,0.0,0.0,0.0,0.0,0.0,0.0,0.0,0.0,0.0,0.0,0.0,0.0,0.0,0.0,0.0,0.0,0.0,0.0,0.0,0.0,0.0,0.0,0.0,0.0,0.0,0.0,3.4893,3.5448,3.5774,3.571,3.5934,3.6316,0.0,0.0,0.0,0.0,0.0,0.0,0.0,0.0,0.0,0.0,0.0,0.0,0.0,0.0,3.4845,3.5758,3.7304,3.8869,3.9191,0.0,4.3241,4.2825,4.3899,4.5123,4.5067,4.4736,4.4256,4.3581,4.2445,4.109,3.9525,3.8878,0.0,0.0,0.0,0.0,0.0,0.0,0.0,4.4919,4.5669,4.5863,0.0,4.5713,0.0,4.5691,4.6685,4.7382,0.0,4.7411,4.7522,4.7779,4.8771,4.9199,4.8874,4.9255,4.9103,4.8321,4.7272,4.7267,4.833,4.8365,4.8745,4.9406,4.9806,5.0094,5.0302,0.0,5.0411,5.0268,4.9935,4.9771,4.9667,4.8483,4.7791,4.7391,4.6608,4.6052,4.568,0.0,0.0,0.0,0.0,0.0,0.0,0.0,0.0,0.0,0.0,0.0,0.0,0.0,0.0,0.0,0.0,0.0,0.0,0.0,0.0,0.0,0.0,0.0,0.0,0.0,0.0,0.0,0.0,0.0,0.0,0.0,0.0,0.0,0.0,0.0,0.0,0.0,0.0,0.0,0.0,0.0,0.0,0.0,0.0,0.0,0.0,0.0,0.0,0.0,0.0,3.4894,3.5744,3.7589,3.9202,4.0514,4.1138,4.2388,4.3555,4.3397,4.3974,4.4564,4.435,4.4232,4.3814,4.2458,4.1369,4.0019,3.7847,0.0,0.0,3.6225,0.0,3.9604,4.0613,0.0,4.4126,4.5081,4.5731,4.6172,4.6381,4.6511,4.6629,4.6749,4.7466,4.8213,4.8868,4.9327,4.9035,4.7791,4.9578,4.9916,4.84,4.9249,4.9381,4.8655,4.7261,4.7308,4.8804,4.8612,4.8951,4.9762,5.0373,5.0561,5.0453,0.0,0.0,5.0408,5.0244,5.0241,5.0227,4.9478,4.8763,4.8067,4.7331,4.6603,4.596,0.0,0.0,0.0,0.0,0.0,0.0,0.0,0.0,0.0,0.0,2.4167,2.3385,0.0,0.0,0.0,0.0,0.0,0.0,0.0,0.0,0.0,0.0,0.0,0.0,0.0,0.0,0.0,0.0,0.0,0.0,0.0,0.0,0.0,0.0,0.0,0.0,0.0,0.0,0.0,0.0,0.0,0.0,0.0,0.0,0.0,0.0,0.0,0.0,0.0,0.0,3.5957,3.8735,3.906,4.0176,4.1357,4.1387,4.2438,4.3429,4.2711,4.31,4.3557,4.2868,4.2277,4.1771,4.1397,3.974,0.0,0.0,0.0,3.5607,3.604,3.7461,0.0,4.1414,0.0,0.0,0.0,0.0,4.5758,0.0,0.0,0.0,0.0,0.0,0.0,0.0,0.0,4.9835,4.9493,4.9277,4.9004,4.8636,4.9432,4.9532,4.8851,4.7876,4.8224,4.9844,4.9038,4.9483,5.0981,5.0884,5.0815,5.0686,5.0233,0.0,5.0484,4.9438,4.9324,4.9736,4.8951,4.8583,4.8421,4.7615,4.7183,4.6871,0.0,0.0,0.0,0.0,0.0,0.0,0.0,2.3884,2.5533,2.7188,2.7064,2.6499,2.5627,2.4098,0.0,0.0,0.0,0.0,0.0,0.0,0.0,0.0,0.0,0.0,0.0,0.0,0.0,0.0,0.0,0.0,0.0,0.0,0.0,0.0,0.0,0.0,0.0,0.0,0.0,0.0,0.0,0.0,0.0,0.0,0.0,0.0,0.0,0.0,0.0,0.0,3.5067,3.7869,3.8944,4.0384,4.1612,4.1403,4.2219,4.3052,4.2466,4.2655,4.2813,4.1907,4.1435,4.0865,3.9576,0.0,0.0,0.0,0.0,3.4548,3.4443,0.0,0.0,0.0,0.0,0.0,0.0,0.0,0.0,0.0,0.0,0.0,0.0,0.0,0.0,0.0,0.0,4.9854,4.9307,4.926,4.9296,4.933,4.9713,4.9713,4.9325,4.8625,4.9106,5.0709,4.9777,5.0045,5.1389,5.1048,5.0725,5.0405,4.9969,0.0,5.0184,4.9499,4.9657,5.029,4.9908,4.9276,4.8556,4.817,4.7447,4.6618,0.0,0.0,0.0,0.0,0.0,0.0,0.0,2.5838,2.779,2.918,2.9607,2.9278,2.7951,2.5115,2.3066,0.0,0.0,0.0,0.0,0.0,0.0,0.0,0.0,0.0,0.0,0.0,0.0,0.0,0.0,0.0,0.0,0.0,0.0,0.0,0.0,0.0,0.0,0.0,0.0,0.0,0.0,0.0,0.0,0.0,0.0,0.0,0.0,0.0,0.0,0.0,3.3423,3.5366,3.7525,3.9579,4.1152,4.091,4.163,4.2442,4.2179,4.2199,4.2052,4.1108,4.0622,3.9836,3.7809,3.6604,0.0,0.0,0.0,3.375,3.3421,0.0,0.0,0.0,0.0,0.0,0.0,0.0,0.0,0.0,0.0,0.0,0.0,0.0,0.0,0.0,0.0,0.0,4.8799,4.9414,4.9709,4.9507,4.9979,4.9958,4.9382,4.926,4.9827,5.1067,5.0129,5.0309,5.1423,5.0709,5.0268,5.0031,4.9489,0.0,0.0,4.9512,4.9947,5.0658,5.0834,5.0153,4.9047,4.8714,4.7771,4.6653,0.0,0.0,0.0,0.0,0.0,0.0,0.0,2.6134,2.8379,3.1386,3.0561,2.9658,2.9509,2.7376,2.4975,0.0,0.0,0.0,0.0,0.0,0.0,0.0,0.0,0.0,0.0,0.0,0.0,0.0,0.0,0.0,0.0,0.0,0.0,0.0,0.0,0.0,0.0,0.0,0.0,0.0,0.0,0.0,0.0,0.0,0.0,0.0,0.0,0.0,0.0,0.0,0.0,3.2102,3.4259,3.7091,3.9587,3.9436,0.0,0.0,4.1484,4.1357,4.107,4.0361,3.9091,3.7757,3.6738,0.0,0.0,0.0,3.3517,3.3411,3.4665,3.5714,0.0,0.0,0.0,0.0,0.0,0.0,0.0,0.0,0.0,0.0,0.0,0.0,0.0,0.0,0.0,0.0,4.8979,4.9675,4.9477,4.8205,5.0229,5.038,4.836,4.9551,5.0249,5.0373,4.9437,4.9811,5.1258,4.9512,4.9161,4.9831,4.8413,0.0,0.0,4.8742,4.9186,4.9886,5.0606,5.0816,5.0504,4.9052,4.842,4.8087,0.0,0.0,0.0,0.0,0.0,0.0,2.586,2.6849,2.8666,3.2445,3.1938,3.1186,3.1157,2.8646,2.5894,2.3242,0.0,0.0,0.0,0.0,0.0,0.0,0.0,0.0,0.0,0.0,0.0,0.0,0.0,0.0,0.0,0.0,0.0,0.0,0.0,0.0,0.0,0.0,0.0,0.0,0.0,0.0,0.0,0.0,0.0,0.0,0.0,0.0,0.0,0.0,0.0,0.0,3.1452,3.3596,0.0,0.0,3.8923,3.9761,4.1006,4.0966,4.0462,4.0081,3.8802,3.7292,3.5979,0.0,0.0,3.3479,3.3156,3.3289,3.4305,3.4682,3.5492,0.0,0.0,0.0,0.0,0.0,0.0,0.0,0.0,0.0,0.0,0.0,0.0,0.0,0.0,0.0,4.8429,4.8604,4.8492,4.8028,4.9251,4.9467,4.8508,4.9621,5.0183,5.0189,5.0208,5.0162,5.0014,4.9462,4.9057,4.8721,4.7941,0.0,0.0,4.8557,4.9132,4.9886,5.0615,5.0606,5.0096,4.9451,4.8626,4.7748,0.0,0.0,0.0,0.0,0.0,2.3577,2.6409,2.7288,2.8828,3.2242,3.2167,3.1777,3.1723,2.8877,2.6313,2.4696,2.3547,0.0,0.0,0.0,0.0,0.0,0.0,0.0,0.0,0.0,0.0,0.0,0.0,0.0,0.0,0.0,0.0,0.0,0.0,0.0,0.0,0.0,0.0,0.0,0.0,0.0,0.0,0.0,0.0,0.0,0.0,0.0,0.0,0.0,0.0,0.0,0.0,0.0,0.0,0.0,3.7298,3.8443,3.9921,4.0062,3.9692,3.9356,3.8059,3.6551,0.0,0.0,3.3635,3.3041,3.294,3.319,3.3904,3.3953,3.4434,0.0,0.0,0.0,0.0,0.0,0.0,0.0,0.0,0.0,0.0,0.0,0.0,0.0,0.0,0.0,0.0,4.7613,4.7719,4.8046,4.8678,4.8728,4.8137,4.9295,4.971,4.9427,4.9942,4.9791,4.9042,4.8831,4.839,4.7806,0.0,0.0,0.0,4.832,4.8966,4.9582,5.0527,5.0553,5.0026,4.978,4.8867,4.7713,0.0,0.0,0.0,0.0,0.0,0.0,2.5567,2.7228,2.8905,3.0617,3.0827,3.0803,3.0804,2.7875,2.6228,2.7005,2.347,0.0,0.0,0.0,0.0,0.0,0.0,0.0,0.0,0.0,0.0,0.0,0.0,0.0,0.0,0.0,0.0,0.0,0.0,0.0,0.0,0.0,0.0,0.0,0.0,0.0,0.0,0.0,0.0,0.0,0.0,0.0,0.0,0.0,0.0,0.0,0.0,0.0,0.0,0.0,3.5558,3.7916,3.8003,3.8429,3.8648,3.799,3.6505,3.5034,0.0,0.0,3.29,3.29,3.29,3.31,3.3786,3.3911,3.4435,3.6034,0.0,0.0,0.0,0.0,0.0,0.0,0.0,0.0,0.0,0.0,0.0,0.0,0.0,0.0,0.0,4.7009,4.7366,4.8181,4.8913,4.8497,4.6843,4.8479,4.8816,4.7829,4.7968,4.8273,4.8647,4.7121,4.6796,0.0,0.0,0.0,0.0,4.7876,4.8508,4.8666,5.0276,5.0887,5.0799,4.9991,4.9236,4.8468,0.0,0.0,0.0,0.0,0.0,0.0,0.0,2.5777,2.6573,2.8792,2.8605,2.868,2.9793,2.7511,2.6219,2.7025,2.4456,0.0,0.0,0.0,0.0,0.0,0.0,0.0,0.0,0.0,0.0,0.0,0.0,0.0,0.0,0.0,0.0,0.0,0.0,0.0,0.0,0.0,0.0,0.0,0.0,0.0,0.0,0.0,0.0,0.0,0.0,0.0,0.0,0.0,0.0,0.0,0.0,0.0,0.0,3.1569,3.3545,0.0,3.6785,3.6805,3.6592,3.6791,3.5665,3.4458,3.4215,0.0,3.3129,3.3005,3.2993,3.3235,3.3912,3.3592,3.4125,3.689,3.697,0.0,0.0,0.0,0.0,0.0,0.0,0.0,0.0,0.0,0.0,0.0,0.0,0.0,0.0,4.7009,4.7082,4.725,4.7388,4.7411,4.7361,4.796,4.8114,4.7811,4.8344,4.8142,4.7261,4.7142,0.0,0.0,0.0,0.0,0.0,4.7625,4.8012,4.8158,4.9547,5.0079,5.0114,5.0412,4.9679,4.849,0.0,0.0,0.0,0.0,0.0,0.0,0.0,2.4447,2.4686,2.6276,2.631,2.6779,2.8428,2.6421,2.5537,2.6947,2.4871,0.0,0.0,0.0,0.0,0.0,0.0,0.0,0.0,0.0,0.0,0.0,0.0,0.0,0.0,0.0,0.0,0.0,0.0,0.0,0.0,0.0,0.0,0.0,0.0,0.0,2.5235,0.0,0.0,0.0,0.0,0.0,0.0,0.0,0.0,0.0,0.0,0.0,0.0,0.0,3.2338,3.4163,0.0,3.5312,3.5267,3.4798,3.4405,0.0,0.0,0.0,0.0,3.2987,3.3018,3.3177,3.3569,3.3231,3.3666,3.6022,3.6157,0.0,0.0,0.0,0.0,0.0,0.0,0.0,0.0,0.0,0.0,0.0,0.0,0.0,0.0,4.7009,4.6911,4.6719,4.6731,4.6897,4.7212,4.7411,4.7423,4.7278,4.7835,4.7552,4.6548,4.6873,0.0,0.0,0.0,0.0,0.0,4.7336,4.7647,4.7758,4.8831,4.9407,4.9648,4.9845,4.9245,4.833,0.0,0.0,0.0,0.0,0.0,0.0,0.0,2.3388,2.3363,2.3551,2.4112,2.5113,2.6753,2.4864,2.4376,2.6621,0.0,0.0,0.0,0.0,0.0,0.0,0.0,0.0,0.0,0.0,2.6854,3.0918,3.0218,3.1048,3.3296,0.0,0.0,0.0,0.0,0.0,0.0,0.0,0.0,0.0,2.4425,2.4398,0.0,0.0,0.0,0.0,0.0,0.0,0.0,0.0,0.0,0.0,0.0,0.0,0.0,0.0,0.0,0.0,0.0,3.3923,3.4551,3.2409,3.2967,3.365,0.0,0.0,0.0,0.0,3.2955,3.2989,3.2987,3.2989,3.3293,3.4213,0.0,0.0,0.0,0.0,0.0,0.0,0.0,0.0,0.0,0.0,0.0,0.0,0.0,0.0,0.0,4.7009,4.6888,4.6637,4.6865,4.6865,4.6578,4.683,4.6766,4.6423,4.6649,4.6649,4.6405,4.6381,0.0,0.0,0.0,0.0,0.0,4.7024,4.7335,4.7405,4.8152,4.8798,4.927,4.8557,4.8212,4.7962,0.0,0.0,0.0,0.0,0.0,0.0,0.0,0.0,0.0,0.0,2.3902,2.4012,2.5078,2.4624,2.4468,0.0,0.0,0.0,0.0,0.0,0.0,0.0,0.0,0.0,0.0,2.6446,2.7782,3.0006,3.1073,3.2223,3.3374,3.3178,0.0,0.0,2.8821,2.6867,2.4795,0.0,0.0,0.0,2.4407,2.4362,0.0,0.0,0.0,0.0,2.5833,2.6682,0.0,0.0,0.0,0.0,0.0,0.0,0.0,0.0,3.1419,3.2768,3.1563,0.0,3.3446,3.2805,3.294,3.3184,0.0,0.0,0.0,0.0,0.0,3.3168,3.3721,3.383,3.4497,0.0,0.0,0.0,0.0,0.0,0.0,0.0,0.0,0.0,0.0,0.0,0.0,0.0,0.0,0.0,0.0,4.7009,4.6957,4.6911,4.6975,4.6772,4.6295,4.6459,4.6554,4.6554,4.6501,4.6501,4.6554,4.6338,0.0,0.0,0.0,0.0,4.638,4.6556,4.6644,4.6702,4.7395,4.774,4.7943,4.8316,4.8075,4.7536,0.0,0.0,0.0,0.0,0.0,0.0,0.0,0.0,0.0,0.0,0.0,0.0,0.0,0.0,0.0,0.0,0.0,0.0,0.0,0.0,0.0,0.0,0.0,0.0,0.0,2.6996,2.8593,0.0,0.0,3.2937,0.0,0.0,0.0,0.0,2.9165,2.7084,2.5095,2.5029,2.4785,2.4443,2.4348,0.0,0.0,0.0,0.0,0.0,2.5257,2.6127,0.0,2.7928,2.8415,2.8797,0.0,0.0,0.0,0.0,3.0733,3.1869,3.1318,3.2067,3.2831,3.2079,3.2429,3.2874,3.2576,0.0,0.0,0.0,0.0,0.0,3.3963,0.0,0.0,0.0,0.0,0.0,0.0,0.0,0.0,0.0,0.0,0.0,0.0,0.0,0.0,0.0,0.0,0.0,0.0,4.7544,4.7338,4.683,4.6819,4.669,4.6392,4.6518,4.653,4.6428,4.641,4.641,4.641,4.627,4.6196,0.0,0.0,0.0,4.6393,4.6393,4.6393,4.6422,4.6665,4.6943,4.7211,4.7182,4.7138,4.7082,0.0,0.0,0.0,0.0,0.0,0.0,0.0,0.0,0.0,0.0,0.0,0.0,0.0,0.0,0.0,0.0,0.0,0.0,0.0,0.0,0.0,0.0,0.0,0.0,2.7638,2.7467,0.0,0.0,0.0,0.0,0.0,0.0,3.4317,0.0,2.9306,2.7348,2.5758,2.5639,2.5157,2.4443,2.4266,0.0,0.0,0.0,0.0,0.0,0.0,0.0,0.0,2.7807,2.8355,2.8615,2.9229,0.0,0.0,0.0,0.0,0.0,3.1538,3.2204,3.2451,3.1325,3.1982,3.2745,0.0,0.0,0.0,0.0,0.0,0.0,0.0,0.0,0.0,0.0,0.0,0.0,0.0,0.0,0.0,0.0,0.0,0.0,0.0,0.0,0.0,0.0,0.0,0.0,0.0,4.8199,4.7772,4.6867,4.6838,4.6761,4.6602,4.6661,4.656,4.6233,4.6326,4.6314,4.6233,4.6209,4.6196,0.0,0.0,0.0,4.6374,4.6374,4.6374,4.635,4.6122,4.6366,4.676,4.5979,4.61,4.6586,0.0,0.0,0.0,0.0,0.0,0.0,0.0,0.0,0.0,0.0,0.0,0.0,0.0,0.0,0.0,0.0,0.0,0.0,0.0,0.0,0.0,0.0,0.0,2.7214,3.0163,2.8844,0.0,0.0,0.0,0.0,3.4629,3.5981,3.4505,3.0662,2.9593,2.781,2.563,2.555,2.5027,2.4237,2.4214,0.0,0.0,0.0,0.0,0.0,0.0,0.0,0.0,2.5636,2.6579,2.7682,2.7682,0.0,0.0,0.0,0.0,0.0,3.1561,3.1824,3.2015,3.2514,3.2769,3.2896,0.0,0.0,0.0,0.0,0.0,0.0,0.0,0.0,0.0,0.0,0.0,0.0,0.0,0.0,0.0,0.0,0.0,0.0,0.0,0.0,0.0,0.0,0.0,0.0,0.0,4.8199,4.8122,4.7962,4.7944,4.7518,4.6602,4.6404,4.6319,4.6374,4.6282,4.6277,4.6374,4.6258,4.6196,0.0,0.0,4.6233,4.6233,4.6233,4.6233,4.6233,4.6202,4.6155,4.6147,4.6125,4.6123,4.6122,0.0,0.0,0.0,0.0,0.0,0.0,0.0,0.0,0.0,0.0,0.0,0.0,0.0,0.0,0.0,0.0,0.0,0.0,0.0,0.0,0.0,0.0,2.7317,2.822,3.0686,3.0878,0.0,0.0,0.0,3.6292,3.6261,3.5188,3.3412,3.102,2.9349,2.7719,2.6213,2.5702,2.5046,2.4298,0.0,0.0,0.0,0.0,0.0,0.0,0.0,0.0,0.0,0.0,2.6531,2.7549,2.7818,0.0,0.0,0.0,0.0,0.0,3.0327,3.0842,3.1372,3.2235,3.3007,0.0,0.0,0.0,0.0,0.0,0.0,0.0,0.0,0.0,0.0,0.0,0.0,0.0,0.0,0.0,0.0,0.0,0.0,0.0,0.0,0.0,0.0,0.0,0.0,0.0,0.0,0.0,4.8698,4.859,4.7713,4.7156,4.7021,4.6915,4.6667,4.6289,4.583,4.5859,4.6277,4.5824,4.5823,4.6196,0.0,4.6301,4.6301,4.6301,4.6565,4.6905,4.6322,4.6322,4.6599,4.623,4.5998,4.5922,0.0,0.0,0.0,0.0,0.0,0.0,0.0,0.0,0.0,0.0,0.0,0.0,0.0,0.0,0.0,0.0,0.0,0.0,0.0,0.0,2.5781,2.8747,2.8542,2.9622,3.2335,3.3058,3.4685,3.7326,3.8057,3.8306,3.8039,3.4741,3.2508,3.1217,2.9174,2.7623,2.6442,2.5766,2.5036,2.4326,0.0,0.0,0.0,0.0,0.0,0.0,0.0,0.0,0.0,0.0,0.0,0.0,0.0,0.0,0.0,2.8719,2.8661,2.8783,2.9754,3.0331,3.0939,3.2189,0.0,0.0,0.0,0.0,0.0,0.0,0.0,0.0,0.0,0.0,0.0,0.0,0.0,0.0,0.0,0.0,0.0,0.0,0.0,0.0,0.0,0.0,0.0,0.0,0.0,0.0,0.0,0.0,4.8985,4.8643,4.7567,4.7127,4.743,4.7799,4.737,4.6196,4.5823,4.584,4.6179,4.5612,4.5665,4.6214,4.6301,4.635,4.635,4.635,4.672,4.7188,4.638,4.6427,4.6882,4.625,4.5947,4.5922,0.0,0.0,0.0,0.0,0.0,0.0,0.0,0.0,0.0,0.0,0.0,0.0,0.0,0.0,0.0,0.0,0.0,0.0,0.0,0.0,2.5176,2.6917,2.836,3.1717,3.7261,3.518,3.5611,3.884,3.9586,3.9538,3.8663,3.5499,3.2718,3.0366,2.9494,2.7801,2.5588,2.5464,2.4919,2.4118,2.4108,0.0,0.0,0.0,0.0,0.0,0.0,0.0,0.0,0.0,0.0,0.0,0.0,0.0,2.9615,3.018,2.9901,2.9726,3.1148,3.1036,3.1064,3.3374,0.0,0.0,0.0,0.0,0.0,0.0,0.0,0.0,0.0,0.0,0.0,0.0,0.0,0.0,0.0,0.0,0.0,0.0,0.0,0.0,0.0,0.0,0.0,0.0,0.0,0.0,0.0,0.0,0.0,4.79,4.8436,4.8357,4.7585,4.9012,4.8543,4.6214,4.6906,4.6871,4.6196,4.6144,4.6144,4.6196,4.6209,4.6209,4.6209,4.6209,4.6244,4.6297,4.6232,4.6219,4.6259,4.6083,4.6073,4.6172,0.0,0.0,0.0,0.0,0.0,0.0,0.0,0.0,0.0,0.0,0.0,0.0,0.0,0.0,0.0,0.0,0.0,0.0,0.0,0.0,2.5588,2.8241,2.8984,3.1512,3.6189,3.6809,3.8189,4.0433,3.9712,3.8903,3.7971,3.4731,0.0,3.0955,2.8669,2.7398,2.6893,2.5321,2.4773,2.4925,2.429,2.4016,0.0,0.0,0.0,0.0,0.0,0.0,0.0,0.0,2.5454,2.6273,2.7271,2.8143,2.8936,2.9612,2.9248,2.8987,3.0627,3.1867,3.2808,3.3281,0.0,0.0,0.0,0.0,0.0,0.0,0.0,0.0,0.0,0.0,0.0,0.0,0.0,0.0,0.0,0.0,0.0,0.0,0.0,0.0,0.0,0.0,0.0,0.0,0.0,0.0,0.0,0.0,0.0,4.9215,4.8411,4.8275,4.891,4.949,4.9047,4.7618,4.7467,4.7239,4.6941,4.6425,4.6196,4.6196,4.6196,4.6196,4.6196,4.6196,4.649,4.6958,4.6958,4.6648,4.6184,4.6135,4.6147,4.6196,0.0,0.0,0.0,0.0,0.0,0.0,0.0,0.0,0.0,0.0,0.0,0.0,0.0,0.0,0.0,0.0,0.0,0.0,0.0,0.0,2.5578,2.836,2.8997,3.09,3.4369,3.6827,3.8885,4.0535,3.9165,3.8044,3.7117,0.0,0.0,3.1759,2.9041,2.8123,2.8474,2.6274,2.5506,2.5703,2.4753,2.4233,0.0,0.0,0.0,0.0,0.0,0.0,0.0,0.0,2.5781,2.6573,2.7556,2.8228,2.8866,2.9837,2.9711,2.964,3.1331,3.2884,3.4163,0.0,0.0,0.0,0.0,0.0,0.0,0.0,0.0,0.0,0.0,0.0,0.0,0.0,0.0,0.0,0.0,0.0,0.0,0.0,0.0,0.0,0.0,0.0,0.0,0.0,0.0,0.0,0.0,0.0,0.0,0.0,4.8166,4.8165,4.8973,4.971,4.9556,4.8525,4.8257,4.7884,4.738,4.7069,4.6653,4.6214,4.6472,4.6425,4.6196,4.6196,4.6512,4.7029,4.7029,4.6683,4.6191,4.5982,4.5919,4.5884,0.0,0.0,0.0,0.0,0.0,0.0,0.0,0.0,0.0,0.0,0.0,0.0,0.0,0.0,0.0,0.0,0.0,0.0,0.0,2.4247,2.4937,2.6625,2.8152,3.0106,3.2491,3.4963,3.7099,3.8884,3.8,3.7136,3.6218,3.3745,0.0,0.0,3.1011,3.0276,3.01,2.8474,2.7253,2.6344,2.553,2.4738,2.4009,0.0,0.0,0.0,0.0,0.0,0.0,0.0,2.6543,2.738,2.8987,2.9489,2.9797,3.1255,3.1757,3.2135,3.3685,3.4125,0.0,0.0,0.0,0.0,0.0,0.0,0.0,0.0,0.0,0.0,0.0,0.0,0.0,0.0,0.0,0.0,0.0,0.0,0.0,0.0,0.0,0.0,0.0,0.0,0.0,0.0,0.0,0.0,0.0,0.0,0.0,0.0,4.7766,4.8205,4.7427,4.9728,5.0114,4.8626,4.9341,4.8885,4.7427,4.8157,4.7653,4.6249,4.7046,4.6941,4.6196,4.6196,4.6196,4.6196,4.6196,4.6196,4.6121,4.551,4.5305,4.5194,0.0,0.0,0.0,0.0,0.0,0.0,0.0,0.0,0.0,0.0,0.0,0.0,0.0,0.0,0.0,0.0,0.0,0.0,0.0,2.421,2.4703,2.5812,2.6882,2.7761,2.8447,3.0275,3.3144,3.7073,3.6199,3.5372,0.0,0.0,0.0,3.2584,0.0,0.0,3.0763,2.8524,2.776,2.7894,2.6466,2.5726,2.5409,0.0,0.0,0.0,0.0,0.0,0.0,0.0,0.0,0.0,2.8268,2.9301,3.0227,3.071,3.1565,3.2728,3.4421,3.6078,0.0,0.0,0.0,0.0,0.0,0.0,0.0,0.0,0.0,0.0,0.0,0.0,0.0,0.0,0.0,0.0,0.0,0.0,0.0,0.0,0.0,0.0,0.0,0.0,0.0,0.0,0.0,0.0,0.0,0.0,0.0,0.0,4.7553,4.8165,4.9008,4.9153,4.9276,4.9376,4.9012,4.8345,4.741,4.7625,4.7174,4.6214,4.6442,4.6407,4.6161,4.5647,4.5735,4.6144,4.563,4.5752,4.6121,4.5415,4.5157,4.5064,0.0,0.0,0.0,0.0,0.0,0.0,0.0,0.0,0.0,0.0,2.4103,2.4113,0.0,0.0,0.0,0.0,0.0,0.0,2.4161,2.4129,2.4644,2.5844,2.6394,2.7111,2.8035,2.8951,3.0705,3.337,0.0,0.0,0.0,0.0,0.0,3.3485,0.0,3.2178,0.0,3.0153,2.9286,2.905,2.7983,2.7151,2.6489,0.0,0.0,0.0,0.0,0.0,0.0,0.0,0.0,0.0,2.8039,0.0,2.9717,3.0665,3.1783,3.328,3.5856,0.0,0.0,0.0,0.0,0.0,0.0,0.0,0.0,0.0,0.0,0.0,0.0,0.0,0.0,0.0,0.0,0.0,0.0,0.0,0.0,0.0,0.0,0.0,0.0,0.0,0.0,0.0,0.0,0.0,0.0,0.0,0.0,0.0,4.7201,4.7594,4.8155,4.8334,4.836,4.8215,4.7798,4.7192,4.652,4.7415,4.7244,4.6196,4.6196,4.6196,4.6144,4.5401,4.5349,4.5717,4.5273,4.5366,4.5717,4.5321,4.5169,4.5052,0.0,0.0,2.418,2.418,0.0,0.0,0.0,0.0,0.0,0.0,2.4026,2.4054,0.0,0.0,0.0,2.3991,2.3991,2.4006,2.4079,2.4026,2.4683,2.6216,2.6344,2.7478,2.9789,2.9593,2.921,2.8656,0.0,0.0,0.0,0.0,3.3314,3.4734,0.0,3.3665,3.3413,3.2465,3.1195,2.9776,2.9568,2.8648,2.7295,2.6435,0.0,0.0,0.0,0.0,0.0,0.0,0.0,0.0,2.8112,2.824,2.8802,3.0879,3.2242,3.3868,0.0,0.0,0.0,0.0,0.0,0.0,0.0,0.0,0.0,0.0,0.0,0.0,0.0,0.0,0.0,0.0,0.0,0.0,0.0,0.0,0.0,0.0,0.0,0.0,0.0,0.0,0.0,0.0,0.0,0.0,0.0,0.0,0.0,4.6032,4.6722,4.671,4.5917,4.7348,4.74,0.0,4.6075,4.5728,4.5144,4.7244,4.746,4.6196,4.6196,4.6161,4.6039,4.5296,4.5027,4.5098,4.5027,4.508,4.5215,4.5276,4.5305,4.5111,0.0,0.0,2.4036,2.4036,0.0,0.0,0.0,0.0,0.0,0.0,0.0,0.0,0.0,0.0,0.0,2.3912,2.3863,2.3876,2.3932,2.3986,2.419,2.4606,2.5223,2.6323,2.7955,2.6814,2.6418,2.6851,0.0,0.0,0.0,0.0,0.0,3.3814,0.0,3.3695,3.244,3.1506,3.0576,2.9667,2.8954,2.8427,2.8006,2.7224,2.6792,0.0,0.0,0.0,0.0,0.0,0.0,0.0,2.8049,2.8854,2.9938,3.0449,3.2425,3.4916,0.0,0.0,0.0,0.0,0.0,0.0,0.0,0.0,0.0,0.0,0.0,0.0,0.0,0.0,0.0,0.0,0.0,0.0,0.0,0.0,0.0,0.0,0.0,0.0,0.0,0.0,0.0,0.0,0.0,0.0,0.0,0.0,0.0,4.5998,4.6172,4.6418,4.6739,4.646,4.6486,0.0,4.5701,4.5098,4.4958,4.5558,4.5963,4.6196,4.6196,4.5863,4.5279,4.4483,4.4536,4.5045,4.4395,4.4904,4.5905,4.547,4.5305,4.5111,0.0,0.0,0.0,0.0,0.0,0.0,0.0,0.0,0.0,0.0,0.0,0.0,0.0,2.3775,0.0,0.0,2.3761,2.3776,2.3855,2.4247,2.4831,2.5637,2.5684,2.6209,2.7332,2.5877,0.0,0.0,0.0,0.0,0.0,0.0,0.0,3.2372,0.0,3.2198,3.1039,3.0851,3.0323,2.9629,2.947,2.9188,2.8737,2.7565,2.6841,2.6429,2.6042,0.0,0.0,0.0,0.0,0.0,0.0,0.0,2.9412,3.0504,3.1997,3.3845,0.0,0.0,0.0,0.0,0.0,0.0,0.0,0.0,0.0,0.0,0.0,0.0,0.0,0.0,0.0,0.0,0.0,0.0,0.0,0.0,0.0,0.0,0.0,0.0,0.0,0.0,0.0,0.0,0.0,0.0,0.0,4.624,4.6105,4.5909,4.5833,4.5952,4.6235,4.5888,4.5914,4.6322,4.5289,4.4843,4.4886,4.4634,4.4957,4.5647,4.5261,4.5296,4.5542,4.4378,4.4378,4.5062,4.4712,4.5022,4.5677,4.5787,4.5552,4.5123,0.0,0.0,0.0,0.0,0.0,0.0,0.0,0.0,0.0,0.0,0.0,0.0,0.0,2.3672,2.3672,0.0,0.0,0.0,2.3787,2.4416,2.5435,2.6892,2.6273,2.6261,2.7054,0.0,0.0,0.0,0.0,0.0,0.0,0.0,0.0,3.1052,0.0,3.0523,2.9811,3.0266,3.0069,2.9413,2.9755,2.958,2.8927,2.7386,2.6371,2.5812,0.0,2.597,2.6166,2.774,0.0,0.0,0.0,0.0,2.8566,3.0574,3.1216,3.2008,0.0,0.0,0.0,0.0,0.0,0.0,0.0,0.0,0.0,0.0,0.0,0.0,0.0,0.0,0.0,0.0,0.0,0.0,0.0,0.0,0.0,0.0,0.0,0.0,0.0,0.0,0.0,0.0,0.0,0.0,4.6135,4.595,4.5808,4.577,4.5419,4.5291,4.5397,4.5377,4.5442,4.555,4.4959,4.4592,4.4448,4.3915,4.4196,4.5045,4.4214,4.46,4.5688,4.4431,4.4378,4.511,4.5217,4.5193,4.518,4.5963,4.5793,4.5176,0.0,0.0,0.0,0.0,0.0,0.0,0.0,0.0,0.0,0.0,2.3539,2.3562,2.3607,2.3562,2.3561,2.3689,2.3652,2.3646,2.3716,0.0,0.0,2.5117,2.5097,2.5403,2.6163,0.0,0.0,0.0,0.0,0.0,0.0,0.0,0.0,3.0832,0.0,0.0,2.9616,2.9586,2.9175,2.8494,2.777,2.7453,2.7302,2.6326,0.0,0.0,0.0,0.0,0.0,2.8479,2.8959,0.0,0.0,0.0,2.9054,3.0005,3.0326,0.0,0.0,0.0,0.0,0.0,0.0,0.0,0.0,0.0,0.0,0.0,0.0,0.0,0.0,0.0,0.0,0.0,0.0,0.0,0.0,0.0,0.0,0.0,0.0,0.0,0.0,0.0,0.0,0.0,0.0,0.0,4.5824,4.5448,4.5346,4.5611,4.4433,4.4289,4.538,4.4777,4.4777,4.5423,4.4819,4.39,4.2729,4.276,4.3611,4.505,4.4137,4.3903,4.4185,4.3974,4.4378,4.5098,4.5122,4.511,4.5151,4.5429,4.5493,4.5375,0.0,0.0,0.0,0.0,0.0,0.0,0.0,0.0,0.0,0.0,0.0,2.4801,2.4831,2.4433,2.4183,2.4194,2.3801,2.3758,2.4279,2.3885,2.4179,2.5416,2.4592,2.4485,2.5254,0.0,0.0,0.0,0.0,0.0,0.0,2.9445,3.0006,0.0,0.0,0.0,0.0,0.0,2.7846,2.7528,2.6683,2.6884,2.7529,0.0,0.0,0.0,0.0,0.0,0.0,0.0,0.0,2.837,2.8672,0.0,0.0,0.0,0.0,0.0,0.0,0.0,0.0,0.0,0.0,0.0,0.0,0.0,0.0,0.0,0.0,0.0,0.0,0.0,0.0,0.0,0.0,0.0,0.0,0.0,0.0,0.0,0.0,0.0,0.0,0.0,0.0,0.0,0.0,4.5735,4.579,4.5596,4.5528,4.5602,4.4936,4.4837,4.538,4.5083,4.5083,4.538,4.4712,4.4105,4.3548,4.2673,4.2799,4.3652,4.2864,4.3039,4.3904,4.3904,4.4425,4.527,4.5746,4.5646,4.5282,4.5859,4.5493,4.4804,0.0,0.0,0.0,0.0,0.0,0.0,0.0,0.0,0.0,0.0,0.0,2.5794,2.5794,0.0,0.0,0.0,2.4124,2.398,2.4443,2.3861,2.4064,2.5314,2.4141,2.3755,2.4385,0.0,0.0,0.0,0.0,0.0,2.9426,2.9451,3.0037,0.0,3.0303,0.0,0.0,0.0,0.0,0.0,0.0,2.6829,0.0,0.0,0.0,0.0,0.0,0.0,0.0,0.0,0.0,0.0,0.0,0.0,0.0,0.0,0.0,0.0,0.0,0.0,0.0,0.0,0.0,0.0,0.0,0.0,0.0,0.0,0.0,0.0,0.0,0.0,0.0,0.0,0.0,0.0,0.0,0.0,0.0,0.0,0.0,0.0,0.0,0.0,0.0,0.0,0.0,4.5793,4.5705,4.5583,4.5527,4.5537,4.5109,4.504,4.5397,4.5397,4.5397,4.5397,4.4837,4.4522,4.4394,4.3012,4.2447,4.2509,4.1803,4.2291,4.3571,4.3611,4.4138,4.5023,4.5923,4.5753,4.51,4.597,4.5517,4.4646,0.0,0.0,0.0,0.0,0.0,0.0,0.0,0.0,0.0,0.0,0.0,2.5794,2.5794,2.5765,2.5455,2.476,2.4653,2.4337,2.3618,2.3523,2.3541,2.3636,2.3483,0.0,2.3553,0.0,0.0,0.0,0.0,0.0,2.9214,2.9286,3.044,3.2471,3.1789,3.0703,2.9344,0.0,0.0,0.0,0.0,2.6985,0.0,0.0,0.0,0.0,0.0,0.0,0.0,0.0,0.0,0.0,0.0,0.0,0.0,0.0,0.0,0.0,0.0,0.0,0.0,0.0,0.0,0.0,0.0,0.0,0.0,0.0,0.0,0.0,0.0,0.0,0.0,0.0,0.0,0.0,0.0,0.0,0.0,0.0,0.0,0.0,0.0,0.0,0.0,0.0,4.4307,4.4976,4.5402,4.5008,4.4968,4.5406,4.4111,4.4042,4.538,4.5397,4.5397,4.5397,4.5363,4.4975,4.4289,4.3685,4.3047,4.2369,4.1569,4.1771,4.2684,4.2805,4.3307,4.4079,4.5006,4.4876,4.4271,4.5145,4.5445,4.5451,0.0,0.0,0.0,0.0,0.0,0.0,0.0,0.0,0.0,0.0,0.0,0.0,0.0,2.6904,2.6448,2.6142,2.5172,2.4266,2.3553,2.3412,2.3401,2.3499,2.3442,2.3401,2.3442,0.0,0.0,0.0,0.0,2.5363,2.8436,2.8493,2.9174,3.0375,3.0637,3.0503,2.9916,2.8018,0.0,0.0,2.7068,2.7573,0.0,0.0,0.0,0.0,0.0,0.0,0.0,0.0,0.0,0.0,0.0,0.0,0.0,0.0,0.0,0.0,0.0,0.0,0.0,0.0,0.0,0.0,0.0,0.0,0.0,0.0,0.0,0.0,0.0,0.0,0.0,0.0,0.0,0.0,0.0,0.0,0.0,0.0,0.0,0.0,0.0,0.0,0.0,0.0,0.0,4.4038,4.3983,4.4355,4.461,4.4695,4.4198,4.3957,4.3988,4.4928,4.5169,4.4682,4.4682,4.4557,4.4259,4.3086,4.2433,4.2239,4.1522,4.1497,4.204,4.3073,4.3704,4.4166,4.5582,4.5617,4.4988,4.5946,4.5951,4.5586,0.0,0.0,0.0,0.0,0.0,2.8323,0.0,0.0,0.0,0.0,0.0,0.0,0.0,0.0,2.7286,2.6961,2.5706,2.4639,2.3951,2.3827,2.3691,2.3517,2.3442,2.3395,2.3395,0.0,0.0,0.0,0.0,0.0,0.0,2.7641,2.8319,2.949,2.9202,2.9409,0.0,0.0,0.0,2.7375,0.0,0.0,2.9354,0.0,0.0,0.0,0.0,0.0,0.0,0.0,0.0,0.0,0.0,0.0,0.0,0.0,0.0,0.0,0.0,0.0,0.0,0.0,0.0,0.0,0.0,0.0,0.0,0.0,0.0,0.0,0.0,0.0,0.0,0.0,0.0,0.0,0.0,0.0,0.0,0.0,0.0,0.0,0.0,0.0,0.0,0.0,0.0,0.0,4.3156,4.3909,4.444,4.4595,4.4595,4.4372,4.3872,4.4806,4.5046,4.4595,4.4595,4.4639,4.4643,4.3404,4.2903,4.2991,4.2323,4.2003,4.2022,4.3102,4.3734,4.4178,4.5646,4.5882,4.5488,4.6441,4.6429,4.6016,0.0,2.851,2.8213,2.7298,2.7851,2.8095,2.7189,0.0,0.0,0.0,0.0,0.0,0.0,0.0,0.0,2.711,2.6336,2.5562,2.4748,2.4694,2.4331,2.3541,2.3442,2.3407,2.3425,0.0,0.0,0.0,0.0,0.0,0.0,0.0,2.8021,0.0,2.7762,2.7586,2.9061,0.0,2.8578,2.8174,0.0,2.9915,2.9554,0.0,0.0,0.0,3.3459,3.3196,0.0,0.0,0.0,0.0,0.0,0.0,0.0,0.0,0.0,0.0,0.0,0.0,0.0,0.0,0.0,0.0,0.0,0.0,0.0,0.0,0.0,0.0,0.0,0.0,0.0,0.0,0.0,0.0,0.0,0.0,0.0,0.0,0.0,0.0,0.0,0.0,0.0,0.0,4.282,4.3127,4.2971,4.3662,4.4383,4.5104,4.5173,4.5173,4.5138,4.5042,4.5056,4.5173,4.519,4.5274,4.538,4.4763,4.4557,4.4672,4.3993,4.3296,4.2672,4.2811,4.3289,4.4044,4.5117,4.5528,4.5639,4.6494,4.6807,4.6807,2.8413,2.8386,2.8288,2.8079,2.8203,2.8242,2.7975,0.0,0.0,0.0,0.0,0.0,0.0,0.0,0.0,2.8049,2.8202,2.7346,2.4855,2.4652,2.4284,2.3535,2.3442,2.3644,2.4175,0.0,0.0,0.0,0.0,0.0,0.0,0.0,0.0,0.0,2.7261,2.7317,2.8192,2.7549,0.0,0.0,2.9852,3.0806,0.0,0.0,0.0,0.0,0.0,3.428,0.0,0.0,3.1917,3.0688,0.0,0.0,0.0,0.0,0.0,0.0,2.9213,0.0,0.0,0.0,0.0,0.0,3.2958,3.4087,0.0,0.0,0.0,0.0,0.0,0.0,0.0,0.0,0.0,0.0,0.0,0.0,0.0,0.0,0.0,0.0,0.0,0.0,0.0,0.0,4.2716,4.2793,4.2035,4.2689,4.3185,4.339,4.4464,4.4515,4.339,4.4458,4.4799,4.44,4.4843,4.5167,4.5363,4.4565,4.4341,4.4522,4.3859,4.3812,4.4269,4.4406,4.4589,4.4876,4.5906,4.6242,4.62,4.6637,4.6807,4.6807,2.8281,2.8373,2.8373,2.8313,2.8613,2.8929,0.0,0.0,0.0,0.0,0.0,0.0,0.0,0.0,0.0,2.8845,2.9062,2.8129,2.5299,2.5423,2.5121,2.4046,2.426,2.4585,2.4959,0.0,0.0,0.0,0.0,0.0,0.0,0.0,0.0,0.0,0.0,0.0,0.0,0.0,0.0,0.0,3.0584,0.0,0.0,3.4446,3.5085,0.0,0.0,0.0,3.5211,3.5153,3.3845,0.0,0.0,0.0,0.0,0.0,0.0,0.0,0.0,0.0,0.0,0.0,0.0,0.0,3.2125,3.2866,3.3693,0.0,0.0,0.0,0.0,0.0,0.0,0.0,0.0,0.0,0.0,0.0,0.0,0.0,0.0,0.0,0.0,4.1702,4.1911,4.1842,4.2529,4.265,4.2019,4.2377,4.2769,4.311,4.4282,4.4487,4.357,4.4415,4.4678,4.4399,4.4763,4.5063,4.5296,4.48,4.4699,4.4944,4.4597,4.4804,4.5376,4.5511,4.5559,4.5619,4.6276,4.6483,4.6435,4.6637,4.6956,4.7257,0.0,2.8478,2.8594,2.8507,2.9238,3.0069,0.0,0.0,0.0,0.0,0.0,0.0,0.0,0.0,0.0,0.0,2.9563,2.8486,2.6124,2.6618,2.636,2.489,2.5455,2.5784,2.5749,0.0,0.0,0.0,0.0,0.0,0.0,0.0,0.0,0.0,2.6244,2.6356,0.0,0.0,0.0,2.9311,3.1486,3.243,0.0,0.0,3.6549,0.0,3.8224,3.8516,3.7909,3.7714,3.6165,0.0,0.0,0.0,0.0,0.0,3.0464,0.0,0.0,0.0,0.0,0.0,0.0,0.0,3.2865,3.2747,3.2631,0.0,0.0,0.0,0.0,0.0,0.0,0.0,0.0,0.0,0.0,0.0,0.0,0.0,0.0,0.0,4.1416,4.1532,4.1575,4.1575,4.2245,4.2589,4.2475,4.2556,4.2926,4.364,4.4374,4.4762,4.4776,4.464,4.4654,4.4789,4.4776,4.4927,4.5177,4.5177,4.5327,4.555,4.5705,4.5846,4.5985,4.611,4.6202,4.6209,4.635,4.6393,4.6405,4.6525,4.7122,4.7767,2.8271,2.8847,2.9502,3.0176,3.0901,3.1651,0.0,0.0,0.0,0.0,0.0,0.0,0.0,0.0,0.0,0.0,0.0,3.0214,2.7865,2.7268,2.6574,2.5634,2.5723,2.6077,2.6626,2.597,0.0,0.0,0.0,0.0,0.0,0.0,0.0,0.0,0.0,2.6972,0.0,0.0,0.0,3.0049,3.1059,0.0,3.3494,3.5347,3.6683,3.7598,3.7931,3.8359,3.8564,0.0,3.5897,3.4579,0.0,0.0,0.0,0.0,0.0,0.0,0.0,0.0,0.0,0.0,0.0,0.0,3.0394,3.0367,3.0519,0.0,0.0,0.0,0.0,0.0,0.0,0.0,0.0,0.0,0.0,0.0,0.0,0.0,0.0,0.0,4.0685,4.1149,4.1444,4.1444,4.2021,4.2383,4.2326,4.2902,4.3295,4.3447,4.4077,4.4483,4.464,4.4454,4.4511,4.4789,4.4696,4.4776,4.5046,4.5046,4.5127,4.53,4.5524,4.5723,4.5846,4.5985,4.6097,4.6209,4.635,4.6393,4.6393,4.6417,4.6619,4.6938,2.8693,2.9192,2.9865,3.1037,0.0,0.0,0.0,0.0,0.0,0.0,0.0,0.0,0.0,0.0,0.0,0.0,0.0,0.0,0.0,0.0,2.7246,2.6425,2.6775,2.7146,2.7487,2.7046,2.6598,0.0,0.0,0.0,0.0,0.0,0.0,0.0,0.0,0.0,0.0,0.0,2.8104,2.9677,3.1193,0.0,3.4346,3.6662,3.7684,3.7993,3.8707,3.9081,3.9001,3.7426,3.6752,0.0,0.0,3.3652,3.4023,0.0,3.2893,3.2883,0.0,0.0,0.0,3.1449,0.0,0.0,0.0,3.0196,2.9956,3.1189,0.0,0.0,0.0,0.0,0.0,0.0,0.0,0.0,0.0,0.0,0.0,0.0,0.0,0.0,3.9559,4.0493,4.1248,4.1619,4.1586,4.1742,4.2179,4.25,4.2843,4.3282,4.3951,4.431,4.4358,4.431,4.4381,4.455,4.4483,4.4609,4.4896,4.4964,4.5073,4.5203,4.5485,4.5645,4.5723,4.5909,4.5998,4.6023,4.6216,4.6289,4.6289,4.6289,4.688,4.769,2.8926,2.9483,3.0155,3.1517,0.0,0.0,0.0,0.0,0.0,0.0,0.0,0.0,0.0,0.0,0.0,0.0,0.0,0.0,0.0,0.0,0.0,2.7699,2.7999,2.8239,2.8358,2.8127,2.7581,0.0,0.0,0.0,0.0,0.0,0.0,0.0,0.0,0.0,0.0,0.0,0.0,2.9737,0.0,3.3117,3.4592,3.7502,3.829,3.8035,3.9505,3.9911,3.9472,3.7825,0.0,3.7695,3.4897,3.4827,0.0,0.0,0.0,0.0,0.0,0.0,0.0,0.0,0.0,3.1149,0.0,0.0,0.0,3.1195,0.0,0.0,0.0,0.0,0.0,0.0,0.0,0.0,0.0,0.0,0.0,0.0,0.0,0.0,0.0,3.9326,4.0351,4.1328,4.0752,4.0869,4.1957,4.2079,4.2498,4.3348,4.3922,4.4181,4.4097,4.4212,4.4267,4.4267,4.4324,4.448,4.472,4.4869,4.5032,4.5163,4.5419,4.555,4.5619,4.5833,4.5871,4.5821,4.606,4.6159,4.6159,4.6159,4.7091,4.8292,2.8401,2.9579,3.0862,3.1789,0.0,0.0,0.0,0.0,0.0,0.0,0.0,0.0,0.0,0.0,0.0,0.0,0.0,0.0,3.3385,0.0,0.0,0.0,2.8873,2.8527,2.9248,2.8482,2.7388,2.5925,0.0,0.0,0.0,0.0,0.0,0.0,2.815,0.0,0.0,0.0,2.9962,0.0,3.2153,3.2398,0.0,3.5233,3.6888,3.8136,3.9384,4.0151,4.0209,0.0,3.7558,3.7807,0.0,3.5576,0.0,0.0,0.0,0.0,0.0,0.0,0.0,0.0,3.2018,0.0,0.0,0.0,2.9996,2.9524,0.0,0.0,0.0,0.0,0.0,0.0,0.0,0.0,0.0,0.0,0.0,0.0,0.0,0.0,0.0,3.713,3.7644,3.9448,3.9126,3.9698,4.1649,4.2465,4.3224,4.3975,4.3948,4.3998,4.4097,4.4112,4.4126,4.4126,4.4412,4.4483,4.4367,4.4679,4.4899,4.5032,4.518,4.538,4.5607,4.5628,4.571,4.5808,4.596,4.6023,4.6023,4.6023,4.6302,4.6851,2.8963,2.9887,3.0875,3.1825,0.0,0.0,0.0,0.0,0.0,0.0,0.0,0.0,0.0,0.0,0.0,0.0,0.0,3.4204,0.0,0.0,0.0,0.0,0.0,0.0,2.9971,2.9194,2.8255,2.7128,2.6568,0.0,0.0,0.0,0.0,0.0,2.9018,0.0,3.0788,0.0,0.0,0.0,0.0,0.0,0.0,3.5992,3.7589,3.8454,3.9319,3.9711,3.9612,0.0,3.7823,0.0,0.0,0.0,0.0,0.0,0.0,0.0,0.0,0.0,0.0,0.0,0.0,0.0,0.0,0.0,2.9673,0.0,0.0,0.0,0.0,0.0,0.0,0.0,0.0,0.0,0.0,0.0,0.0,0.0,0.0,0.0,0.0,0.0,0.0,0.0,3.7843,3.8467,4.0649,4.1517,4.2318,4.315,4.3648,4.3866,4.382,4.3925,4.3983,4.3983,4.4215,4.4312,4.4307,4.4651,4.4831,4.4899,4.5113,4.5257,4.5363,4.5459,4.5524,4.5563,4.5641,4.5778,4.5998,4.5998,4.6415,4.7093,2.9821,0.0,0.0,0.0,0.0,0.0,0.0,0.0,0.0,0.0,0.0,0.0,3.8202,3.8228,0.0,0.0,0.0,3.6265,0.0,0.0,3.2553,0.0,0.0,0.0,0.0,2.9928,2.8927,2.8099,2.7224,0.0,0.0,0.0,0.0,0.0,0.0,3.099,3.224,0.0,0.0,3.314,3.2903,3.3382,3.4522,3.6957,3.815,3.863,3.926,3.9483,3.9358,3.8365,3.8107,0.0,3.6312,0.0,0.0,0.0,0.0,0.0,3.4911,0.0,0.0,0.0,0.0,0.0,0.0,0.0,0.0,0.0,0.0,0.0,0.0,0.0,0.0,0.0,0.0,0.0,0.0,0.0,0.0,0.0,0.0,0.0,0.0,0.0,0.0,0.0,0.0,3.7252,3.9848,4.0532,4.1327,4.2367,4.3048,4.3414,4.3462,4.3674,4.3763,4.378,4.3937,4.4083,4.4196,4.4263,4.4447,4.4731,4.4712,4.4881,4.5167,4.5283,4.5353,4.5357,4.5393,4.5602,4.5884,4.5922,4.6593,4.7473,3.079,3.0878,0.0,0.0,0.0,0.0,0.0,0.0,0.0,0.0,0.0,0.0,0.0,0.0,0.0,0.0,0.0,3.9744,3.9726,0.0,3.4686,0.0,0.0,3.1225,0.0,0.0,2.897,2.8099,2.7224,0.0,0.0,0.0,0.0,0.0,0.0,3.1616,3.2432,3.3054,3.4199,3.5508,3.4671,3.5164,3.6496,0.0,3.7944,3.8483,3.9161,0.0,0.0,3.8444,3.8379,0.0,0.0,0.0,0.0,0.0,0.0,0.0,0.0,0.0,0.0,3.2621,0.0,0.0,0.0,0.0,3.0479,0.0,0.0,0.0,0.0,0.0,0.0,0.0,0.0,0.0,0.0,0.0,0.0,0.0,0.0,0.0,0.0,0.0,0.0,0.0,0.0,0.0,3.9536,3.9862,4.0605,4.2061,4.2142,4.2471,4.3112,4.3327,4.3419,4.3417,4.3684,4.3848,4.3879,4.3318,4.3592,4.4468,4.3752,4.4048,4.5019,4.5154,4.522,4.5234,4.5357,4.5489,4.5632,4.5757,4.6562,4.7572,0.0,0.0,0.0,0.0,0.0,0.0,0.0,3.697,0.0,0.0,0.0,0.0,0.0,0.0,4.2744,0.0,0.0,4.1484,4.1484,3.829,0.0,0.0,0.0,3.3841,0.0,0.0,3.1011,2.9553,2.9265,0.0,0.0,0.0,0.0,0.0,0.0,3.259,0.0,0.0,0.0,0.0,0.0,3.5869,3.7245,0.0,0.0,3.8551,3.9708,4.0207,0.0,3.9562,3.9203,3.8879,3.814,3.7591,3.7078,3.6472,3.591,0.0,0.0,0.0,3.3973,3.287,0.0,0.0,0.0,0.0,0.0,0.0,0.0,0.0,0.0,0.0,0.0,0.0,0.0,0.0,0.0,0.0,0.0,0.0,0.0,0.0,0.0,0.0,0.0,0.0,3.4223,0.0,0.0,3.9551,4.0428,4.1017,4.2067,4.2777,4.3113,4.3174,4.3204,4.3204,4.3522,4.3671,4.3702,4.3731,4.3961,4.4361,4.419,4.4462,4.5039,4.5576,4.5935,4.6119,4.6027,4.6458,4.7014,4.6126,4.6122,4.6558,3.335,0.0,0.0,0.0,0.0,0.0,0.0,0.0,0.0,0.0,4.0545,0.0,4.3159,0.0,4.4306,0.0,4.4125,4.319,4.2351,4.0388,0.0,3.9886,3.771,0.0,0.0,0.0,3.2975,3.1542,0.0,3.0625,0.0,0.0,0.0,0.0,0.0,0.0,0.0,0.0,3.5339,0.0,0.0,3.644,0.0,0.0,3.8688,3.8946,0.0,4.0412,4.0292,4.015,3.9754,3.9231,3.8698,3.817,3.7607,3.6922,3.6399,3.5971,3.5769,3.5078,0.0,3.3721,3.2912,0.0,3.1098,0.0,0.0,0.0,0.0,0.0,0.0,0.0,0.0,0.0,0.0,0.0,0.0,2.6366,0.0,0.0,0.0,0.0,0.0,0.0,0.0,3.3099,3.3039,0.0,0.0,0.0,3.9313,3.9945,4.1197,4.2193,4.2835,4.2789,4.2851,4.3021,4.3252,4.3419,4.3522,4.3523,4.376,4.4152,4.3967,4.4226,4.4823,4.5684,4.6189,4.6447,4.6701,4.722,4.7657,4.6304,4.5909,4.6097,3.352,0.0,0.0,0.0,3.5377,0.0,0.0,0.0,4.051,0.0,4.1918,4.3418,4.472,4.4914,4.5194,4.5806,4.582,0.0,4.2672,4.2422,0.0,0.0,3.9369,3.8905,3.8905,0.0,0.0,0.0,0.0,0.0,0.0,0.0,0.0,0.0,3.2406,0.0,3.474,3.5426,3.6172,3.6893,3.6689,3.7011,3.7674,3.837,3.9021,3.9649,4.0273,4.0412,4.0292,4.0138,3.9999,3.9728,3.8772,3.8358,3.8027,3.6816,3.6459,3.6419,3.6316,3.5679,3.5041,3.5018,0.0,0.0,0.0,0.0,3.2738,0.0,0.0,0.0,0.0,0.0,0.0,0.0,0.0,0.0,0.0,0.0,0.0,0.0,0.0,0.0,0.0,0.0,2.9558,3.2164,3.1757,3.265,0.0,0.0,3.7423,3.8928,3.9694,4.0827,4.2365,4.2158,4.2333,4.2868,4.2851,4.3036,4.3355,4.2811,4.3024,4.385,4.3148,4.3418,4.4389,4.5459,4.5993,4.625,4.7268,4.7689,4.7541,4.6317,4.6012,4.6279,3.5255,3.6185,3.7023,0.0,3.6951,3.7168,0.0,0.0,0.0,0.0,4.3668,4.4983,4.5814,4.6442,4.6816,4.6834,4.6292,0.0,0.0,0.0,0.0,4.4239,4.1859,4.0503,4.0503,3.7538,0.0,3.5652,0.0,0.0,3.3045,0.0,0.0,0.0,0.0,0.0,3.4603,3.5429,3.6796,3.8415,3.8265,3.8585,0.0,0.0,3.973,4.0398,4.0478,4.0412,4.0251,4.0024,3.9939,3.9816,3.936,3.9139,3.8801,3.7744,3.7328,3.705,3.6276,3.5843,3.5577,3.5468,3.4671,3.3839,0.0,0.0,0.0,0.0,0.0,0.0,0.0,0.0,0.0,0.0,0.0,0.0,0.0,0.0,0.0,2.6898,0.0,0.0,0.0,0.0,2.8622,3.0352,3.0779,3.2175,0.0,0.0,0.0,3.8596,4.0435,4.1661,4.2174,4.1629,4.1756,4.2524,4.213,4.2317,4.3038,4.3131,4.3357,4.3673,4.3623,4.3927,4.4514,4.5405,4.6204,4.6942,4.7218,4.7473,4.7624,4.6942,4.6812,4.6955,3.5439,0.0,0.0,3.8703,0.0,0.0,4.0274,0.0,0.0,4.2783,4.4304,0.0,4.5753,4.6815,4.7414,4.723,4.6784,0.0,0.0,0.0,0.0,4.4792,4.375,4.284,4.2152,3.9666,0.0,3.6735,0.0,0.0,3.3116,0.0,0.0,0.0,0.0,3.3475,0.0,3.6126,3.7561,3.8816,3.88,0.0,0.0,3.9617,3.9816,4.0155,4.0341,4.0325,4.0125,3.9602,3.9349,3.9146,3.8557,3.8275,3.8035,3.7336,3.727,3.7278,3.6658,3.638,3.6308,3.6473,3.5701,3.482,3.4593,3.4862,3.4847,0.0,0.0,0.0,0.0,0.0,0.0,0.0,0.0,0.0,0.0,0.0,0.0,0.0,0.0,0.0,0.0,0.0,2.7542,2.8676,2.9102,3.0413,0.0,0.0,0.0,3.7364,3.922,4.0562,4.1309,4.0658,4.0944,4.219,4.1688,4.1938,4.2791,4.3114,4.3357,4.3524,4.3628,4.3894,4.432,4.5187,4.609,4.6964,4.7775,4.8048,4.7997,4.7827,4.7743,4.7683,0.0,0.0,0.0,0.0,0.0,0.0,0.0,4.2774,0.0,4.3363,0.0,4.5576,4.5449,4.6692,4.7446,4.7274,0.0,4.6594,4.5039,4.6253,4.611,4.4043,4.5142,4.5113,4.3686,4.1909,0.0,0.0,0.0,0.0,0.0,0.0,0.0,0.0,0.0,0.0,0.0,3.7235,3.8434,0.0,3.9039,3.9404,3.9853,3.9819,3.9644,3.9465,4.0045,4.0175,3.9948,3.9169,3.8656,3.8218,3.736,3.6903,3.6653,3.6419,3.6802,3.7268,3.7116,3.7092,3.7192,3.7559,3.6955,3.6111,3.5462,3.5513,3.5553,3.4939,3.413,3.3618,0.0,0.0,0.0,0.0,0.0,0.0,0.0,0.0,0.0,0.0,0.0,0.0,0.0,0.0,2.6519,2.7192,2.7242,2.8264,0.0,0.0,0.0,3.5865,3.7265,3.8716,4.0222,0.0,4.0134,4.1866,4.1421,4.1689,4.2587,4.2898,4.3143,4.3343,4.3372,4.3568,4.3933,4.4926,4.5831,4.68,4.8487,4.8884,4.8516,4.8893,4.8796,4.8459,0.0,0.0,0.0,0.0,0.0,4.3136,4.4476,4.4784,4.511,4.578,4.6693,4.7272,4.7251,4.7494,4.7604,4.7457,4.7446,0.0,0.0,0.0,0.0,4.642,4.6016,4.5363,4.4435,4.2176,4.0453,0.0,0.0,0.0,0.0,0.0,0.0,0.0,0.0,0.0,3.7455,3.8412,0.0,4.066,4.0683,4.0695,4.0669,4.045,3.9965,3.9442,3.9834,3.9948,3.9867,3.9492,3.8872,3.8197,3.802,3.7392,3.6692,3.664,3.6947,3.7254,3.7004,3.7552,3.8078,3.7439,3.7779,3.7964,3.6707,3.6661,3.6917,3.6937,3.604,3.5165,3.485,0.0,0.0,0.0,0.0,0.0,0.0,0.0,0.0,0.0,0.0,0.0,0.0,0.0,0.0,2.6382,2.6409,2.7554,0.0,0.0,0.0,0.0,3.7095,0.0,0.0,0.0,3.9925,4.1638,4.1022,4.131,4.2445,4.2618,4.2806,4.3008,4.3266,4.3509,4.3707,4.4615,4.5882,4.7357,4.8571,4.8978,4.9006,4.994,4.9921,4.943,0.0,0.0,0.0,0.0,0.0,0.0,0.0,4.5439,0.0,4.5888,4.6214,4.6468,4.6468,4.72,4.7646,4.7511,4.75,4.7436,4.7261,4.7223,4.7174,4.71,4.6668,0.0,4.4631,4.3091,4.1268,3.9182,0.0,0.0,0.0,0.0,0.0,0.0,0.0,3.5712,0.0,0.0,0.0,4.0412,4.0827,4.0912,4.0781,4.0643,4.0305,3.9822,3.9529,3.959,3.9705,3.913,3.8358,3.7615,3.7542,3.714,3.6692,3.661,3.6877,3.7157,3.6948,3.7727,3.8457,3.7867,3.8325,3.8679,3.7821,3.7688,3.7707,3.7623,3.6878,3.576,3.4235,3.1901,0.0,0.0,0.0,0.0,0.0,0.0,0.0,0.0,0.0,0.0,0.0,0.0,0.0,0.0,0.0,0.0,0.0,0.0,0.0,0.0,0.0,0.0,0.0,0.0,0.0,4.1189,4.0795,4.1102,4.1997,4.2333,4.2587,4.276,4.3038,4.3496,4.4153,4.5415,4.6528,4.7512,4.8697,4.9213,4.9441,5.0517,5.0486,4.9977,0.0,4.1861,0.0,0.0,4.3051,0.0,4.4659,4.5777,4.6341,4.587,4.5816,4.5816,4.5816,4.6928,4.7657,4.7543,4.7543,4.7461,4.7302,4.7249,4.7201,4.7156,4.7054,4.632,4.4899,4.4114,4.2289,0.0,0.0,0.0,0.0,0.0,0.0,0.0,0.0,0.0,0.0,0.0,3.9398,4.002,4.0814,4.0954,4.0714,4.0844,4.0549,3.9991,3.9402,3.9207,3.9175,3.8766,3.8033,3.727,3.7168,3.6923,3.6695,3.6714,3.6899,3.7106,3.7096,3.7824,3.8491,3.823,3.8638,3.9004,3.8539,3.8295,3.8109,3.7956,3.7323,3.6104,3.3823,3.1986,0.0,0.0,0.0,0.0,0.0,0.0,0.0,0.0,0.0,0.0,0.0,0.0,0.0,0.0,0.0,2.5771,2.8334,2.9282,3.0823,0.0,0.0,3.5797,3.7536,0.0,3.8717,4.0515,4.0611,4.0985,4.1605,4.2029,4.2334,4.2508,4.2744,4.356,4.4836,4.625,4.7118,4.7621,4.8659,4.9158,4.9438,5.0517,5.046,5.0016,0.0,0.0,0.0,0.0,0.0,0.0,4.623,4.6503,4.6729,4.7381,4.7471,4.7471,4.7471,4.7616,4.7689,4.7668,4.7668,4.7565,4.7331,4.728,4.7209,4.7032,4.7009,4.6587,4.5713,4.4917,4.3597,0.0,0.0,0.0,0.0,0.0,0.0,0.0,0.0,0.0,0.0,3.9766,4.0176,4.0848,4.159,4.1419,4.0753,4.1311,4.0594,3.935,3.9695,3.8912,3.7874,3.9004,3.8748,3.79,3.79,3.7364,3.678,3.7275,3.7261,3.7205,3.7676,3.7938,3.806,3.8029,3.8738,3.9245,3.8417,3.8129,3.8144,3.8543,3.7843,3.6671,3.501,3.3818,3.2528,0.0,0.0,0.0,0.0,0.0,0.0,0.0,0.0,0.0,0.0,2.4431,0.0,0.0,2.4592,2.526,2.7585,2.846,2.977,3.1644,0.0,3.444,3.5119,3.72,3.8716,3.962,4.041,4.106,4.1605,4.1654,4.1851,4.2158,4.2492,4.3712,4.5561,4.632,4.7143,4.7967,4.8196,4.8311,4.8476,4.96,4.9559,4.9184,0.0,0.0,0.0,0.0,0.0,0.0,0.0,4.7486,4.7839,4.9103,4.8357,4.7707,4.7707,4.7707,4.7707,4.7707,4.8141,4.815,4.7464,4.7802,4.7745,4.714,4.7043,4.6616,4.582,4.547,4.4538,0.0,0.0,0.0,0.0,0.0,0.0,0.0,0.0,3.9753,4.0539,4.0959,4.1327,4.1624,4.2413,4.2172,4.144,4.2039,4.181,4.1078,4.0205,3.971,3.9413,3.897,3.847,3.8068,3.8466,3.8239,3.7872,3.8001,3.8151,3.8264,3.8344,3.8964,3.9502,3.9262,3.9831,4.0249,3.9461,3.8825,3.853,3.8856,3.8201,3.7193,3.5968,3.4387,3.3165,0.0,0.0,0.0,0.0,0.0,0.0,0.0,0.0,0.0,0.0,0.0,0.0,0.0,0.0,2.4714,2.7115,2.7626,2.8857,3.1058,0.0,3.4797,3.5817,3.7745,3.9087,3.9797,4.0366,4.073,4.0953,4.139,4.1785,4.2157,4.3266,4.4269,4.5228,4.6454,4.7258,4.777,4.8332,4.8564,4.8696,4.9792,4.974,4.9303,4.6883,0.0,4.6039,0.0,4.6607,4.6669,4.8608,4.8784,4.9091,5.0159,4.9237,4.8455,4.8405,4.8405,4.8315,4.8069,4.8576,4.8475,4.7511,4.8119,4.8097,4.7181,4.7472,0.0,4.6516,4.6509,4.5856,4.4535,4.3269,0.0,0.0,0.0,0.0,0.0,4.1116,4.1801,4.193,4.2211,4.2349,4.2418,4.3156,4.2901,4.2119,4.2761,4.2767,4.2266,4.1002,4.0801,4.094,3.9771,3.9156,3.889,3.8925,3.8911,3.882,3.8456,3.8605,3.8884,3.8732,3.9249,3.9864,3.9964,4.0315,4.0514,4.0091,3.9379,3.8775,3.8736,3.8094,3.7364,3.6642,3.5052,3.3882,3.4005,0.0,0.0,0.0,0.0,0.0,0.0,0.0,2.8139,2.7229,0.0,0.0,0.0,0.0,2.5357,2.7442,2.784,0.0,0.0,0.0,0.0,0.0,3.7596,3.8849,3.9619,4.0065,4.0351,4.0524,4.1171,4.1732,4.2315,4.3676,4.4568,4.5193,4.6543,4.7268,4.7553,4.8179,4.8427,4.8511,4.9376,4.936,4.906,4.9233,4.8838,4.8773,5.0453,4.9978,4.9622,5.0437,5.0464,5.0349,5.0304,5.0282,5.0232,5.0093,5.0064,4.9756,4.8956,4.8891,4.8443,4.7367,4.8057,4.8064,0.0,0.0,4.8942,4.8199,4.8181,4.777,4.6955,0.0,0.0,4.2941,0.0,4.2954,4.4376,4.3545,4.3569,4.4207,4.3483,4.3189,4.3229,4.3847,4.352,4.2765,4.3431,4.3114,4.2273,4.2126,4.1994,4.1846,4.1711,4.134,4.0719,3.9263,3.9154,3.941,3.8474,3.8443,3.8702,3.8702,3.8369,3.834,3.9665,3.9759,3.9607,3.9932,3.9482,3.8758,3.7967,3.7383,3.7012,3.6993,3.6098,3.4986,3.38,0.0,0.0,0.0,0.0,0.0,0.0,2.7709,2.7032,2.7004,0.0,0.0,0.0,0.0,0.0,0.0,0.0,0.0,3.1263,3.3054,0.0,3.4518,3.6311,3.7727,3.8717,3.9398,3.9983,4.0507,4.0915,4.1647,4.263,4.3375,4.4503,4.5856,4.6602,4.7149,4.7503,4.7503,4.752,4.7554,4.7902,4.8017,4.8066,5.0306,5.0196,5.0178,5.071,5.0552,5.0623,5.144,5.1519,5.1608,5.1952,5.2003,5.1944,5.1772,5.0753,4.9992,0.0,5.0216,5.0125,0.0,4.9739,4.9713,4.8744,4.9085,4.9198,4.896,4.8948,4.852,4.769,0.0,0.0,0.0,4.5254,4.5533,4.5414,4.6087,4.6206,4.5889,4.6148,4.5975,4.5579,4.6266,4.5986,4.5168,4.5285,4.5044,4.4457,4.316,4.2627,4.2405,4.172,4.1328,4.1048,4.0471,4.0256,4.0108,3.9585,3.9854,4.029,4.0055,4.0133,4.0296,4.05,4.0354,4.0107,3.9864,3.9661,3.9135,3.7755,3.8003,3.8274,3.7529,3.6792,3.5889,3.4684,3.3551,0.0,0.0,0.0,0.0,0.0,2.8849,2.8763,0.0,2.7892,0.0,0.0,0.0,0.0,0.0,0.0,0.0,0.0,3.3508,0.0,3.532,3.729,3.8444,3.8778,3.9269,3.9857,4.0507,4.0626,4.1076,4.1783,4.2826,4.3783,4.467,4.5855,4.6562,4.6911,4.7183,4.7301,4.7335,4.7571,4.7721,4.7836,5.1646,5.1691,5.1691,5.1691,5.1691,5.1867,5.2362,5.2454,5.2535,5.2773,5.2794,5.2724,5.2515,5.1604,0.0,5.0572,5.1006,5.0907,4.9963,5.0529,5.0491,4.9536,4.9948,5.0054,4.9769,0.0,0.0,4.8857,4.7876,4.7167,4.6765,4.7605,4.7818,4.7552,4.8027,4.7983,4.7541,4.7645,4.7427,4.7048,4.7372,4.7171,4.6613,4.6431,4.6265,4.5962,4.4738,4.4047,4.3637,4.3204,4.2677,4.2228,4.2356,4.2161,4.164,4.0379,4.0463,4.0912,4.0577,4.0649,4.0811,4.0805,4.0778,4.0674,4.0378,3.9847,3.9175,3.8302,3.8392,3.8385,3.7715,3.7163,3.6467,3.5409,3.4238,3.2943,3.1437,0.0,0.0,0.0,0.0,0.0,0.0,2.9079,2.8872,0.0,0.0,0.0,0.0,0.0,0.0,3.21,3.4263,0.0,3.6473,3.7641,3.8433,3.88,3.921,3.9643,4.0089,4.0331,4.0783,4.1473,4.2646,4.3586,4.4389,4.5603,4.6261,4.6511,4.6754,4.691,4.6996,4.72,4.742,4.7654,5.3049,5.3196,5.3196,0.0,5.3196,0.0,5.3196,5.3196,5.3111,5.2857,5.2813,5.2735,5.2526,5.251,5.2202,5.1459,0.0,0.0,0.0,5.0637,5.0599,4.9709,5.1027,5.1405,5.0602,5.1249,5.1155,5.0272,4.925,4.9016,4.9501,4.9418,4.9771,5.0422,4.9362,4.9012,4.9184,4.8256,4.7858,4.783,4.7501,4.7369,4.7326,4.7002,4.6885,4.6824,4.6576,4.5973,4.5325,4.5658,4.499,4.4073,4.4561,4.449,4.3693,4.099,4.0593,4.0928,4.0542,4.0297,4.0255,4.0723,4.0995,4.1176,4.1269,4.0096,3.9099,3.9421,3.8572,3.7744,3.762,3.726,3.6706,3.5887,3.507,3.3956,3.2305,0.0,0.0,0.0,0.0,0.0,0.0,3.0121,3.0331,0.0,0.0,0.0,0.0,0.0,3.25,3.4589,3.5194,3.6195,3.7737,3.7478,3.7835,3.8782,3.9159,3.9403,3.9484,4.0074,4.0797,4.1657,4.2705,4.3749,4.4766,4.5639,4.612,4.6296,4.6314,4.6405,4.66,4.6807,4.7115,4.7503,0.0,0.0,5.3196,5.3196,5.3196,5.3196,5.3196,5.3196,5.3153,5.2977,5.2861,5.2739,5.2586,5.2519,5.2426,5.2226,5.222,5.2118,5.1902,5.1837,5.1724,5.1491,5.2203,5.2238,5.1422,5.208,5.1628,4.9992,4.9648,4.953,4.9661,5.0,5.0523,5.1204,5.0175,5.006,5.0572,4.9801,4.9462,4.943,4.9208,4.9044,4.8875,4.8086,4.7659,4.7383,4.6613,4.616,4.586,4.5637,4.5287,4.495,4.4935,4.4706,4.4148,4.2651,4.2711,4.3054,4.2163,4.1753,4.1545,4.1245,4.0879,4.0691,4.1064,4.1079,4.0743,3.9699,3.9499,3.9111,3.7854,3.7149,3.6453,3.5508,3.4543,3.3435,3.2052,3.1667,0.0,0.0,3.0882,3.0973,3.0968,3.116,3.1141,0.0,0.0,0.0,0.0,3.3622,3.4054,3.4244,3.5486,3.6493,3.7182,3.7562,3.8015,3.8571,3.8815,3.9357,4.0191,4.0628,4.1097,4.1568,4.2384,4.3129,4.3798,4.4557,4.5387,4.6168,4.6261,4.6333,4.6404,4.6598,4.6824,4.7163,5.4216,5.4308,5.4308,5.4308,5.4308,5.4308,5.4308,5.3977,5.3696,5.3577,5.3109,5.275,5.2613,5.2542,5.2643,5.3023,5.2715,5.2661,5.3023,5.2786,5.2803,5.3145,5.3312,5.3207,5.2748,5.2993,5.2369,5.0858,5.0791,5.053,5.0112,5.0753,5.1202,5.15,5.1248,5.1149,5.1166,5.0713,5.0306,4.9979,4.9784,4.9619,4.9436,4.883,4.8467,4.8221,4.7663,4.7109,4.6674,4.6564,4.6142,4.5669,4.5714,4.549,4.5035,4.4128,4.3865,4.3694,4.2937,4.2568,4.2366,4.2129,4.1518,4.1153,4.1704,4.1543,4.1003,3.9974,3.9581,3.9047,3.7815,3.7187,3.65,3.5502,3.4645,3.3629,3.2272,3.1934,0.0,3.173,3.1588,3.1763,3.2527,3.2431,3.2389,3.2555,3.3455,0.0,3.4212,3.5058,3.546,3.5278,3.6098,3.6768,3.7275,3.7605,3.8035,3.8557,3.8629,3.935,4.0587,4.0772,4.1185,4.1777,4.2667,4.327,4.3696,4.4486,4.5222,4.5825,4.59,4.6082,4.6315,4.6405,4.6913,4.7584,5.5475,5.5603,5.5603,5.5603,5.5603,5.5603,5.5603,5.5023,5.455,5.4422,5.3697,5.3093,5.2835,5.2747,5.2974,5.3639,5.3078,5.3023,5.3838,5.3634,5.3768,5.4367,5.4247,5.4108,5.4001,5.3735,5.3131,5.2176,5.2176,5.1769,5.1025,5.1647,5.1915,5.1865,5.2307,5.2181,5.16,5.1245,5.0737,5.0151,4.9835,4.9619,4.9488,4.9275,4.9124,4.897,4.8816,4.8241,4.7585,4.7655,4.7061,4.6352,4.6579,4.6404,4.602,4.5384,4.4621,4.3866,4.3425,4.3091,4.2903,4.2966,4.2406,4.1978,4.2603,4.1888,4.0945,4.0401,3.9592,3.8728,3.7896,3.7417,3.6773,3.5636,3.5019,3.4163,3.2659,0.0,3.2636,3.282,3.2504,3.2745,3.3971,3.3798,3.387,3.4568,3.5341,3.5717,3.5616,3.6274,3.6699,3.6731,3.675,3.7006,3.7553,3.7691,3.8044,3.8651,3.8782,3.957,4.0929,4.0973,4.1405,4.2148,4.3103,4.3704,4.4062,4.4803,4.5322,4.5654,4.5748,4.6047,4.6402,4.6568,4.7324,4.8283,5.5607,5.5603,5.5603,5.5603,5.5603,5.5603,5.5603,5.5493,5.5409,5.5398,5.5159,5.4688,5.387,5.372,5.3695,5.3705,5.3585,5.3856,5.4671,5.4463,5.4331,5.4403,5.4797,5.4692,5.4001,5.3735,5.3409,5.3011,5.3011,5.2944,5.2808,5.2739,5.2983,5.3431,5.2775,5.2712,5.299,5.1666,5.103,5.0861,5.0025,4.9619,4.9488,4.9275,4.9124,4.8955,4.8658,4.8464,4.8253,4.7704,4.7405,4.7239,4.693,4.658,4.6262,4.6134,4.5683,4.5078,4.4378,4.3733,4.3188,4.3031,4.2643,4.2402,4.2837,4.2667,4.2171,4.1373,4.0939,4.0258,3.8723,3.8117,3.7258,3.5531,3.5171,3.4519,3.2883,0.0,3.4066,3.3596,3.4048,3.4566,3.4965,3.4932,3.5386,3.6473,3.6848,3.7169,3.7462,3.7766,3.7621,3.6982,3.6935,3.7088,3.7341,3.8081,3.857,3.886,3.9934,4.0841,4.1568,4.2137,4.2424,4.2538,4.2925,4.3628,4.4509,4.4636,4.5347,4.641,4.6972,4.7016,4.6837,4.7791,4.8279,4.862,5.6934,5.6952,5.6888,5.6888,5.6888,5.6888,5.6888,5.651,5.6253,5.6253,5.5692,5.5135,5.4695,5.451,5.4568,5.4919,5.4943,5.5287,5.6084,5.5548,5.5355,5.568,5.5861,5.571,5.5191,5.5068,5.4665,5.3947,5.3947,5.3693,5.3204,5.3505,5.3716,5.3798,5.3838,5.3688,5.3339,5.2168,5.1461,5.103,5.0199,4.9755,4.959,4.9411,4.9262,4.9046,4.8642,4.8499,4.8404,4.7737,4.7503,4.7436,4.703,4.6616,4.6298,4.6298,4.592,4.5382,4.482,4.426,4.3785,4.3594,4.3208,4.2891,4.2856,4.2769,4.2431,4.1429,4.1091,4.0599,3.9458,3.8651,3.7837,3.687,3.6036,0.0,0.0,3.4426,3.4538,3.4372,3.4362,3.4715,3.5606,3.5497,3.5822,3.6914,3.738,3.7566,3.7406,3.7806,3.7775,3.7167,3.7506,3.769,3.769,3.8601,3.9476,4.0236,4.0366,4.1248,4.2777,4.247,4.2707,4.3348,4.3479,4.3934,4.461,4.4723,4.517,4.5834,4.626,4.646,4.6639,4.7574,4.8272,4.8861,5.8034,5.8065,5.7997,5.7997,5.7997,5.7997,5.7997,5.7483,5.6994,5.6777,5.6031,5.5363,5.4941,5.4754,5.4961,5.5667,5.574,5.6156,5.7134,5.6539,5.6327,5.6789,5.664,5.6437,5.6211,5.6197,5.5755,5.4857,5.4857,5.4472,5.3749,5.4314,5.4402,5.4109,5.4731,5.451,5.3598,5.2806,5.2048,5.1289,5.0548,5.0132,4.9968,4.9819,4.9638,4.9425,4.8925,4.865,4.8404,4.7754,4.752,4.7436,4.7081,4.6667,4.633,4.6506,4.621,4.5667,4.5014,4.4572,4.4274,4.417,4.3726,4.3255,4.3042,4.2847,4.2454,4.1572,4.1242,4.0876,4.0147,3.931,3.8538,3.8003,0.0,0.0,0.0,3.527,3.516,3.5171,3.4887,3.5153,3.6325,3.6118,3.6321,3.7275,3.7728,3.78,3.7379,3.78,3.7916,3.7612,3.8051,3.8227,3.8147,3.9198,4.0277,4.1333,4.0905,4.1701,4.3507,4.2674,4.289,4.3929,4.3929,4.4238,4.478,4.4974,4.5216,4.5472,4.5886,4.621,4.658,4.7391,4.8218,4.8992,5.8054,5.8008,5.7997,5.7997,5.7997,5.7997,5.7997,5.7941,5.7595,5.6722,5.6553,5.5864,5.4181,5.3983,5.424,5.4919,5.4979,5.5613,5.7098,5.7152,5.7007,5.6807,5.6546,5.6346,5.6211,5.6197,5.6021,5.5621,5.5621,5.5513,5.5317,5.5387,5.5224,5.4905,5.4957,5.4772,5.4358,5.3632,5.2841,5.2048,5.1324,5.0941,5.0789,5.0575,5.0439,5.0238,4.9715,4.9085,4.842,4.7869,4.7604,4.7453,4.7251,4.6771,4.6426,4.7115,4.7034,4.6396,4.4988,4.4458,4.4342,4.4518,4.3918,4.3414,4.3818,4.3273,4.2613,4.2374,4.2149,4.1734,4.087,4.0307,3.9444,3.7877,0.0,0.0,3.5433,3.6145,3.6622,3.6084,3.6626,3.7171,3.7462,3.7286,3.7503,3.8327,3.8266,3.8246,3.8384,3.8423,3.8462,3.8501,3.8308,3.8317,3.8553,3.9802,4.0664,4.1123,4.2063,4.2695,4.307,4.316,4.3398,4.3729,4.3729,4.4297,4.5257,4.5472,4.5781,4.6225,4.7246,4.7386,4.7169,4.8221,4.864,4.8875,5.8133,5.8054,5.7997,5.7997,5.7997,5.7997,5.7997,5.7574,5.713,5.6765,5.6134,5.5477,5.4772,5.5002,5.5293,5.5571,5.6047,5.679,5.7876,5.7949,5.7585,5.6825,5.6626,5.6451,5.6332,5.6318,5.6148,5.5818,5.5818,5.5706,5.5493,5.5493,5.5312,5.5007,5.5007,5.4807,5.446,5.3718,5.3218,5.2875,5.2099,5.1759,5.1683,5.1391,5.1236,5.106,4.9983,4.9421,4.9022,4.7935,4.7537,4.7436,4.7132,4.7008,4.6999,4.7018,4.6747,4.6197,4.5098,4.4629,4.4442,4.4256,4.3762,4.331,4.3363,4.3113,4.2789,4.2474,4.2345,4.2149,4.1697,4.0934,4.0167,3.9673,0.0,3.7655,3.7304,3.7208,3.7019,3.6528,3.6746,3.6907,3.6869,3.6907,3.7106,3.7556,3.7851,3.7943,3.7774,3.7987,3.84,3.8943,3.9117,3.9384,3.9779,4.0761,4.1537,4.2087,4.2204,4.2685,4.3415,4.3209,4.3389,4.389,4.389,4.4338,4.5071,4.5258,4.5519,4.5833,4.6489,4.6971,4.7412,4.8407,4.9178,4.9837,5.7785,5.7541,5.7455,5.7916,5.7574,5.7317,5.7574,5.695,5.6334,5.6014,5.5336,5.4864,5.4841,5.5116,5.5511,5.6031,5.6761,5.7532,5.8347,5.8363,5.7998,5.7203,5.6765,5.6492,5.6414,5.6401,5.6277,5.5989,5.618,5.6164,5.595,5.6137,5.5906,5.539,5.539,5.505,5.4477,5.3944,5.3615,5.3356,5.2789,5.2534,5.2423,5.1905,5.1661,5.1466,5.0083,4.9454,4.9089,4.8018,4.7604,4.7453,4.7183,4.7381,4.765,4.7262,4.6925,4.6478,4.5805,4.5124,4.4557,4.4363,4.3791,4.3349,4.3469,4.3229,4.2915,4.2662,4.2541,4.2433,4.2222,4.1273,4.0513,4.0559,3.9239,3.8246,3.8301,3.7956,3.7638,3.7419,3.7305,3.7339,3.7525,3.751,3.7624,3.7959,3.8191,3.8144,3.7794,3.8103,3.865,3.9382,3.9926,4.038,4.0774,4.1382,4.1974,4.2485,4.2245,4.2611,4.3469,4.3143,4.3369,4.4007,4.4007,4.4301,4.4818,4.5092,4.5275,4.546,4.5954,4.6672,4.7487,4.8256,4.9195,5.012,5.6878,5.6363,5.6275,5.7744,5.6668,5.5879,5.6682,5.6106,5.5266,5.4327,5.4195,5.4132,5.4013,5.3888,5.4444,5.6055,5.681,5.755,5.8365,5.8272,5.8146,5.7994,5.6975,5.6414,5.6401,5.6401,5.6332,5.6197,5.6801,5.7032,5.6902,5.7515,5.7217,5.6191,5.6191,5.5569,5.4512,5.4512,5.408,5.3408,5.3408,5.328,5.3004,5.2046,5.1616,5.1341,5.0051,4.9136,4.8468,4.8098,4.777,4.7503,4.752,4.793,4.8331,4.8007,4.7757,4.7549,4.727,4.5931,4.468,4.4926,4.4157,4.3529,4.4399,4.3778,4.3001,4.3001,4.2835,4.2642,4.2433,4.1353,4.0417,4.0157,3.944,3.8678,3.8007,3.8322,3.8685,3.888,3.8671,3.8934,3.9992,3.9556,3.9436,4.0064,3.9536,3.9085,3.8827,3.9059,3.9397,3.9801,4.0636,4.1206,4.1396,4.1598,4.1806,4.1993,4.2269,4.2622,4.3001,4.3001,4.3374,4.4007,4.4007,4.4224,4.4644,4.5036,4.5201,4.5294,4.601,4.6763,4.7441,4.7868,4.8555,4.9433,5.6956,5.7124,5.7308,5.7171,5.6767,5.6528,5.6756,5.5647,5.4664,5.4382,5.3767,5.3303,5.3163,5.4059,5.4815,5.5239,5.6978,5.8345,5.9054,5.888,5.8245,5.7061,5.6805,5.66,5.6414,5.6492,5.6369,5.5993,5.6744,5.669,5.5918,5.6628,5.6437,5.5506,5.5506,5.5262,5.4838,5.4747,5.4579,5.4321,5.3661,5.328,5.3004,5.2046,5.1616,5.1341,5.0051,4.9454,4.9106,4.8018,4.7899,4.8285,4.8763,4.9028,4.9065,4.8543,4.8251,4.7926,4.7181,4.6394,4.5706,4.5312,4.4395,4.3642,4.3896,4.3578,4.3155,4.3036,4.2835,4.2642,4.2433,4.1826,4.1221,4.0873,4.0374,3.9888,3.9503,3.9438,3.9528,3.973,3.9657,3.9704,3.9866,3.9736,3.9636,3.9682,3.9642,3.965,3.971,3.9789,4.0093,4.0685,4.0949,4.1253,4.1619,4.1681,4.1806,4.1993,4.2269,4.2622,4.3016,4.3329,4.3675,4.4007,4.4147,4.4511,4.5017,4.5145,4.5442,4.5862,4.6171,4.6835,4.7686,4.8437,4.9357,5.0396,5.693,5.7018,5.7172,5.7262,5.6492,5.5959,5.629,5.4968,5.394,5.394,5.3385,5.3087,5.3328,5.4045,5.4772,5.5354,5.7212,5.8602,5.9281,5.8816,5.8082,5.7119,5.6841,5.6465,5.5937,5.6371,5.6451,5.6088,5.683,5.6813,5.6156,5.6821,5.6633,5.5671,5.5671,5.5392,5.4917,5.4826,5.4749,5.4619,5.406,5.3509,5.2926,5.2063,5.1397,5.0787,4.9598,4.9169,4.9056,4.8365,4.8474,4.9019,4.9468,4.9558,4.9486,4.933,4.8871,4.8345,4.8054,4.7263,4.6513,4.641,4.5219,4.4046,4.3853,4.3542,4.327,4.3135,4.303,4.287,4.2668,4.2117,4.1587,4.127,4.101,4.0677,4.0171,4.0282,4.0456,4.0495,4.0495,4.0557,4.0706,4.0686,4.0617,4.0495,4.038,4.037,4.0495,4.0495,4.0644,4.0969,4.1326,4.1569,4.1709,4.1821,4.1862,4.1889,4.2234,4.2622,4.3016,4.3384,4.3754,4.4143,4.4243,4.4587,4.5092,4.5182,4.5515,4.6006,4.6207,4.7047,4.8212,4.8886,4.997,5.1206,5.6871,5.6444,5.6412,5.7671,5.6014,5.4748,5.5493,5.4223,5.3185,5.3196,5.3092,5.3273,5.4001,5.3993,5.451,5.597,5.7373,5.8465,5.9065,5.829,5.7742,5.7598,5.694,5.6157,5.5223,5.6121,5.6532,5.6387,5.699,5.7185,5.7001,5.7585,5.7324,5.6331,5.6331,5.5778,5.4826,5.4826,5.4717,5.4527,5.4443,5.3789,5.2818,5.2064,5.1144,5.0069,4.9078,4.8716,4.8753,4.9128,4.9433,4.9688,4.9824,4.9748,4.9684,5.011,4.9489,4.8797,4.94,4.8331,4.719,4.7813,4.638,4.4694,4.423,4.375,4.3384,4.3344,4.329,4.323,4.3036,4.2322,4.1685,4.1525,4.149,4.1206,4.039,4.0985,4.1405,4.1198,4.1192,4.1424,4.2034,4.2034,4.2005,4.2005,4.1497,4.1192,4.1192,4.1212,4.1111,4.0916,4.1705,4.2016,4.1744,4.1974,4.1995,4.1765,4.2193,4.2622,4.3016,4.323,4.3665,4.4281,4.4339,4.4572,4.493,4.5148,4.546,4.5862,4.6171,4.7241,4.8667,4.9126,5.0275,5.1653,5.697,5.7205,5.7443,5.7116,5.6106,5.5401,5.5567,5.4151,5.3082,5.3185,5.3092,5.3039,5.3105,5.418,5.4969,5.5166,5.702,5.8252,5.8406,5.8021,5.724,5.5973,5.6349,5.6157,5.5223,5.6121,5.6478,5.6235,5.6862,5.6757,5.6014,5.661,5.647,5.5694,5.5694,5.5484,5.5111,5.5007,5.4871,5.4665,5.392,5.3343,5.2818,5.2016,5.1403,5.0931,5.0586,5.0356,5.0242,5.0327,5.0302,5.0243,5.0375,5.0387,5.0285,4.9864,4.9483,4.9148,4.9117,4.8686,4.8142,4.7772,4.6701,4.5601,4.5131,4.4528,4.3998,4.3682,4.3309,4.3056,4.3016,4.2605,4.2234,4.2193,4.2173,4.2068,4.1727,4.1957,4.2106,4.1915,4.1874,4.1932,4.2092,4.2092,4.2078,4.2078,4.1961,4.1874,4.1874,4.2024,4.2024,4.1827,4.2149,4.2242,4.2016,4.2071,4.214,4.2234,4.2351,4.2622,4.3016,4.3374,4.3723,4.4104,4.4553,4.4908,4.5148,4.5349,4.5662,4.6042,4.6225,4.6632,4.7247,4.8753,4.962,5.0145,5.7487,5.7703,5.7758,5.6939,5.6124,5.5453,5.5001,5.3829,5.2999,5.3017,5.2883,5.2776,5.271,5.3781,5.4742,5.5371,5.6772,5.7634,5.7634,5.7729,5.7446,5.6671,5.7257,5.7408,5.7014,5.7046,5.6817,5.629,5.6546,5.6372,5.5807,5.6053,5.5918,5.5493,5.5493,5.5356,5.5111,5.5037,5.4871,5.462,5.4112,5.3544,5.2912,5.208,5.1568,5.1247,5.0586,5.061,5.0957,5.0762,5.0856,5.1033,5.0805,5.0685,5.0515,5.007,4.9757,4.9537,4.9331,4.9108,4.8831,4.8388,4.7671,4.6773,4.5561,4.4523,4.3788,4.3711,4.3658,4.3632,4.3632,4.3636,4.3487,4.3096,4.3016,4.2805,4.2198,4.2263,4.2351,4.2263,4.2325,4.2453,4.2657,4.2494,4.2433,4.252,4.2433,4.2331,4.2242,4.2345,4.2304,4.2113,4.2201,4.2216,4.2092,4.2092,4.2154,4.2263,4.2351,4.2622,4.3001,4.3433,4.3801,4.4166,4.4685,4.5002,4.522,4.5423,4.5773,4.6205,4.6262,4.6737,4.7494,4.8521,4.9553,5.0409,5.802,5.7997,5.7795,5.7123,5.6205,5.5298,5.4528,5.357,5.2893,5.2806,5.2687,5.2656,5.279,5.3576,5.4725,5.6265,5.6912,5.7255,5.7399,5.764,5.785,5.7959,5.8182,5.8388,5.855,5.7791,5.7114,5.6552,5.6292,5.6035,5.5861,5.5721,5.5607,5.5493,5.5493,5.5326,5.502,5.502,5.4853,5.4543,5.4543,5.4036,5.3194,5.2452,5.2039,5.1731,5.0605,5.0777,5.1462,5.1039,5.1268,5.1631,5.1029,5.0705,5.0512,5.0301,5.005,4.9797,4.9637,4.9416,4.921,4.9037,4.8558,4.7695,4.6069,4.4658,4.3773,4.4041,4.4213,4.4326,4.4405,4.4739,4.4745,4.3932,4.3865,4.3584,4.2609,4.2687,4.2817,4.2811,4.294,4.3125,4.3349,4.3053,4.2952,4.3119,4.2868,4.2642,4.2474,4.2453,4.2351,4.2154,4.2154,4.2133,4.2092,4.2092,4.2092,4.2092,4.2304,4.2602,4.2975,4.3374,4.3801,4.4281,4.4758,4.5039,4.522,4.546,4.5828,4.6278,4.628,4.6988,4.8012,4.8418,4.9649,5.1052,5.8008,5.7997,5.796,5.785,5.6504,5.5381,5.526,5.3765,5.2687,5.2783,5.2687,5.2863,5.3553,5.4882,5.6331,5.7949,5.8037,5.8338,5.9023,5.8282,5.7809,5.7823,5.7104,5.6718,5.6749,5.6628,5.6756,5.7182,5.6354,5.5861,5.5721,5.5578,5.5522,5.5493,5.5493,5.5386,5.5169,5.5169,5.5005,5.4749,5.4749,5.4474,5.4036,5.3788,5.3575,5.3345,5.2893,5.2585,5.2333,5.1831,5.1602,5.1424,5.0839,5.0496,5.0282,5.003,4.9812,4.9637,4.9597,4.9327,4.9037,4.8996,4.8204,4.7415,4.7323,4.6311,4.5434,4.5642,4.4946,4.442,4.4831,4.4968,4.483,4.4298,4.4543,4.4619,4.4081,4.4383,4.4572,4.4413,4.4398,4.4219,4.3711,4.3611,4.357,4.3596,4.3038,4.2688,4.2648,4.2648,4.2561,4.2366,4.2351,4.2284,4.2092,4.2092,4.2092,4.2092,4.2304,4.252,4.2749,4.315,4.3601,4.4069,4.483,4.5182,4.5238,4.5607,4.5898,4.6132,4.6261,4.661,4.7224,4.834,4.9506,5.0442,5.802,5.7997,5.785,5.7409,5.6262,5.5208,5.4695,5.385,5.3281,5.3294,5.3636,5.403,5.4392,5.536,5.6476,5.7623,5.7681,5.7761,5.8044,5.7972,5.7877,5.7796,5.7733,5.7671,5.7671,5.7275,5.711,5.7202,5.6319,5.5833,5.5709,5.5549,5.5493,5.5493,5.5493,5.5401,5.5214,5.5214,5.5053,5.4813,5.4813,5.4639,5.4301,5.3649,5.3589,5.38,5.323,5.2798,5.241,5.1961,5.1741,5.1555,5.0839,5.055,5.0398,5.001,4.9836,4.9737,4.9637,4.9392,4.9144,4.9037,4.8502,4.805,4.8153,4.7344,4.6478,4.6072,4.5777,4.5603,4.5723,4.6024,4.6073,4.5367,4.5414,4.5317,4.4623,4.4706,4.4853,4.486,4.4965,4.4929,4.4617,4.426,4.3991,4.3882,4.3341,4.293,4.2708,4.2809,4.2729,4.2412,4.2392,4.2304,4.2092,4.2092,4.2154,4.2263,4.2366,4.2514,4.2708,4.3215,4.3665,4.4046,4.472,4.5092,4.5238,4.5625,4.5954,4.6241,4.6509,4.6944,4.7436,4.8183,4.9028,4.9776]}]]